<?xml version='1.0' encoding='UTF-8'?><gpx version="1.1" creator="JPX - https://github.com/jenetics/jpx" xmlns="http://www.topografix.com/GPX/1/1"><trk><trkseg><trkpt lat="45.549803154129485" lon="10.419895499724541"><ele>190.0</ele><time>2026-03-31T13:15:15Z</time></trkpt><trkpt lat="45.549855372187196" lon="10.41982856401704"><ele>190.0</ele><time>2026-03-31T13:15:18Z</time></trkpt><trkpt lat="45.549914232634116" lon="10.419883522144282"><ele>190.0</ele><time>2026-03-31T13:15:21.001Z</time></trkpt><trkpt lat="45.549964780621906" lon="10.419951146296063"><ele>190.0</ele><time>2026-03-31T13:15:24.001Z</time></trkpt><trkpt lat="45.55004576869959" lon="10.419936299204954"><ele>190.0</ele><time>2026-03-31T13:15:47.001Z</time></trkpt><trkpt lat="45.55009379637505" lon="10.419842043367598"><ele>190.0</ele><time>2026-03-31T13:15:49.001Z</time></trkpt><trkpt lat="45.550154027558456" lon="10.419724394878708"><ele>189.8</ele><time>2026-03-31T13:15:51.001Z</time></trkpt><trkpt lat="45.55022384084018" lon="10.419620264810534"><ele>189.6</ele><time>2026-03-31T13:15:53.001Z</time></trkpt><trkpt lat="45.55028942356582" lon="10.419506382372061"><ele>189.39999999999998</ele><time>2026-03-31T13:15:55.001Z</time></trkpt><trkpt lat="45.55037140119562" lon="10.41940520176658"><ele>189.2</ele><time>2026-03-31T13:15:57.001Z</time></trkpt><trkpt lat="45.55045948316086" lon="10.419296319035888"><ele>189.0</ele><time>2026-03-31T13:15:59.001Z</time></trkpt><trkpt lat="45.550533452505306" lon="10.41918218884696"><ele>189.0</ele><time>2026-03-31T13:16:01.001Z</time></trkpt><trkpt lat="45.550584339170314" lon="10.419128841099175"><ele>189.0</ele><time>2026-03-31T13:16:02.001Z</time></trkpt><trkpt lat="45.55066123537728" lon="10.419015141217702"><ele>189.0</ele><time>2026-03-31T13:16:04.001Z</time></trkpt><trkpt lat="45.55072712983528" lon="10.418917708684187"><ele>189.0</ele><time>2026-03-31T13:16:06.001Z</time></trkpt><trkpt lat="45.55080034128416" lon="10.418811231041802"><ele>189.0</ele><time>2026-03-31T13:16:08.001Z</time></trkpt><trkpt lat="45.550875001627155" lon="10.418702886527601"><ele>189.2</ele><time>2026-03-31T13:16:10.001Z</time></trkpt><trkpt lat="45.55095443430587" lon="10.418587616553134"><ele>189.39999999999998</ele><time>2026-03-31T13:16:12.001Z</time></trkpt><trkpt lat="45.551018734673086" lon="10.418494306055415"><ele>189.6</ele><time>2026-03-31T13:16:14.001Z</time></trkpt><trkpt lat="45.55108631641374" lon="10.41839623373702"><ele>189.8</ele><time>2026-03-31T13:16:16.001Z</time></trkpt><trkpt lat="45.551153547468324" lon="10.418296509363236"><ele>190.0</ele><time>2026-03-31T13:16:18.001Z</time></trkpt><trkpt lat="45.55122168771828" lon="10.418194364765954"><ele>190.0</ele><time>2026-03-31T13:16:20.002Z</time></trkpt><trkpt lat="45.55129775636124" lon="10.418069933248354"><ele>190.0</ele><time>2026-03-31T13:16:22.002Z</time></trkpt><trkpt lat="45.55136554546716" lon="10.41794104746389"><ele>190.0</ele><time>2026-03-31T13:16:24.002Z</time></trkpt><trkpt lat="45.551425112429" lon="10.41779588798533"><ele>190.0</ele><time>2026-03-31T13:16:26.002Z</time></trkpt><trkpt lat="45.55147236131207" lon="10.417732612241226"><ele>190.0</ele><time>2026-03-31T13:16:27.002Z</time></trkpt><trkpt lat="45.55150532188449" lon="10.417654560814153"><ele>189.83333333333334</ele><time>2026-03-31T13:16:28.002Z</time></trkpt><trkpt lat="45.551520758092344" lon="10.417567193533808"><ele>189.66666666666669</ele><time>2026-03-31T13:16:29.002Z</time></trkpt><trkpt lat="45.551539797530715" lon="10.41747372103125"><ele>189.5</ele><time>2026-03-31T13:16:30.002Z</time></trkpt><trkpt lat="45.55155277403236" lon="10.417376756735678"><ele>189.33333333333334</ele><time>2026-03-31T13:16:31.002Z</time></trkpt><trkpt lat="45.551580905668956" lon="10.417295331641311"><ele>189.16666666666666</ele><time>2026-03-31T13:16:32.002Z</time></trkpt><trkpt lat="45.55160375511361" lon="10.417131612501917"><ele>189.0</ele><time>2026-03-31T13:16:34.002Z</time></trkpt><trkpt lat="45.551623638936235" lon="10.416985902223354"><ele>188.39999999999998</ele><time>2026-03-31T13:16:36.002Z</time></trkpt><trkpt lat="45.55163355687417" lon="10.416842045548941"><ele>187.8</ele><time>2026-03-31T13:16:38.002Z</time></trkpt><trkpt lat="45.551663105809254" lon="10.416709903057676"><ele>187.2</ele><time>2026-03-31T13:16:40.002Z</time></trkpt><trkpt lat="45.551698048420356" lon="10.416596864080367"><ele>186.60000000000002</ele><time>2026-03-31T13:16:42.002Z</time></trkpt><trkpt lat="45.55169488645894" lon="10.416474591343588"><ele>186.0</ele><time>2026-03-31T13:16:44.002Z</time></trkpt><trkpt lat="45.55169353519767" lon="10.416317559484968"><ele>186.0</ele><time>2026-03-31T13:16:46.002Z</time></trkpt><trkpt lat="45.55170052094066" lon="10.416160823560027"><ele>186.0</ele><time>2026-03-31T13:16:48.002Z</time></trkpt><trkpt lat="45.55172316566981" lon="10.416011902116807"><ele>186.0</ele><time>2026-03-31T13:16:50.002Z</time></trkpt><trkpt lat="45.55176369166537" lon="10.415850269131631"><ele>186.0</ele><time>2026-03-31T13:16:52.002Z</time></trkpt><trkpt lat="45.551809142487244" lon="10.415689885064527"><ele>186.0</ele><time>2026-03-31T13:16:54.002Z</time></trkpt><trkpt lat="45.55183375024757" lon="10.415604457207905"><ele>186.0</ele><time>2026-03-31T13:16:55.002Z</time></trkpt><trkpt lat="45.55187417288226" lon="10.415430971310194"><ele>186.0</ele><time>2026-03-31T13:16:57.001Z</time></trkpt><trkpt lat="45.5519046373668" lon="10.415259146549051"><ele>186.0</ele><time>2026-03-31T13:16:59.001Z</time></trkpt><trkpt lat="45.55192820063335" lon="10.415093987326733"><ele>186.0</ele><time>2026-03-31T13:17:01.001Z</time></trkpt><trkpt lat="45.55193209626563" lon="10.414923928189339"><ele>186.25</ele><time>2026-03-31T13:17:03.001Z</time></trkpt><trkpt lat="45.55195324562429" lon="10.414771876999806"><ele>186.5</ele><time>2026-03-31T13:17:05.001Z</time></trkpt><trkpt lat="45.55197412213172" lon="10.41460672141397"><ele>186.75</ele><time>2026-03-31T13:17:07.001Z</time></trkpt><trkpt lat="45.552001360388594" lon="10.414436032575015"><ele>187.0</ele><time>2026-03-31T13:17:09.001Z</time></trkpt><trkpt lat="45.552027068600395" lon="10.414262556583997"><ele>187.0</ele><time>2026-03-31T13:17:11.001Z</time></trkpt><trkpt lat="45.55205560641206" lon="10.414087011997575"><ele>187.0</ele><time>2026-03-31T13:17:13.001Z</time></trkpt><trkpt lat="45.55210164607178" lon="10.41391905422929"><ele>187.0</ele><time>2026-03-31T13:17:15.001Z</time></trkpt><trkpt lat="45.55215545274378" lon="10.413764329531247"><ele>187.0</ele><time>2026-03-31T13:17:17.001Z</time></trkpt><trkpt lat="45.552212403741244" lon="10.413628653976858"><ele>187.2</ele><time>2026-03-31T13:17:19.001Z</time></trkpt><trkpt lat="45.55228314936155" lon="10.413521096335788"><ele>187.39999999999998</ele><time>2026-03-31T13:17:21.001Z</time></trkpt><trkpt lat="45.55237004504997" lon="10.413433308366473"><ele>187.60000000000002</ele><time>2026-03-31T13:17:23.001Z</time></trkpt><trkpt lat="45.55246153299109" lon="10.413320286307886"><ele>187.8</ele><time>2026-03-31T13:17:25.001Z</time></trkpt><trkpt lat="45.55252348277221" lon="10.413193654265191"><ele>188.0</ele><time>2026-03-31T13:17:27.001Z</time></trkpt><trkpt lat="45.55254404856764" lon="10.41306217464833"><ele>188.0</ele><time>2026-03-31T13:17:29.001Z</time></trkpt><trkpt lat="45.55248090801976" lon="10.412959860704365"><ele>188.0</ele><time>2026-03-31T13:17:31.001Z</time></trkpt><trkpt lat="45.55239423256557" lon="10.412845511252947"><ele>188.0</ele><time>2026-03-31T13:17:33.001Z</time></trkpt><trkpt lat="45.55234327985314" lon="10.412790821657566"><ele>188.0</ele><time>2026-03-31T13:17:34.001Z</time></trkpt><trkpt lat="45.552256032423124" lon="10.412673221562052"><ele>188.0</ele><time>2026-03-31T13:17:36.001Z</time></trkpt><trkpt lat="45.55217702896725" lon="10.412559659457619"><ele>188.0</ele><time>2026-03-31T13:17:38.001Z</time></trkpt><trkpt lat="45.55210832705224" lon="10.412447512087013"><ele>188.0</ele><time>2026-03-31T13:17:40.001Z</time></trkpt><trkpt lat="45.55206086052583" lon="10.412337509565825"><ele>188.0</ele><time>2026-03-31T13:17:42.001Z</time></trkpt><trkpt lat="45.552012742930884" lon="10.412250111255014"><ele>188.0</ele><time>2026-03-31T13:17:44.001Z</time></trkpt><trkpt lat="45.551957395025276" lon="10.412143868954038"><ele>188.0</ele><time>2026-03-31T13:17:46.001Z</time></trkpt><trkpt lat="45.55190114016712" lon="10.412028592403212"><ele>187.33333333333331</ele><time>2026-03-31T13:17:48.001Z</time></trkpt><trkpt lat="45.551880486012124" lon="10.411932097968577"><ele>186.66666666666666</ele><time>2026-03-31T13:17:50.001Z</time></trkpt><trkpt lat="45.55194418877913" lon="10.41185831612668"><ele>186.0</ele><time>2026-03-31T13:17:55.001Z</time></trkpt><trkpt lat="45.552027118784835" lon="10.411795596992421"><ele>185.33333333333334</ele><time>2026-03-31T13:17:58.001Z</time></trkpt><trkpt lat="45.55210117879846" lon="10.411722409713644"><ele>184.66666666666669</ele><time>2026-03-31T13:18:00.001Z</time></trkpt><trkpt lat="45.552196768539154" lon="10.411660435771116"><ele>184.0</ele><time>2026-03-31T13:18:02.001Z</time></trkpt><trkpt lat="45.55228136190875" lon="10.411581958385245"><ele>184.0</ele><time>2026-03-31T13:18:04.001Z</time></trkpt><trkpt lat="45.552370347823846" lon="10.411495063467743"><ele>184.0</ele><time>2026-03-31T13:18:06.001Z</time></trkpt><trkpt lat="45.552464644216165" lon="10.411421688143152"><ele>184.0</ele><time>2026-03-31T13:18:08.001Z</time></trkpt><trkpt lat="45.552557627446745" lon="10.411336809707677"><ele>184.0</ele><time>2026-03-31T13:18:10.001Z</time></trkpt><trkpt lat="45.552646926380746" lon="10.411255157435077"><ele>184.0</ele><time>2026-03-31T13:18:12.001Z</time></trkpt><trkpt lat="45.55272631425146" lon="10.411184228247317"><ele>184.0</ele><time>2026-03-31T13:18:14.001Z</time></trkpt><trkpt lat="45.55280525002211" lon="10.41108946622497"><ele>184.0</ele><time>2026-03-31T13:18:16.001Z</time></trkpt><trkpt lat="45.55289435691344" lon="10.411009347549504"><ele>184.0</ele><time>2026-03-31T13:18:18.001Z</time></trkpt><trkpt lat="45.552988856398905" lon="10.410950731329716"><ele>184.0</ele><time>2026-03-31T13:18:20.001Z</time></trkpt><trkpt lat="45.55307560469846" lon="10.410873717931223"><ele>184.0</ele><time>2026-03-31T13:18:22.001Z</time></trkpt><trkpt lat="45.55316846698277" lon="10.410791276640648"><ele>184.0</ele><time>2026-03-31T13:18:24.001Z</time></trkpt><trkpt lat="45.55326418611195" lon="10.410706299102609"><ele>184.0</ele><time>2026-03-31T13:18:26.001Z</time></trkpt><trkpt lat="45.55334279861537" lon="10.410618702038116"><ele>184.0</ele><time>2026-03-31T13:18:28.001Z</time></trkpt><trkpt lat="45.55341843734039" lon="10.41056945496971"><ele>184.0</ele><time>2026-03-31T13:18:30.001Z</time></trkpt><trkpt lat="45.55348217479194" lon="10.410516915912709"><ele>184.0</ele><time>2026-03-31T13:18:32.001Z</time></trkpt><trkpt lat="45.553551304540846" lon="10.410441712305104"><ele>184.0</ele><time>2026-03-31T13:18:34.001Z</time></trkpt><trkpt lat="45.55362937493713" lon="10.410373100863763"><ele>184.0</ele><time>2026-03-31T13:18:36.001Z</time></trkpt><trkpt lat="45.553716652903276" lon="10.410299101643165"><ele>184.0</ele><time>2026-03-31T13:18:38.001Z</time></trkpt><trkpt lat="45.553799079908075" lon="10.410230346842713"><ele>184.0</ele><time>2026-03-31T13:18:40.001Z</time></trkpt><trkpt lat="45.55389107725411" lon="10.410163775630718"><ele>184.0</ele><time>2026-03-31T13:18:42.001Z</time></trkpt><trkpt lat="45.553980905877" lon="10.41008261344632"><ele>184.25</ele><time>2026-03-31T13:18:44.001Z</time></trkpt><trkpt lat="45.55411065586059" lon="10.410001511196992"><ele>184.5</ele><time>2026-03-31T13:18:47.001Z</time></trkpt><trkpt lat="45.554207454551324" lon="10.409937821651068"><ele>184.75</ele><time>2026-03-31T13:18:49.001Z</time></trkpt><trkpt lat="45.55431237929289" lon="10.409894543319187"><ele>185.0</ele><time>2026-03-31T13:18:51.001Z</time></trkpt><trkpt lat="45.55440319348681" lon="10.409845754511348"><ele>185.0</ele><time>2026-03-31T13:18:53.001Z</time></trkpt><trkpt lat="45.55446277098308" lon="10.409813917162099"><ele>185.0</ele><time>2026-03-31T13:18:54.001Z</time></trkpt><trkpt lat="45.55456229699117" lon="10.409744898981616"><ele>185.0</ele><time>2026-03-31T13:18:56.001Z</time></trkpt><trkpt lat="45.55465445958182" lon="10.409649043302498"><ele>185.0</ele><time>2026-03-31T13:18:58.001Z</time></trkpt><trkpt lat="45.554747803669606" lon="10.409565744780558"><ele>185.0</ele><time>2026-03-31T13:19:00.001Z</time></trkpt><trkpt lat="45.5548331114004" lon="10.409493201674122"><ele>185.0</ele><time>2026-03-31T13:19:02.001Z</time></trkpt><trkpt lat="45.55493960293113" lon="10.409532277188617"><ele>185.0</ele><time>2026-03-31T13:19:04.001Z</time></trkpt><trkpt lat="45.55504059285655" lon="10.409608381994587"><ele>185.0</ele><time>2026-03-31T13:19:06.001Z</time></trkpt><trkpt lat="45.55516130992478" lon="10.409620503451606"><ele>185.0</ele><time>2026-03-31T13:19:08.001Z</time></trkpt><trkpt lat="45.5552220539394" lon="10.409580662103092"><ele>185.0</ele><time>2026-03-31T13:19:09.001Z</time></trkpt><trkpt lat="45.555247099166294" lon="10.40948384944235"><ele>185.0</ele><time>2026-03-31T13:19:10.001Z</time></trkpt><trkpt lat="45.55530490153266" lon="10.40937099596199"><ele>185.0</ele><time>2026-03-31T13:19:12.001Z</time></trkpt><trkpt lat="45.55535463425637" lon="10.409269373308208"><ele>185.0</ele><time>2026-03-31T13:19:14Z</time></trkpt><trkpt lat="45.555378827209466" lon="10.409140071416868"><ele>185.0</ele><time>2026-03-31T13:19:16Z</time></trkpt><trkpt lat="45.555407095897635" lon="10.408995049604505"><ele>185.0</ele><time>2026-03-31T13:19:18Z</time></trkpt><trkpt lat="45.55549063378139" lon="10.408864043526375"><ele>185.4</ele><time>2026-03-31T13:19:20Z</time></trkpt><trkpt lat="45.55555100664364" lon="10.408811509790503"><ele>185.8</ele><time>2026-03-31T13:19:21Z</time></trkpt><trkpt lat="45.555638567267444" lon="10.408716295796093"><ele>186.2</ele><time>2026-03-31T13:19:23Z</time></trkpt><trkpt lat="45.555721215867095" lon="10.408620657914005"><ele>186.6</ele><time>2026-03-31T13:19:25Z</time></trkpt><trkpt lat="45.55580480488803" lon="10.408510557304435"><ele>187.0</ele><time>2026-03-31T13:19:27Z</time></trkpt><trkpt lat="45.555853799136315" lon="10.408450804332354"><ele>187.0</ele><time>2026-03-31T13:19:28Z</time></trkpt><trkpt lat="45.55595642737372" lon="10.408339063031061"><ele>187.0</ele><time>2026-03-31T13:19:30Z</time></trkpt><trkpt lat="45.55604954650916" lon="10.408236396229734"><ele>187.0</ele><time>2026-03-31T13:19:32Z</time></trkpt><trkpt lat="45.55612448627828" lon="10.408142905931768"><ele>187.0</ele><time>2026-03-31T13:19:34Z</time></trkpt><trkpt lat="45.55619400775325" lon="10.408066619921076"><ele>187.0</ele><time>2026-03-31T13:19:36Z</time></trkpt><trkpt lat="45.55627031662974" lon="10.407976840118433"><ele>190.25</ele><time>2026-03-31T13:19:38Z</time></trkpt><trkpt lat="45.55634897059115" lon="10.407868075287615"><ele>193.5</ele><time>2026-03-31T13:19:40Z</time></trkpt><trkpt lat="45.55642830570869" lon="10.40775671694867"><ele>196.75</ele><time>2026-03-31T13:19:42Z</time></trkpt><trkpt lat="45.55651044835444" lon="10.407697568401542"><ele>200.0</ele><time>2026-03-31T13:19:44Z</time></trkpt><trkpt lat="45.55646230072079" lon="10.407499713957925"><ele>200.00000000000003</ele><time>2026-03-31T13:19:47Z</time></trkpt><trkpt lat="45.556412732481796" lon="10.40743866467904"><ele>200.0</ele><time>2026-03-31T13:19:49Z</time></trkpt><trkpt lat="45.55635019370553" lon="10.40734712744187"><ele>200.0</ele><time>2026-03-31T13:19:52Z</time></trkpt><trkpt lat="45.55629640010275" lon="10.407287305074776"><ele>200.0</ele><time>2026-03-31T13:19:54Z</time></trkpt><trkpt lat="45.556232144313995" lon="10.407235302646352"><ele>200.00000000000003</ele><time>2026-03-31T13:19:56Z</time></trkpt><trkpt lat="45.55615913375071" lon="10.407160562780497"><ele>200.0</ele><time>2026-03-31T13:19:58Z</time></trkpt><trkpt lat="45.556073265808195" lon="10.407066939838616"><ele>197.75</ele><time>2026-03-31T13:20:00Z</time></trkpt><trkpt lat="45.55600197744866" lon="10.406928104190337"><ele>195.5</ele><time>2026-03-31T13:20:02Z</time></trkpt><trkpt lat="45.555916961929384" lon="10.406799003636545"><ele>193.25</ele><time>2026-03-31T13:20:04Z</time></trkpt><trkpt lat="45.55583281228185" lon="10.40666451894672"><ele>191.0</ele><time>2026-03-31T13:20:06Z</time></trkpt><trkpt lat="45.55574168378722" lon="10.406540706017582"><ele>191.0</ele><time>2026-03-31T13:20:08Z</time></trkpt><trkpt lat="45.55563916687104" lon="10.406438979088188"><ele>191.0</ele><time>2026-03-31T13:20:10Z</time></trkpt><trkpt lat="45.55552981195181" lon="10.406372641445309"><ele>191.0</ele><time>2026-03-31T13:20:12Z</time></trkpt><trkpt lat="45.55543393449842" lon="10.406260487652874"><ele>191.0</ele><time>2026-03-31T13:20:14Z</time></trkpt><trkpt lat="45.55538533803157" lon="10.40619876937946"><ele>191.0</ele><time>2026-03-31T13:20:15Z</time></trkpt><trkpt lat="45.555334464332255" lon="10.406140419274408"><ele>190.0</ele><time>2026-03-31T13:20:16Z</time></trkpt><trkpt lat="45.55528502899862" lon="10.406078121960478"><ele>189.0</ele><time>2026-03-31T13:20:17Z</time></trkpt><trkpt lat="45.555182880756526" lon="10.40598942992252"><ele>188.0</ele><time>2026-03-31T13:20:19Z</time></trkpt><trkpt lat="45.55506702551548" lon="10.405939483784083"><ele>187.0</ele><time>2026-03-31T13:20:21Z</time></trkpt><trkpt lat="45.554972994244075" lon="10.40586672019704"><ele>186.0</ele><time>2026-03-31T13:20:23Z</time></trkpt><trkpt lat="45.55488011336123" lon="10.405826490897352"><ele>186.0</ele><time>2026-03-31T13:20:25Z</time></trkpt><trkpt lat="45.554805830070165" lon="10.405736682760939"><ele>186.0</ele><time>2026-03-31T13:20:27Z</time></trkpt><trkpt lat="45.554769461087254" lon="10.405583106152173"><ele>186.0</ele><time>2026-03-31T13:20:29Z</time></trkpt><trkpt lat="45.55473436321398" lon="10.405424037365723"><ele>186.0</ele><time>2026-03-31T13:20:31Z</time></trkpt><trkpt lat="45.55469385609098" lon="10.405258909875409"><ele>187.16666666666666</ele><time>2026-03-31T13:20:33Z</time></trkpt><trkpt lat="45.55465177508957" lon="10.405088242389246"><ele>188.33333333333331</ele><time>2026-03-31T13:20:35Z</time></trkpt><trkpt lat="45.55463280348524" lon="10.405002057943737"><ele>189.5</ele><time>2026-03-31T13:20:36Z</time></trkpt><trkpt lat="45.55461309041768" lon="10.404915814788954"><ele>190.66666666666666</ele><time>2026-03-31T13:20:37Z</time></trkpt><trkpt lat="45.55459440025513" lon="10.404826822086651"><ele>191.83333333333331</ele><time>2026-03-31T13:20:38Z</time></trkpt><trkpt lat="45.55456162329986" lon="10.404652075667324"><ele>193.0</ele><time>2026-03-31T13:20:40Z</time></trkpt><trkpt lat="45.55454330842512" lon="10.404565125164034"><ele>192.2</ele><time>2026-03-31T13:20:41Z</time></trkpt><trkpt lat="45.55452294590381" lon="10.404473349520368"><ele>191.4</ele><time>2026-03-31T13:20:42Z</time></trkpt><trkpt lat="45.55448603420724" lon="10.404299947600721"><ele>190.6</ele><time>2026-03-31T13:20:44Z</time></trkpt><trkpt lat="45.554439695570395" lon="10.40413364562014"><ele>189.79999999999998</ele><time>2026-03-31T13:20:46Z</time></trkpt><trkpt lat="45.554426157855715" lon="10.404042307417264"><ele>189.0</ele><time>2026-03-31T13:20:47Z</time></trkpt><trkpt lat="45.55436408525125" lon="10.40389872429631"><ele>190.0</ele><time>2026-03-31T13:20:49Z</time></trkpt><trkpt lat="45.554326419517714" lon="10.403734685528661"><ele>191.0</ele><time>2026-03-31T13:20:51Z</time></trkpt><trkpt lat="45.55426773782618" lon="10.40358781570215"><ele>192.0</ele><time>2026-03-31T13:20:53Z</time></trkpt><trkpt lat="45.55420262402949" lon="10.403438545136021"><ele>193.0</ele><time>2026-03-31T13:20:55Z</time></trkpt><trkpt lat="45.554165987721426" lon="10.403358763534815"><ele>194.0</ele><time>2026-03-31T13:20:56Z</time></trkpt><trkpt lat="45.55412519353187" lon="10.403277927200158"><ele>194.0</ele><time>2026-03-31T13:20:57Z</time></trkpt><trkpt lat="45.55408132041327" lon="10.403195912624406"><ele>194.0</ele><time>2026-03-31T13:20:58Z</time></trkpt><trkpt lat="45.55403729338845" lon="10.403113610330578"><ele>194.0</ele><time>2026-03-31T13:20:59Z</time></trkpt><trkpt lat="45.55399513159834" lon="10.403034794827986"><ele>194.0</ele><time>2026-03-31T13:21:00Z</time></trkpt><trkpt lat="45.55395496679542" lon="10.402957526334717"><ele>194.0</ele><time>2026-03-31T13:21:01Z</time></trkpt><trkpt lat="45.55391362358833" lon="10.402871594943699"><ele>194.0</ele><time>2026-03-31T13:21:02Z</time></trkpt><trkpt lat="45.55387650857058" lon="10.402794451784128"><ele>194.0</ele><time>2026-03-31T13:21:03Z</time></trkpt><trkpt lat="45.553833862398456" lon="10.402705118942343"><ele>193.14285714285714</ele><time>2026-03-31T13:21:04Z</time></trkpt><trkpt lat="45.55379321583346" lon="10.40261987298057"><ele>192.2857142857143</ele><time>2026-03-31T13:21:05Z</time></trkpt><trkpt lat="45.553740287703434" lon="10.402548466686982"><ele>191.42857142857144</ele><time>2026-03-31T13:21:06Z</time></trkpt><trkpt lat="45.553713920272834" lon="10.402453570452158"><ele>190.57142857142856</ele><time>2026-03-31T13:21:07Z</time></trkpt><trkpt lat="45.5536613921463" lon="10.402383054645485"><ele>189.71428571428572</ele><time>2026-03-31T13:21:08Z</time></trkpt><trkpt lat="45.55364574277424" lon="10.402284433043052"><ele>188.85714285714286</ele><time>2026-03-31T13:21:09Z</time></trkpt><trkpt lat="45.55360322074189" lon="10.402213600847526"><ele>188.0</ele><time>2026-03-31T13:21:10Z</time></trkpt><trkpt lat="45.55356789888359" lon="10.402047474841199"><ele>188.0</ele><time>2026-03-31T13:21:12Z</time></trkpt><trkpt lat="45.55351330066219" lon="10.401883798010132"><ele>188.0</ele><time>2026-03-31T13:21:14Z</time></trkpt><trkpt lat="45.553485418663016" lon="10.401802086515575"><ele>188.0</ele><time>2026-03-31T13:21:15Z</time></trkpt><trkpt lat="45.553417037098264" lon="10.401653738716956"><ele>188.0</ele><time>2026-03-31T13:21:17Z</time></trkpt><trkpt lat="45.553363673348414" lon="10.401502397983935"><ele>188.0</ele><time>2026-03-31T13:21:19Z</time></trkpt><trkpt lat="45.553280397923025" lon="10.401383799613171"><ele>187.8</ele><time>2026-03-31T13:21:21Z</time></trkpt><trkpt lat="45.55324931119031" lon="10.401302863001858"><ele>187.60000000000002</ele><time>2026-03-31T13:21:22Z</time></trkpt><trkpt lat="45.553178998596195" lon="10.40116526639435"><ele>187.39999999999998</ele><time>2026-03-31T13:21:24Z</time></trkpt><trkpt lat="45.55312012630542" lon="10.401013474251702"><ele>187.2</ele><time>2026-03-31T13:21:26Z</time></trkpt><trkpt lat="45.55306407058402" lon="10.400856010940355"><ele>187.0</ele><time>2026-03-31T13:21:28Z</time></trkpt><trkpt lat="45.553018916415326" lon="10.400704694270752"><ele>187.0</ele><time>2026-03-31T13:21:30Z</time></trkpt><trkpt lat="45.55296560119061" lon="10.400554068965885"><ele>187.0</ele><time>2026-03-31T13:21:32Z</time></trkpt><trkpt lat="45.55287954643908" lon="10.40045488347032"><ele>187.0</ele><time>2026-03-31T13:21:34Z</time></trkpt><trkpt lat="45.55281027124635" lon="10.400356943056394"><ele>187.0</ele><time>2026-03-31T13:21:36Z</time></trkpt><trkpt lat="45.552740098354775" lon="10.400225660885535"><ele>187.0</ele><time>2026-03-31T13:21:38Z</time></trkpt><trkpt lat="45.55265647694373" lon="10.400111215163811"><ele>186.5</ele><time>2026-03-31T13:21:40Z</time></trkpt><trkpt lat="45.5525920061807" lon="10.399993211184912"><ele>186.0</ele><time>2026-03-31T13:21:42Z</time></trkpt><trkpt lat="45.55252576427675" lon="10.399891704318959"><ele>185.5</ele><time>2026-03-31T13:21:44Z</time></trkpt><trkpt lat="45.552471359376106" lon="10.3997940896368"><ele>185.0</ele><time>2026-03-31T13:21:46Z</time></trkpt><trkpt lat="45.552420808388256" lon="10.399717784687038"><ele>184.5</ele><time>2026-03-31T13:21:48Z</time></trkpt><trkpt lat="45.552358734890184" lon="10.399669529252279"><ele>184.0</ele><time>2026-03-31T13:21:50Z</time></trkpt><trkpt lat="45.55238637422111" lon="10.39953963822448"><ele>184.0</ele><time>2026-03-31T13:21:51Z</time></trkpt><trkpt lat="45.55236749597998" lon="10.399402766943847"><ele>184.0</ele><time>2026-03-31T13:21:53Z</time></trkpt><trkpt lat="45.55240352537197" lon="10.399257490863528"><ele>184.0</ele><time>2026-03-31T13:21:55Z</time></trkpt><trkpt lat="45.55249018162655" lon="10.399132651631817"><ele>184.0</ele><time>2026-03-31T13:21:57Z</time></trkpt><trkpt lat="45.55259607251345" lon="10.399044229258106"><ele>184.0</ele><time>2026-03-31T13:21:59Z</time></trkpt><trkpt lat="45.55270727125117" lon="10.398979183188697"><ele>184.0</ele><time>2026-03-31T13:22:01Z</time></trkpt><trkpt lat="45.552812336835764" lon="10.398930104398966"><ele>184.0</ele><time>2026-03-31T13:22:03Z</time></trkpt><trkpt lat="45.55291444940887" lon="10.39887951739177"><ele>184.0</ele><time>2026-03-31T13:22:05Z</time></trkpt><trkpt lat="45.55300341276109" lon="10.398827921940095"><ele>184.0</ele><time>2026-03-31T13:22:07Z</time></trkpt><trkpt lat="45.55308110751909" lon="10.398785993230518"><ele>184.0</ele><time>2026-03-31T13:22:09Z</time></trkpt><trkpt lat="45.55317481965404" lon="10.398768108674144"><ele>184.0</ele><time>2026-03-31T13:22:11Z</time></trkpt><trkpt lat="45.55326682028383" lon="10.398816693534217"><ele>184.0</ele><time>2026-03-31T13:22:13Z</time></trkpt><trkpt lat="45.55335281330889" lon="10.398873222489565"><ele>184.0</ele><time>2026-03-31T13:22:15Z</time></trkpt><trkpt lat="45.55343548222803" lon="10.398932849598685"><ele>184.0</ele><time>2026-03-31T13:22:17Z</time></trkpt><trkpt lat="45.553513887779616" lon="10.39898858051424"><ele>184.0</ele><time>2026-03-31T13:22:19Z</time></trkpt><trkpt lat="45.55358068981345" lon="10.399053095643627"><ele>184.0</ele><time>2026-03-31T13:22:21Z</time></trkpt><trkpt lat="45.553674832054696" lon="10.399094516084324"><ele>184.0</ele><time>2026-03-31T13:22:23Z</time></trkpt><trkpt lat="45.55374802481555" lon="10.399118959406776"><ele>184.0</ele><time>2026-03-31T13:22:25Z</time></trkpt><trkpt lat="45.55383431395211" lon="10.399139839043713"><ele>184.0</ele><time>2026-03-31T13:22:27Z</time></trkpt><trkpt lat="45.55391850983564" lon="10.399208011167774"><ele>184.0</ele><time>2026-03-31T13:22:29Z</time></trkpt><trkpt lat="45.55399972962617" lon="10.399273238211743"><ele>184.0</ele><time>2026-03-31T13:22:31Z</time></trkpt><trkpt lat="45.554086632781534" lon="10.39932805104082"><ele>184.0</ele><time>2026-03-31T13:22:33Z</time></trkpt><trkpt lat="45.55414429702316" lon="10.399390137168622"><ele>184.0</ele><time>2026-03-31T13:22:36Z</time></trkpt><trkpt lat="45.554222581759966" lon="10.399455616495446"><ele>184.0</ele><time>2026-03-31T13:22:38Z</time></trkpt><trkpt lat="45.55430173843577" lon="10.399516364541276"><ele>184.0</ele><time>2026-03-31T13:22:40Z</time></trkpt><trkpt lat="45.55439430828291" lon="10.399574073641718"><ele>184.0</ele><time>2026-03-31T13:22:42Z</time></trkpt><trkpt lat="45.55447345023661" lon="10.399603933232243"><ele>185.66666666666669</ele><time>2026-03-31T13:22:44Z</time></trkpt><trkpt lat="45.55453135495496" lon="10.399681425408811"><ele>187.33333333333334</ele><time>2026-03-31T13:22:46Z</time></trkpt><trkpt lat="45.554525407616396" lon="10.399848672829755"><ele>189.0</ele><time>2026-03-31T13:22:50Z</time></trkpt><trkpt lat="45.55456603984971" lon="10.39995310779627"><ele>190.66666666666669</ele><time>2026-03-31T13:22:53Z</time></trkpt><trkpt lat="45.55462907677494" lon="10.400041910675696"><ele>192.33333333333334</ele><time>2026-03-31T13:22:56Z</time></trkpt><trkpt lat="45.55468885384773" lon="10.400108880417118"><ele>194.0</ele><time>2026-03-31T13:22:59Z</time></trkpt><trkpt lat="45.554746756069946" lon="10.400145813860162"><ele>194.28571428571428</ele><time>2026-03-31T13:23:02Z</time></trkpt><trkpt lat="45.55482209270456" lon="10.400178006092176"><ele>194.57142857142858</ele><time>2026-03-31T13:23:06Z</time></trkpt><trkpt lat="45.55489960710608" lon="10.400180447881992"><ele>194.85714285714286</ele><time>2026-03-31T13:23:10Z</time></trkpt><trkpt lat="45.55496617637417" lon="10.400166461306661"><ele>195.14285714285714</ele><time>2026-03-31T13:23:14Z</time></trkpt><trkpt lat="45.55504093431912" lon="10.400163838043255"><ele>195.42857142857144</ele><time>2026-03-31T13:23:17Z</time></trkpt><trkpt lat="45.55511295721718" lon="10.400153574328527"><ele>195.71428571428572</ele><time>2026-03-31T13:23:21Z</time></trkpt><trkpt lat="45.55518258611969" lon="10.400156374323503"><ele>196.0</ele><time>2026-03-31T13:23:24Z</time></trkpt><trkpt lat="45.555249745138106" lon="10.400164367982349"><ele>196.0</ele><time>2026-03-31T13:23:27Z</time></trkpt><trkpt lat="45.55531573893535" lon="10.400187556292083"><ele>196.0</ele><time>2026-03-31T13:23:30Z</time></trkpt><trkpt lat="45.55539308858144" lon="10.400203523941201"><ele>196.0</ele><time>2026-03-31T13:23:35Z</time></trkpt><trkpt lat="45.5554668034295" lon="10.400217201585722"><ele>196.0</ele><time>2026-03-31T13:23:39Z</time></trkpt><trkpt lat="45.55553257910654" lon="10.40023693762599"><ele>196.0</ele><time>2026-03-31T13:23:43Z</time></trkpt><trkpt lat="45.55560702911248" lon="10.400250694661754"><ele>196.0</ele><time>2026-03-31T13:23:47Z</time></trkpt><trkpt lat="45.55567947239556" lon="10.400246585630784"><ele>196.0</ele><time>2026-03-31T13:23:51Z</time></trkpt><trkpt lat="45.555746207714634" lon="10.40025777819912"><ele>196.28571428571428</ele><time>2026-03-31T13:23:55Z</time></trkpt><trkpt lat="45.55580893413832" lon="10.400267762948198"><ele>196.57142857142856</ele><time>2026-03-31T13:23:59Z</time></trkpt><trkpt lat="45.55588166283364" lon="10.400284258741399"><ele>196.85714285714286</ele><time>2026-03-31T13:24:03Z</time></trkpt><trkpt lat="45.55595228053742" lon="10.400313749949891"><ele>197.14285714285714</ele><time>2026-03-31T13:24:07Z</time></trkpt><trkpt lat="45.55602218653885" lon="10.4003434131244"><ele>197.42857142857142</ele><time>2026-03-31T13:24:11Z</time></trkpt><trkpt lat="45.556093895421874" lon="10.40036196491568"><ele>197.71428571428572</ele><time>2026-03-31T13:24:15Z</time></trkpt><trkpt lat="45.55615973166382" lon="10.400379793766925"><ele>198.0</ele><time>2026-03-31T13:24:19Z</time></trkpt><trkpt lat="45.556232951884496" lon="10.40037639924697"><ele>199.71428571428572</ele><time>2026-03-31T13:24:23Z</time></trkpt><trkpt lat="45.5563020132998" lon="10.400377047273254"><ele>201.42857142857142</ele><time>2026-03-31T13:24:27Z</time></trkpt><trkpt lat="45.55637827554729" lon="10.400404554618433"><ele>203.14285714285714</ele><time>2026-03-31T13:24:31Z</time></trkpt><trkpt lat="45.55644951098408" lon="10.40041425176152"><ele>204.85714285714286</ele><time>2026-03-31T13:24:35Z</time></trkpt><trkpt lat="45.55653613667398" lon="10.400434420021412"><ele>206.57142857142856</ele><time>2026-03-31T13:24:40Z</time></trkpt><trkpt lat="45.55660156831076" lon="10.400443977579185"><ele>208.28571428571428</ele><time>2026-03-31T13:24:44Z</time></trkpt><trkpt lat="45.55667413370182" lon="10.400458408524784"><ele>210.0</ele><time>2026-03-31T13:24:48Z</time></trkpt><trkpt lat="45.556758792423295" lon="10.400486413851388"><ele>213.66666666666666</ele><time>2026-03-31T13:24:52Z</time></trkpt><trkpt lat="45.556832612281596" lon="10.400510122169933"><ele>217.33333333333331</ele><time>2026-03-31T13:24:56Z</time></trkpt><trkpt lat="45.55689515962355" lon="10.40054799326405"><ele>221.0</ele><time>2026-03-31T13:24:59Z</time></trkpt><trkpt lat="45.55696844115537" lon="10.400560115882827"><ele>224.66666666666666</ele><time>2026-03-31T13:25:03Z</time></trkpt><trkpt lat="45.55703631773131" lon="10.400544644620838"><ele>228.33333333333331</ele><time>2026-03-31T13:25:07Z</time></trkpt><trkpt lat="45.55710334515055" lon="10.400450188271508"><ele>232.0</ele><time>2026-03-31T13:26:50Z</time></trkpt><trkpt lat="45.55713870412385" lon="10.400356765319936"><ele>232.49999999999997</ele><time>2026-03-31T13:26:53Z</time></trkpt><trkpt lat="45.557098298225625" lon="10.400264876104897"><ele>233.0</ele><time>2026-03-31T13:26:56Z</time></trkpt><trkpt lat="45.557052043063706" lon="10.400187107329515"><ele>233.5</ele><time>2026-03-31T13:26:59Z</time></trkpt><trkpt lat="45.55700053897507" lon="10.40010215381792"><ele>234.0</ele><time>2026-03-31T13:27:02Z</time></trkpt><trkpt lat="45.55698395402911" lon="10.399995331159836"><ele>234.49999999999997</ele><time>2026-03-31T13:27:05Z</time></trkpt><trkpt lat="45.55698906436951" lon="10.399871231520438"><ele>235.0</ele><time>2026-03-31T13:27:08Z</time></trkpt><trkpt lat="45.55701299833382" lon="10.399783096062768"><ele>234.99999999999997</ele><time>2026-03-31T13:27:11Z</time></trkpt><trkpt lat="45.55704429561694" lon="10.399688972402956"><ele>235.0</ele><time>2026-03-31T13:27:14Z</time></trkpt><trkpt lat="45.557090362079656" lon="10.399618803760431"><ele>235.0</ele><time>2026-03-31T13:27:17Z</time></trkpt><trkpt lat="45.55715151036338" lon="10.39954837849114"><ele>235.0</ele><time>2026-03-31T13:27:20Z</time></trkpt><trkpt lat="45.55721675125368" lon="10.399477462293635"><ele>234.99999999999997</ele><time>2026-03-31T13:27:23Z</time></trkpt><trkpt lat="45.55728722676948" lon="10.399409629316555"><ele>235.0</ele><time>2026-03-31T13:27:26Z</time></trkpt><trkpt lat="45.557354455912424" lon="10.399344992510827"><ele>234.28571428571428</ele><time>2026-03-31T13:27:29Z</time></trkpt><trkpt lat="45.557411677648616" lon="10.399283975069103"><ele>233.57142857142856</ele><time>2026-03-31T13:27:32Z</time></trkpt><trkpt lat="45.557461722293276" lon="10.399223811808259"><ele>232.85714285714283</ele><time>2026-03-31T13:27:35Z</time></trkpt><trkpt lat="45.557510930297575" lon="10.399167432499313"><ele>232.1428571428571</ele><time>2026-03-31T13:27:38Z</time></trkpt><trkpt lat="45.55755951629379" lon="10.399095184600247"><ele>231.42857142857142</ele><time>2026-03-31T13:27:41Z</time></trkpt><trkpt lat="45.55759707918978" lon="10.399008112476295"><ele>230.71428571428567</ele><time>2026-03-31T13:27:44Z</time></trkpt><trkpt lat="45.557641712021" lon="10.3988949361"><ele>229.99999999999997</ele><time>2026-03-31T13:27:47Z</time></trkpt><trkpt lat="45.557681184957204" lon="10.39881248710667"><ele>227.99999999999997</ele><time>2026-03-31T13:27:50Z</time></trkpt><trkpt lat="45.5577185581222" lon="10.398732473053705"><ele>226.0</ele><time>2026-03-31T13:27:53Z</time></trkpt><trkpt lat="45.557776631232514" lon="10.398652975096308"><ele>224.0</ele><time>2026-03-31T13:27:57Z</time></trkpt><trkpt lat="45.557824322030214" lon="10.398592198945648"><ele>222.0</ele><time>2026-03-31T13:28:00Z</time></trkpt><trkpt lat="45.557868898975315" lon="10.398528422382208"><ele>220.0</ele><time>2026-03-31T13:28:03Z</time></trkpt><trkpt lat="45.557913915646495" lon="10.398464713278836"><ele>218.0</ele><time>2026-03-31T13:28:06Z</time></trkpt><trkpt lat="45.557970447144434" lon="10.398383366975859"><ele>216.0</ele><time>2026-03-31T13:28:10Z</time></trkpt><trkpt lat="45.55802473006999" lon="10.398321017658255"><ele>218.16666666666666</ele><time>2026-03-31T13:28:14Z</time></trkpt><trkpt lat="45.558079585097374" lon="10.39824987814274"><ele>220.33333333333331</ele><time>2026-03-31T13:28:18Z</time></trkpt><trkpt lat="45.55813906092925" lon="10.398184164146326"><ele>222.5</ele><time>2026-03-31T13:28:22Z</time></trkpt><trkpt lat="45.55819504212722" lon="10.39812630568187"><ele>224.66666666666666</ele><time>2026-03-31T13:28:26Z</time></trkpt><trkpt lat="45.55824693041486" lon="10.398023376020435"><ele>226.83333333333331</ele><time>2026-03-31T13:28:31Z</time></trkpt><trkpt lat="45.558306840891476" lon="10.397936663640769"><ele>229.0</ele><time>2026-03-31T13:28:36Z</time></trkpt><trkpt lat="45.55834619671454" lon="10.397863801002975"><ele>228.99999999999997</ele><time>2026-03-31T13:28:39Z</time></trkpt><trkpt lat="45.5583946676465" lon="10.397795267195342"><ele>229.0</ele><time>2026-03-31T13:28:43Z</time></trkpt><trkpt lat="45.55844377510186" lon="10.397726923818368"><ele>229.0</ele><time>2026-03-31T13:28:47Z</time></trkpt><trkpt lat="45.55849995249371" lon="10.397644456971666"><ele>229.0</ele><time>2026-03-31T13:28:51Z</time></trkpt><trkpt lat="45.5585545016951" lon="10.397561207238304"><ele>228.99999999999997</ele><time>2026-03-31T13:28:55Z</time></trkpt><trkpt lat="45.55860469822228" lon="10.397472442464908"><ele>229.0</ele><time>2026-03-31T13:29:00Z</time></trkpt><trkpt lat="45.55866435628719" lon="10.397395903300241"><ele>232.42857142857142</ele><time>2026-03-31T13:29:04Z</time></trkpt><trkpt lat="45.558711817073664" lon="10.397326426126789"><ele>235.8571428571429</ele><time>2026-03-31T13:29:07Z</time></trkpt><trkpt lat="45.55875701649306" lon="10.397263363100624"><ele>239.2857142857143</ele><time>2026-03-31T13:29:10Z</time></trkpt><trkpt lat="45.55880309543935" lon="10.397196604115926"><ele>242.71428571428572</ele><time>2026-03-31T13:29:14Z</time></trkpt><trkpt lat="45.55885210492579" lon="10.397116253378538"><ele>246.14285714285717</ele><time>2026-03-31T13:29:18Z</time></trkpt><trkpt lat="45.5589050059755" lon="10.397040143730509"><ele>249.5714285714286</ele><time>2026-03-31T13:29:22Z</time></trkpt><trkpt lat="45.558970584994675" lon="10.396955000730975"><ele>253.00000000000003</ele><time>2026-03-31T13:29:26Z</time></trkpt><trkpt lat="45.55902192482728" lon="10.396869759476981"><ele>252.99999999999997</ele><time>2026-03-31T13:29:30Z</time></trkpt><trkpt lat="45.559070883994494" lon="10.396784671816409"><ele>253.0</ele><time>2026-03-31T13:29:34Z</time></trkpt><trkpt lat="45.55911534590029" lon="10.396708223246922"><ele>253.0</ele><time>2026-03-31T13:29:38Z</time></trkpt><trkpt lat="45.55915137800399" lon="10.396595423869385"><ele>253.0</ele><time>2026-03-31T13:29:42Z</time></trkpt><trkpt lat="45.559176228924066" lon="10.396486784221322"><ele>252.99999999999997</ele><time>2026-03-31T13:29:46Z</time></trkpt><trkpt lat="45.55920727602151" lon="10.396396472645414"><ele>253.0</ele><time>2026-03-31T13:29:49Z</time></trkpt><trkpt lat="45.55923627446353" lon="10.396302102515333"><ele>251.83333333333331</ele><time>2026-03-31T13:29:53Z</time></trkpt><trkpt lat="45.55927578790053" lon="10.396181200481106"><ele>250.66666666666666</ele><time>2026-03-31T13:29:57Z</time></trkpt><trkpt lat="45.5593023457747" lon="10.396074540700583"><ele>249.5</ele><time>2026-03-31T13:30:01Z</time></trkpt><trkpt lat="45.559332302257744" lon="10.395976249958743"><ele>248.33333333333331</ele><time>2026-03-31T13:30:05Z</time></trkpt><trkpt lat="45.55935080460286" lon="10.395888739273492"><ele>247.16666666666666</ele><time>2026-03-31T13:30:08Z</time></trkpt><trkpt lat="45.55936312884891" lon="10.395780709926262"><ele>246.0</ele><time>2026-03-31T13:30:11Z</time></trkpt><trkpt lat="45.55937582308274" lon="10.395680197375452"><ele>246.00000000000003</ele><time>2026-03-31T13:30:15Z</time></trkpt><trkpt lat="45.5593758780244" lon="10.395578355419609"><ele>246.0</ele><time>2026-03-31T13:30:18Z</time></trkpt><trkpt lat="45.55937226963386" lon="10.395460797444048"><ele>246.00000000000003</ele><time>2026-03-31T13:30:22Z</time></trkpt><trkpt lat="45.55937375030999" lon="10.395364547216687"><ele>246.00000000000003</ele><time>2026-03-31T13:30:26Z</time></trkpt><trkpt lat="45.55937134041094" lon="10.39526753602518"><ele>246.0</ele><time>2026-03-31T13:30:29Z</time></trkpt><trkpt lat="45.559367498489685" lon="10.39517501379135"><ele>246.00000000000003</ele><time>2026-03-31T13:30:33Z</time></trkpt><trkpt lat="45.55935067581637" lon="10.39508740474926"><ele>246.00000000000003</ele><time>2026-03-31T13:30:36Z</time></trkpt><trkpt lat="45.55933904308408" lon="10.394992653527986"><ele>247.0</ele><time>2026-03-31T13:30:39Z</time></trkpt><trkpt lat="45.55931465144447" lon="10.39487187268139"><ele>248.0</ele><time>2026-03-31T13:30:44Z</time></trkpt><trkpt lat="45.55928817137949" lon="10.394762131817139"><ele>249.0</ele><time>2026-03-31T13:30:48Z</time></trkpt><trkpt lat="45.559256933416435" lon="10.39465683423727"><ele>250.0</ele><time>2026-03-31T13:30:51Z</time></trkpt><trkpt lat="45.55923173928253" lon="10.39455142447368"><ele>251.0</ele><time>2026-03-31T13:30:55Z</time></trkpt><trkpt lat="45.559208976222266" lon="10.394447670710461"><ele>252.0</ele><time>2026-03-31T13:30:58Z</time></trkpt><trkpt lat="45.55917257921124" lon="10.394352802454035"><ele>253.85714285714286</ele><time>2026-03-31T13:31:02Z</time></trkpt><trkpt lat="45.55913891302028" lon="10.394273323938272"><ele>255.71428571428572</ele><time>2026-03-31T13:31:05Z</time></trkpt><trkpt lat="45.55910314138201" lon="10.394171451630404"><ele>257.57142857142856</ele><time>2026-03-31T13:31:09Z</time></trkpt><trkpt lat="45.55906983428449" lon="10.394081550534178"><ele>259.42857142857144</ele><time>2026-03-31T13:31:12Z</time></trkpt><trkpt lat="45.55904204293097" lon="10.393985255420844"><ele>261.2857142857143</ele><time>2026-03-31T13:31:15Z</time></trkpt><trkpt lat="45.55900353429896" lon="10.393891534099756"><ele>263.1428571428571</ele><time>2026-03-31T13:31:18Z</time></trkpt><trkpt lat="45.558978994939665" lon="10.393801932020546"><ele>265.0</ele><time>2026-03-31T13:31:21Z</time></trkpt><trkpt lat="45.55894734326821" lon="10.393716631706988"><ele>266.85714285714283</ele><time>2026-03-31T13:31:23Z</time></trkpt><trkpt lat="45.5589182977373" lon="10.393618250449444"><ele>268.7142857142857</ele><time>2026-03-31T13:31:26Z</time></trkpt><trkpt lat="45.558885424055546" lon="10.393518794963152"><ele>270.57142857142856</ele><time>2026-03-31T13:31:29Z</time></trkpt><trkpt lat="45.55885793056042" lon="10.393436035653673"><ele>272.42857142857144</ele><time>2026-03-31T13:31:32Z</time></trkpt><trkpt lat="45.558830703364166" lon="10.393341387321147"><ele>274.2857142857143</ele><time>2026-03-31T13:31:35Z</time></trkpt><trkpt lat="45.55883665824528" lon="10.393225113981014"><ele>276.1428571428571</ele><time>2026-03-31T13:31:39Z</time></trkpt><trkpt lat="45.558845267065315" lon="10.393127616828876"><ele>278.0</ele><time>2026-03-31T13:31:42Z</time></trkpt><trkpt lat="45.55885020294399" lon="10.39301768621271"><ele>279.0</ele><time>2026-03-31T13:31:46Z</time></trkpt><trkpt lat="45.55886442883124" lon="10.392899481888465"><ele>280.0</ele><time>2026-03-31T13:31:50Z</time></trkpt><trkpt lat="45.5588774060179" lon="10.3928017682572"><ele>281.0</ele><time>2026-03-31T13:31:53Z</time></trkpt><trkpt lat="45.55888992943997" lon="10.392693111151694"><ele>282.0</ele><time>2026-03-31T13:31:56Z</time></trkpt><trkpt lat="45.558894262659216" lon="10.392593026331333"><ele>283.0</ele><time>2026-03-31T13:31:59Z</time></trkpt><trkpt lat="45.55889954996361" lon="10.392498063504284"><ele>284.0</ele><time>2026-03-31T13:32:02Z</time></trkpt><trkpt lat="45.558910643197486" lon="10.392404043725788"><ele>285.0</ele><time>2026-03-31T13:32:05Z</time></trkpt><trkpt lat="45.55891906947316" lon="10.392287172111878"><ele>285.0</ele><time>2026-03-31T13:32:09Z</time></trkpt><trkpt lat="45.558921094752876" lon="10.392176392162668"><ele>285.0</ele><time>2026-03-31T13:32:13Z</time></trkpt><trkpt lat="45.55892553587188" lon="10.392084641511635"><ele>285.0</ele><time>2026-03-31T13:32:16Z</time></trkpt><trkpt lat="45.55893373335368" lon="10.39196684555408"><ele>285.0</ele><time>2026-03-31T13:32:20Z</time></trkpt><trkpt lat="45.55893651086531" lon="10.391851892271456"><ele>285.0</ele><time>2026-03-31T13:32:24Z</time></trkpt><trkpt lat="45.558948333563634" lon="10.391745007928488"><ele>285.0</ele><time>2026-03-31T13:32:28Z</time></trkpt><trkpt lat="45.558948824546185" lon="10.391635391187519"><ele>284.85714285714283</ele><time>2026-03-31T13:32:31Z</time></trkpt><trkpt lat="45.55895061661403" lon="10.391531347955402"><ele>284.7142857142857</ele><time>2026-03-31T13:32:35Z</time></trkpt><trkpt lat="45.558962823034975" lon="10.391435952404219"><ele>284.57142857142856</ele><time>2026-03-31T13:32:38Z</time></trkpt><trkpt lat="45.55896642099976" lon="10.391345192596646"><ele>284.42857142857144</ele><time>2026-03-31T13:32:41Z</time></trkpt><trkpt lat="45.5589601863063" lon="10.391231322899388"><ele>284.2857142857143</ele><time>2026-03-31T13:32:45Z</time></trkpt><trkpt lat="45.55896273631965" lon="10.391113532376663"><ele>284.1428571428571</ele><time>2026-03-31T13:32:49Z</time></trkpt><trkpt lat="45.5589845100242" lon="10.391127150258477"><ele>284.0</ele><time>2026-03-31T13:39:43Z</time></trkpt><trkpt lat="45.55895720868238" lon="10.391265771383686"><ele>284.0</ele><time>2026-03-31T13:39:46Z</time></trkpt><trkpt lat="45.55894279767349" lon="10.391398371246154"><ele>284.0</ele><time>2026-03-31T13:39:48Z</time></trkpt><trkpt lat="45.5589334246713" lon="10.391569150751906"><ele>284.0</ele><time>2026-03-31T13:39:50Z</time></trkpt><trkpt lat="45.55892685110966" lon="10.391660569573913"><ele>284.0</ele><time>2026-03-31T13:39:51Z</time></trkpt><trkpt lat="45.558917996097385" lon="10.3917600722893"><ele>284.0</ele><time>2026-03-31T13:39:52Z</time></trkpt><trkpt lat="45.558907788630265" lon="10.391862367489209"><ele>284.0</ele><time>2026-03-31T13:39:53Z</time></trkpt><trkpt lat="45.558905989368526" lon="10.391969259258751"><ele>284.0</ele><time>2026-03-31T13:39:54Z</time></trkpt><trkpt lat="45.5589021783486" lon="10.392082815409868"><ele>284.0</ele><time>2026-03-31T13:39:55Z</time></trkpt><trkpt lat="45.55890200072504" lon="10.392195767194957"><ele>284.0</ele><time>2026-03-31T13:39:56Z</time></trkpt><trkpt lat="45.55889654115924" lon="10.39231218400389"><ele>284.0</ele><time>2026-03-31T13:39:57Z</time></trkpt><trkpt lat="45.55888864343876" lon="10.392432676399354"><ele>284.0</ele><time>2026-03-31T13:39:58Z</time></trkpt><trkpt lat="45.55887928792916" lon="10.392556189134863"><ele>284.0</ele><time>2026-03-31T13:39:59Z</time></trkpt><trkpt lat="45.55886935323393" lon="10.39267679116034"><ele>284.2</ele><time>2026-03-31T13:40:00Z</time></trkpt><trkpt lat="45.55884055271562" lon="10.392808027285854"><ele>284.4</ele><time>2026-03-31T13:40:01Z</time></trkpt><trkpt lat="45.55884032258229" lon="10.392938851619059"><ele>284.6</ele><time>2026-03-31T13:40:02Z</time></trkpt><trkpt lat="45.55881601932138" lon="10.393065876774015"><ele>284.8</ele><time>2026-03-31T13:40:03Z</time></trkpt><trkpt lat="45.558820543421426" lon="10.393198572888114"><ele>285.0</ele><time>2026-03-31T13:40:04Z</time></trkpt><trkpt lat="45.558820396849036" lon="10.393338414128433"><ele>283.6</ele><time>2026-03-31T13:40:05Z</time></trkpt><trkpt lat="45.55884205045284" lon="10.393477988385678"><ele>282.2</ele><time>2026-03-31T13:40:06Z</time></trkpt><trkpt lat="45.55890373914677" lon="10.393596058812603"><ele>280.8</ele><time>2026-03-31T13:40:07Z</time></trkpt><trkpt lat="45.55894483353412" lon="10.393712733143857"><ele>279.4</ele><time>2026-03-31T13:40:08Z</time></trkpt><trkpt lat="45.55898473189379" lon="10.39383015884741"><ele>278.0</ele><time>2026-03-31T13:40:09Z</time></trkpt><trkpt lat="45.55903020801741" lon="10.393943601123583"><ele>275.4</ele><time>2026-03-31T13:40:10Z</time></trkpt><trkpt lat="45.55907169584424" lon="10.3940559414484"><ele>272.8</ele><time>2026-03-31T13:40:11Z</time></trkpt><trkpt lat="45.55911697320354" lon="10.394168858559762"><ele>270.2</ele><time>2026-03-31T13:40:12Z</time></trkpt><trkpt lat="45.559161157843825" lon="10.394284783369827"><ele>267.6</ele><time>2026-03-31T13:40:13Z</time></trkpt><trkpt lat="45.55920038426467" lon="10.39440104239714"><ele>265.0</ele><time>2026-03-31T13:40:14Z</time></trkpt><trkpt lat="45.55922891837026" lon="10.394522943109873"><ele>265.0</ele><time>2026-03-31T13:40:15Z</time></trkpt><trkpt lat="45.55925448330244" lon="10.394646892578615"><ele>265.0</ele><time>2026-03-31T13:40:16Z</time></trkpt><trkpt lat="45.55927528227269" lon="10.394770458091301"><ele>265.0</ele><time>2026-03-31T13:40:17Z</time></trkpt><trkpt lat="45.55930209743763" lon="10.394894847720519"><ele>265.0</ele><time>2026-03-31T13:40:18Z</time></trkpt><trkpt lat="45.55932414846407" lon="10.395015545088542"><ele>265.0</ele><time>2026-03-31T13:40:19Z</time></trkpt><trkpt lat="45.55935058381185" lon="10.395137442288002"><ele>265.0</ele><time>2026-03-31T13:40:20Z</time></trkpt><trkpt lat="45.55936254389602" lon="10.395263663491411"><ele>262.4</ele><time>2026-03-31T13:40:21Z</time></trkpt><trkpt lat="45.55936516376124" lon="10.395391740027906"><ele>259.8</ele><time>2026-03-31T13:40:22Z</time></trkpt><trkpt lat="45.55936915130708" lon="10.395526002460283"><ele>257.2</ele><time>2026-03-31T13:40:23Z</time></trkpt><trkpt lat="45.55936769102131" lon="10.39566328833826"><ele>254.6</ele><time>2026-03-31T13:40:24Z</time></trkpt><trkpt lat="45.559358018142284" lon="10.395798283480469"><ele>252.0</ele><time>2026-03-31T13:40:25Z</time></trkpt><trkpt lat="45.5593255532566" lon="10.395937048101077"><ele>252.2</ele><time>2026-03-31T13:40:26Z</time></trkpt><trkpt lat="45.559292757753944" lon="10.396072927493194"><ele>252.39999999999998</ele><time>2026-03-31T13:40:27Z</time></trkpt><trkpt lat="45.559249413823196" lon="10.396214446666782"><ele>252.60000000000002</ele><time>2026-03-31T13:40:28Z</time></trkpt><trkpt lat="45.55920223440511" lon="10.396356792266895"><ele>252.8</ele><time>2026-03-31T13:40:29Z</time></trkpt><trkpt lat="45.559160314850416" lon="10.396486345797378"><ele>253.0</ele><time>2026-03-31T13:40:30Z</time></trkpt><trkpt lat="45.559108718579886" lon="10.396625725255134"><ele>253.0</ele><time>2026-03-31T13:40:31Z</time></trkpt><trkpt lat="45.55904627373003" lon="10.396759512275821"><ele>253.0</ele><time>2026-03-31T13:40:32Z</time></trkpt><trkpt lat="45.55898340508071" lon="10.396889586868587"><ele>253.0</ele><time>2026-03-31T13:40:33Z</time></trkpt><trkpt lat="45.55890624846295" lon="10.397003935013819"><ele>253.0</ele><time>2026-03-31T13:40:34Z</time></trkpt><trkpt lat="45.55882878254207" lon="10.39711808494337"><ele>253.0</ele><time>2026-03-31T13:40:35Z</time></trkpt><trkpt lat="45.558747876235344" lon="10.39723959233686"><ele>248.2</ele><time>2026-03-31T13:40:36Z</time></trkpt><trkpt lat="45.558668002452976" lon="10.397350098100512"><ele>243.4</ele><time>2026-03-31T13:40:37Z</time></trkpt><trkpt lat="45.55859742583885" lon="10.397448446081382"><ele>238.59999999999997</ele><time>2026-03-31T13:40:38Z</time></trkpt><trkpt lat="45.55853710245331" lon="10.39754109917236"><ele>233.79999999999998</ele><time>2026-03-31T13:40:39Z</time></trkpt><trkpt lat="45.55846887924758" lon="10.397636726190571"><ele>229.0</ele><time>2026-03-31T13:40:40Z</time></trkpt><trkpt lat="45.55840786861558" lon="10.397738271227784"><ele>229.0</ele><time>2026-03-31T13:40:41Z</time></trkpt><trkpt lat="45.558344010223294" lon="10.397840484552788"><ele>228.99999999999997</ele><time>2026-03-31T13:40:42Z</time></trkpt><trkpt lat="45.55828043836261" lon="10.397942965261478"><ele>228.99999999999997</ele><time>2026-03-31T13:40:43Z</time></trkpt><trkpt lat="45.55821339265687" lon="10.398047837560021"><ele>229.0</ele><time>2026-03-31T13:40:44Z</time></trkpt><trkpt lat="45.55813756306477" lon="10.398128191368826"><ele>229.0</ele><time>2026-03-31T13:40:45Z</time></trkpt><trkpt lat="45.558059449302924" lon="10.398228274061873"><ele>226.39999999999998</ele><time>2026-03-31T13:40:46Z</time></trkpt><trkpt lat="45.55798178444706" lon="10.39832703876059"><ele>223.79999999999998</ele><time>2026-03-31T13:40:47Z</time></trkpt><trkpt lat="45.55790335128486" lon="10.398426625963184"><ele>221.20000000000002</ele><time>2026-03-31T13:40:48Z</time></trkpt><trkpt lat="45.557833284692734" lon="10.398542440533372"><ele>218.60000000000002</ele><time>2026-03-31T13:40:49Z</time></trkpt><trkpt lat="45.557751189300156" lon="10.398646381967975"><ele>216.0</ele><time>2026-03-31T13:40:50Z</time></trkpt><trkpt lat="45.55767639879211" lon="10.398760158442343"><ele>218.33333333333334</ele><time>2026-03-31T13:40:51Z</time></trkpt><trkpt lat="45.55762303976364" lon="10.398896407709747"><ele>220.66666666666669</ele><time>2026-03-31T13:40:52Z</time></trkpt><trkpt lat="45.55758425650415" lon="10.39902776437546"><ele>223.0</ele><time>2026-03-31T13:40:53Z</time></trkpt><trkpt lat="45.55753031364032" lon="10.399107806621188"><ele>225.33333333333334</ele><time>2026-03-31T13:40:54Z</time></trkpt><trkpt lat="45.55746854159259" lon="10.399158455091678"><ele>227.66666666666669</ele><time>2026-03-31T13:40:55Z</time></trkpt><trkpt lat="45.55739329855265" lon="10.399230964684891"><ele>230.0</ele><time>2026-03-31T13:40:56Z</time></trkpt><trkpt lat="45.557318255978664" lon="10.399302861634586"><ele>230.0</ele><time>2026-03-31T13:40:57Z</time></trkpt><trkpt lat="45.55723467023265" lon="10.39938105186208"><ele>230.0</ele><time>2026-03-31T13:40:58Z</time></trkpt><trkpt lat="45.557144708403264" lon="10.399465206594547"><ele>230.0</ele><time>2026-03-31T13:40:59Z</time></trkpt><trkpt lat="45.557066649005606" lon="10.399568914878703"><ele>230.0</ele><time>2026-03-31T13:41:00Z</time></trkpt><trkpt lat="45.55700481183575" lon="10.399632005036802"><ele>230.0</ele><time>2026-03-31T13:41:01Z</time></trkpt><trkpt lat="45.55695604597051" lon="10.39982599048598"><ele>230.83333333333334</ele><time>2026-03-31T13:41:03Z</time></trkpt><trkpt lat="45.556939607595446" lon="10.3999497891869"><ele>231.66666666666669</ele><time>2026-03-31T13:41:04Z</time></trkpt><trkpt lat="45.556944080454436" lon="10.400062893770714"><ele>232.5</ele><time>2026-03-31T13:41:05Z</time></trkpt><trkpt lat="45.55699317232754" lon="10.400164491883269"><ele>233.33333333333331</ele><time>2026-03-31T13:41:06Z</time></trkpt><trkpt lat="45.55705638127154" lon="10.400249432010424"><ele>234.16666666666666</ele><time>2026-03-31T13:41:07Z</time></trkpt><trkpt lat="45.55710400455677" lon="10.40035575379471"><ele>235.0</ele><time>2026-03-31T13:41:08Z</time></trkpt><trkpt lat="45.557107038942476" lon="10.400464188943422"><ele>234.66666666666666</ele><time>2026-03-31T13:41:09Z</time></trkpt><trkpt lat="45.557059345125666" lon="10.400550803456198"><ele>234.33333333333331</ele><time>2026-03-31T13:41:10Z</time></trkpt><trkpt lat="45.55699681870281" lon="10.400607285997568"><ele>234.0</ele><time>2026-03-31T13:41:11Z</time></trkpt><trkpt lat="45.55690876837987" lon="10.400549180825765"><ele>233.66666666666669</ele><time>2026-03-31T13:41:12Z</time></trkpt><trkpt lat="45.556833238232876" lon="10.40053076931973"><ele>233.33333333333334</ele><time>2026-03-31T13:41:13Z</time></trkpt><trkpt lat="45.55674908494981" lon="10.400491364871666"><ele>233.0</ele><time>2026-03-31T13:41:14Z</time></trkpt><trkpt lat="45.55666154324297" lon="10.40047135691442"><ele>228.4</ele><time>2026-03-31T13:41:15Z</time></trkpt><trkpt lat="45.556569546814636" lon="10.40044241931906"><ele>223.8</ele><time>2026-03-31T13:41:16Z</time></trkpt><trkpt lat="45.55647443128313" lon="10.40041876289925"><ele>219.2</ele><time>2026-03-31T13:41:17Z</time></trkpt><trkpt lat="45.55638032371139" lon="10.400406918352942"><ele>214.6</ele><time>2026-03-31T13:41:18Z</time></trkpt><trkpt lat="45.556286134669385" lon="10.400371539526365"><ele>210.0</ele><time>2026-03-31T13:41:19Z</time></trkpt><trkpt lat="45.55618330832287" lon="10.400358562256496"><ele>207.0</ele><time>2026-03-31T13:41:20Z</time></trkpt><trkpt lat="45.55607037443246" lon="10.400342138826195"><ele>204.0</ele><time>2026-03-31T13:41:21Z</time></trkpt><trkpt lat="45.55595922748443" lon="10.400324979617896"><ele>201.0</ele><time>2026-03-31T13:41:22Z</time></trkpt><trkpt lat="45.55584329135269" lon="10.400263606801964"><ele>198.0</ele><time>2026-03-31T13:41:23Z</time></trkpt><trkpt lat="45.55571756632573" lon="10.400235354516614"><ele>198.0</ele><time>2026-03-31T13:41:24Z</time></trkpt><trkpt lat="45.55559306367135" lon="10.40023621026559"><ele>198.0</ele><time>2026-03-31T13:41:25Z</time></trkpt><trkpt lat="45.55547270448793" lon="10.400197308546822"><ele>198.0</ele><time>2026-03-31T13:41:26Z</time></trkpt><trkpt lat="45.55534229569925" lon="10.40013647049898"><ele>198.0</ele><time>2026-03-31T13:41:27Z</time></trkpt><trkpt lat="45.555209472586775" lon="10.400134375623537"><ele>197.60000000000002</ele><time>2026-03-31T13:41:28Z</time></trkpt><trkpt lat="45.555082159528226" lon="10.400123340521809"><ele>197.20000000000002</ele><time>2026-03-31T13:41:29Z</time></trkpt><trkpt lat="45.554968544311635" lon="10.40012687283307"><ele>196.8</ele><time>2026-03-31T13:41:30Z</time></trkpt><trkpt lat="45.55488269270518" lon="10.400131658214315"><ele>196.4</ele><time>2026-03-31T13:41:31Z</time></trkpt><trkpt lat="45.55480554708808" lon="10.400129855159514"><ele>196.0</ele><time>2026-03-31T13:41:32Z</time></trkpt><trkpt lat="45.55470412726388" lon="10.400093603924356"><ele>196.0</ele><time>2026-03-31T13:41:34Z</time></trkpt><trkpt lat="45.55463830478485" lon="10.399990158037042"><ele>196.0</ele><time>2026-03-31T13:41:36Z</time></trkpt><trkpt lat="45.5545780931334" lon="10.399873192812748"><ele>196.0</ele><time>2026-03-31T13:41:38Z</time></trkpt><trkpt lat="45.55460014897287" lon="10.399707645923913"><ele>196.0</ele><time>2026-03-31T13:41:40Z</time></trkpt><trkpt lat="45.5545671793258" lon="10.399588013377935"><ele>196.0</ele><time>2026-03-31T13:41:42Z</time></trkpt><trkpt lat="45.55449379168001" lon="10.399568072798843"><ele>193.60000000000002</ele><time>2026-03-31T13:41:43Z</time></trkpt><trkpt lat="45.55443025613499" lon="10.39954891937049"><ele>191.2</ele><time>2026-03-31T13:41:44Z</time></trkpt><trkpt lat="45.554371782446495" lon="10.399510145998477"><ele>188.8</ele><time>2026-03-31T13:41:45Z</time></trkpt><trkpt lat="45.55427854514746" lon="10.39939861992613"><ele>186.39999999999998</ele><time>2026-03-31T13:41:47Z</time></trkpt><trkpt lat="45.55418321797477" lon="10.399319019058103"><ele>184.0</ele><time>2026-03-31T13:41:49Z</time></trkpt><trkpt lat="45.55407598997736" lon="10.399248992697093"><ele>184.0</ele><time>2026-03-31T13:41:51Z</time></trkpt><trkpt lat="45.55396855656695" lon="10.399181914243142"><ele>184.0</ele><time>2026-03-31T13:41:53Z</time></trkpt><trkpt lat="45.55386821690282" lon="10.399111206060804"><ele>184.0</ele><time>2026-03-31T13:41:55Z</time></trkpt><trkpt lat="45.553803248023776" lon="10.399096972294474"><ele>184.0</ele><time>2026-03-31T13:41:56Z</time></trkpt><trkpt lat="45.55369471254329" lon="10.399058561277256"><ele>184.0</ele><time>2026-03-31T13:41:58Z</time></trkpt><trkpt lat="45.55362902762453" lon="10.399016171503595"><ele>184.0</ele><time>2026-03-31T13:41:59Z</time></trkpt><trkpt lat="45.55352441094071" lon="10.39893486386901"><ele>184.0</ele><time>2026-03-31T13:42:01Z</time></trkpt><trkpt lat="45.553463105949284" lon="10.398894685881624"><ele>184.0</ele><time>2026-03-31T13:42:02Z</time></trkpt><trkpt lat="45.55336251767418" lon="10.398813743677746"><ele>184.0</ele><time>2026-03-31T13:42:04Z</time></trkpt><trkpt lat="45.55326239444222" lon="10.398733368746427"><ele>184.0</ele><time>2026-03-31T13:42:06Z</time></trkpt><trkpt lat="45.553150421451534" lon="10.398707106625706"><ele>184.0</ele><time>2026-03-31T13:42:08Z</time></trkpt><trkpt lat="45.55303499651246" lon="10.39874365479953"><ele>184.0</ele><time>2026-03-31T13:42:10Z</time></trkpt><trkpt lat="45.552924063268215" lon="10.398818076594662"><ele>184.0</ele><time>2026-03-31T13:42:12Z</time></trkpt><trkpt lat="45.55281203127072" lon="10.398884087633293"><ele>184.0</ele><time>2026-03-31T13:42:14Z</time></trkpt><trkpt lat="45.55270140438007" lon="10.398918368934847"><ele>184.0</ele><time>2026-03-31T13:42:16Z</time></trkpt><trkpt lat="45.552596815629215" lon="10.398973181446877"><ele>184.0</ele><time>2026-03-31T13:42:18Z</time></trkpt><trkpt lat="45.55252366687634" lon="10.398987169472038"><ele>184.0</ele><time>2026-03-31T13:42:20Z</time></trkpt><trkpt lat="45.55248124558329" lon="10.398801012709532"><ele>184.0</ele><time>2026-03-31T13:42:22Z</time></trkpt><trkpt lat="45.552420071109864" lon="10.398654815451518"><ele>184.0</ele><time>2026-03-31T13:42:24Z</time></trkpt><trkpt lat="45.552360327068186" lon="10.39851632308613"><ele>184.0</ele><time>2026-03-31T13:42:26Z</time></trkpt><trkpt lat="45.55229882816042" lon="10.398377077077546"><ele>184.0</ele><time>2026-03-31T13:42:28Z</time></trkpt><trkpt lat="45.55224635997729" lon="10.398229547337433"><ele>184.0</ele><time>2026-03-31T13:42:30Z</time></trkpt><trkpt lat="45.552182222808064" lon="10.398091444291051"><ele>184.0</ele><time>2026-03-31T13:42:32Z</time></trkpt><trkpt lat="45.55212280915001" lon="10.397969112142862"><ele>184.0</ele><time>2026-03-31T13:42:34Z</time></trkpt><trkpt lat="45.55206515576116" lon="10.397854201842618"><ele>184.0</ele><time>2026-03-31T13:42:36Z</time></trkpt><trkpt lat="45.55199456590241" lon="10.39773117823131"><ele>184.0</ele><time>2026-03-31T13:42:38Z</time></trkpt><trkpt lat="45.55190888680214" lon="10.397601820178807"><ele>184.0</ele><time>2026-03-31T13:42:40Z</time></trkpt><trkpt lat="45.55182561447221" lon="10.397477636819389"><ele>183.39999999999998</ele><time>2026-03-31T13:42:42Z</time></trkpt><trkpt lat="45.55174537420728" lon="10.397363578391566"><ele>182.8</ele><time>2026-03-31T13:42:44Z</time></trkpt><trkpt lat="45.551663246534254" lon="10.3972530362396"><ele>182.2</ele><time>2026-03-31T13:42:46Z</time></trkpt><trkpt lat="45.55157704684971" lon="10.397146987051661"><ele>181.60000000000002</ele><time>2026-03-31T13:42:48Z</time></trkpt><trkpt lat="45.551499459580924" lon="10.397041862709138"><ele>181.0</ele><time>2026-03-31T13:42:50Z</time></trkpt><trkpt lat="45.55141639503144" lon="10.39695262030413"><ele>180.60000000000002</ele><time>2026-03-31T13:42:52Z</time></trkpt><trkpt lat="45.551328931668984" lon="10.396862179694496"><ele>180.2</ele><time>2026-03-31T13:42:54Z</time></trkpt><trkpt lat="45.55124208501215" lon="10.39677171201069"><ele>179.8</ele><time>2026-03-31T13:42:56Z</time></trkpt><trkpt lat="45.55116093479495" lon="10.396675747860845"><ele>179.39999999999998</ele><time>2026-03-31T13:42:58Z</time></trkpt><trkpt lat="45.551065154350006" lon="10.396595249588945"><ele>179.0</ele><time>2026-03-31T13:43:00Z</time></trkpt><trkpt lat="45.55096875972018" lon="10.396483550661255"><ele>179.0</ele><time>2026-03-31T13:43:02Z</time></trkpt><trkpt lat="45.55091540600243" lon="10.396422545642773"><ele>179.0</ele><time>2026-03-31T13:43:03Z</time></trkpt><trkpt lat="45.55086405771694" lon="10.396358344359008"><ele>179.0</ele><time>2026-03-31T13:43:04Z</time></trkpt><trkpt lat="45.550814186153396" lon="10.396294187045834"><ele>179.0</ele><time>2026-03-31T13:43:05Z</time></trkpt><trkpt lat="45.550774025253276" lon="10.396211524834593"><ele>179.0</ele><time>2026-03-31T13:43:06Z</time></trkpt><trkpt lat="45.550734344078386" lon="10.396134987524931"><ele>179.0</ele><time>2026-03-31T13:43:07Z</time></trkpt><trkpt lat="45.55066024881987" lon="10.395989616926126"><ele>179.0</ele><time>2026-03-31T13:43:09Z</time></trkpt><trkpt lat="45.55059509476586" lon="10.395839265502977"><ele>179.0</ele><time>2026-03-31T13:43:11Z</time></trkpt><trkpt lat="45.550524601190325" lon="10.395700802297995"><ele>179.0</ele><time>2026-03-31T13:43:13Z</time></trkpt><trkpt lat="45.5504654465305" lon="10.395564075472661"><ele>179.0</ele><time>2026-03-31T13:43:15Z</time></trkpt><trkpt lat="45.55039734549553" lon="10.395424968770978"><ele>179.39999999999998</ele><time>2026-03-31T13:43:17Z</time></trkpt><trkpt lat="45.55032792837817" lon="10.39527414699976"><ele>179.8</ele><time>2026-03-31T13:43:19Z</time></trkpt><trkpt lat="45.55028667764755" lon="10.395188834965806"><ele>180.2</ele><time>2026-03-31T13:43:20Z</time></trkpt><trkpt lat="45.55024975570126" lon="10.39510565288416"><ele>180.60000000000002</ele><time>2026-03-31T13:43:21Z</time></trkpt><trkpt lat="45.55021746585181" lon="10.395021796863292"><ele>181.0</ele><time>2026-03-31T13:43:22Z</time></trkpt><trkpt lat="45.55014921334118" lon="10.394870597944132"><ele>181.0</ele><time>2026-03-31T13:43:24Z</time></trkpt><trkpt lat="45.55007659813913" lon="10.39473537819279"><ele>181.0</ele><time>2026-03-31T13:43:26Z</time></trkpt><trkpt lat="45.55001272813713" lon="10.394586064800299"><ele>181.0</ele><time>2026-03-31T13:43:28Z</time></trkpt><trkpt lat="45.54994810572766" lon="10.394450242775056"><ele>181.0</ele><time>2026-03-31T13:43:30Z</time></trkpt><trkpt lat="45.54988471382842" lon="10.394307101487922"><ele>180.8</ele><time>2026-03-31T13:43:32Z</time></trkpt><trkpt lat="45.54981430242162" lon="10.394159407987829"><ele>180.60000000000002</ele><time>2026-03-31T13:43:34Z</time></trkpt><trkpt lat="45.549775105252316" lon="10.394084599110911"><ele>180.4</ele><time>2026-03-31T13:43:35Z</time></trkpt><trkpt lat="45.54970197235363" lon="10.393930314319292"><ele>180.2</ele><time>2026-03-31T13:43:37Z</time></trkpt><trkpt lat="45.54966656246589" lon="10.39385145819341"><ele>180.0</ele><time>2026-03-31T13:43:38Z</time></trkpt><trkpt lat="45.549594556913306" lon="10.393710475650106"><ele>180.0</ele><time>2026-03-31T13:43:40Z</time></trkpt><trkpt lat="45.54953172415382" lon="10.393576063641062"><ele>180.0</ele><time>2026-03-31T13:43:42Z</time></trkpt><trkpt lat="45.54950019774661" lon="10.393494422400634"><ele>180.0</ele><time>2026-03-31T13:43:43Z</time></trkpt><trkpt lat="45.54942710323378" lon="10.393351709507202"><ele>180.0</ele><time>2026-03-31T13:43:45Z</time></trkpt><trkpt lat="45.549360667946395" lon="10.39321043992381"><ele>180.0</ele><time>2026-03-31T13:43:47Z</time></trkpt><trkpt lat="45.54929606960745" lon="10.393080263965555"><ele>179.5</ele><time>2026-03-31T13:43:49Z</time></trkpt><trkpt lat="45.549245388000784" lon="10.392962616496446"><ele>179.0</ele><time>2026-03-31T13:43:51Z</time></trkpt><trkpt lat="45.549212231239544" lon="10.392857692098994"><ele>178.5</ele><time>2026-03-31T13:43:58Z</time></trkpt><trkpt lat="45.54923915217334" lon="10.392770916350036"><ele>178.0</ele><time>2026-03-31T13:43:59Z</time></trkpt><trkpt lat="45.54920144662788" lon="10.392677110322618"><ele>177.5</ele><time>2026-03-31T13:44:01Z</time></trkpt><trkpt lat="45.54910553083087" lon="10.392626901304519"><ele>177.0</ele><time>2026-03-31T13:44:03Z</time></trkpt><trkpt lat="45.54902506762812" lon="10.392533190827285"><ele>177.0</ele><time>2026-03-31T13:44:05Z</time></trkpt><trkpt lat="45.54896925351234" lon="10.392392539527668"><ele>177.0</ele><time>2026-03-31T13:44:07Z</time></trkpt><trkpt lat="45.54889970316758" lon="10.392259279195425"><ele>177.0</ele><time>2026-03-31T13:44:09Z</time></trkpt><trkpt lat="45.548831386064" lon="10.39211448675787"><ele>177.0</ele><time>2026-03-31T13:44:11Z</time></trkpt><trkpt lat="45.54875924600496" lon="10.391975028478045"><ele>177.0</ele><time>2026-03-31T13:44:13Z</time></trkpt><trkpt lat="45.548683233320794" lon="10.391826734255648"><ele>177.0</ele><time>2026-03-31T13:44:15Z</time></trkpt><trkpt lat="45.54864356107912" lon="10.391756005893187"><ele>177.0</ele><time>2026-03-31T13:44:16Z</time></trkpt><trkpt lat="45.54860670551951" lon="10.391680646067515"><ele>177.0</ele><time>2026-03-31T13:44:17Z</time></trkpt><trkpt lat="45.5485329968108" lon="10.39153039885298"><ele>177.0</ele><time>2026-03-31T13:44:19Z</time></trkpt><trkpt lat="45.548493384232124" lon="10.391456933914302"><ele>177.0</ele><time>2026-03-31T13:44:20Z</time></trkpt><trkpt lat="45.548456822350126" lon="10.391376000224797"><ele>177.0</ele><time>2026-03-31T13:44:21Z</time></trkpt><trkpt lat="45.54841811026558" lon="10.391300536060273"><ele>177.0</ele><time>2026-03-31T13:44:22Z</time></trkpt><trkpt lat="45.54837812949315" lon="10.391227466338558"><ele>177.0</ele><time>2026-03-31T13:44:23Z</time></trkpt><trkpt lat="45.548341288679985" lon="10.391153324331878"><ele>177.0</ele><time>2026-03-31T13:44:24Z</time></trkpt><trkpt lat="45.54827355805457" lon="10.39101158890416"><ele>177.0</ele><time>2026-03-31T13:44:26Z</time></trkpt><trkpt lat="45.54820525316522" lon="10.390884507050732"><ele>177.25</ele><time>2026-03-31T13:44:28Z</time></trkpt><trkpt lat="45.548142934909585" lon="10.390759038105932"><ele>177.5</ele><time>2026-03-31T13:44:30Z</time></trkpt><trkpt lat="45.54807048085814" lon="10.390609103531173"><ele>177.75</ele><time>2026-03-31T13:44:32Z</time></trkpt><trkpt lat="45.547998146055434" lon="10.39046439698552"><ele>178.0</ele><time>2026-03-31T13:44:34Z</time></trkpt><trkpt lat="45.547928526829274" lon="10.39033185728375"><ele>178.2</ele><time>2026-03-31T13:44:36Z</time></trkpt><trkpt lat="45.54786862694309" lon="10.39019785937069"><ele>178.4</ele><time>2026-03-31T13:44:38Z</time></trkpt><trkpt lat="45.547797102993414" lon="10.390072227205232"><ele>178.6</ele><time>2026-03-31T13:44:40Z</time></trkpt><trkpt lat="45.54772561775793" lon="10.38993273457263"><ele>178.79999999999998</ele><time>2026-03-31T13:44:42Z</time></trkpt><trkpt lat="45.5476875779529" lon="10.389855045267428"><ele>179.0</ele><time>2026-03-31T13:44:43Z</time></trkpt><trkpt lat="45.547650695414035" lon="10.38977956408935"><ele>179.0</ele><time>2026-03-31T13:44:44Z</time></trkpt><trkpt lat="45.54761395255626" lon="10.38970487756438"><ele>179.0</ele><time>2026-03-31T13:44:45Z</time></trkpt><trkpt lat="45.54757522728469" lon="10.389631026438781"><ele>179.0</ele><time>2026-03-31T13:44:46Z</time></trkpt><trkpt lat="45.54750307565101" lon="10.389483206541332"><ele>179.0</ele><time>2026-03-31T13:44:48Z</time></trkpt><trkpt lat="45.54742927576749" lon="10.389334332872265"><ele>179.0</ele><time>2026-03-31T13:44:50Z</time></trkpt><trkpt lat="45.54736600577294" lon="10.389206872720765"><ele>179.2</ele><time>2026-03-31T13:44:52Z</time></trkpt><trkpt lat="45.54729579205169" lon="10.389071641970181"><ele>179.39999999999998</ele><time>2026-03-31T13:44:54Z</time></trkpt><trkpt lat="45.54723592198322" lon="10.388949038622862"><ele>179.6</ele><time>2026-03-31T13:44:56Z</time></trkpt><trkpt lat="45.547170606604915" lon="10.388830126381132"><ele>179.8</ele><time>2026-03-31T13:44:58Z</time></trkpt><trkpt lat="45.54711322721463" lon="10.388707123862243"><ele>180.0</ele><time>2026-03-31T13:45:00Z</time></trkpt><trkpt lat="45.54705619262886" lon="10.388583428405651"><ele>179.6</ele><time>2026-03-31T13:45:02Z</time></trkpt><trkpt lat="45.54702938183996" lon="10.388449522244384"><ele>179.2</ele><time>2026-03-31T13:45:04Z</time></trkpt><trkpt lat="45.546986155254345" lon="10.388341821272311"><ele>178.8</ele><time>2026-03-31T13:45:06Z</time></trkpt><trkpt lat="45.54689675451515" lon="10.388346566613983"><ele>178.4</ele><time>2026-03-31T13:45:08Z</time></trkpt><trkpt lat="45.54683801887544" lon="10.388469032498667"><ele>178.0</ele><time>2026-03-31T13:45:10Z</time></trkpt><trkpt lat="45.546808777561615" lon="10.388588424460714"><ele>178.0</ele><time>2026-03-31T13:45:12Z</time></trkpt><trkpt lat="45.54672940469727" lon="10.388679708582613"><ele>178.0</ele><time>2026-03-31T13:45:14Z</time></trkpt><trkpt lat="45.546636252724696" lon="10.388747456457398"><ele>178.0</ele><time>2026-03-31T13:45:16Z</time></trkpt><trkpt lat="45.54654575743209" lon="10.388832874509639"><ele>178.0</ele><time>2026-03-31T13:45:18Z</time></trkpt><trkpt lat="45.5464718721646" lon="10.38891637176643"><ele>178.0</ele><time>2026-03-31T13:45:20Z</time></trkpt><trkpt lat="45.54639651447809" lon="10.389018121668668"><ele>177.8</ele><time>2026-03-31T13:45:22Z</time></trkpt><trkpt lat="45.546319514428916" lon="10.389125604765415"><ele>177.60000000000002</ele><time>2026-03-31T13:45:24Z</time></trkpt><trkpt lat="45.546240534392005" lon="10.38922794333382"><ele>177.39999999999998</ele><time>2026-03-31T13:45:26Z</time></trkpt><trkpt lat="45.54615421035835" lon="10.389347940072117"><ele>177.2</ele><time>2026-03-31T13:45:28Z</time></trkpt><trkpt lat="45.54607608940663" lon="10.389447532498435"><ele>177.0</ele><time>2026-03-31T13:45:30Z</time></trkpt><trkpt lat="45.54600938659059" lon="10.389545997521147"><ele>177.0</ele><time>2026-03-31T13:45:32Z</time></trkpt><trkpt lat="45.545939892982325" lon="10.389637328114905"><ele>177.0</ele><time>2026-03-31T13:45:34Z</time></trkpt><trkpt lat="45.54587116427705" lon="10.389733739832288"><ele>177.0</ele><time>2026-03-31T13:45:36Z</time></trkpt><trkpt lat="45.545807950559514" lon="10.38982160225504"><ele>177.0</ele><time>2026-03-31T13:45:38Z</time></trkpt><trkpt lat="45.54574919931942" lon="10.389909701878752"><ele>177.0</ele><time>2026-03-31T13:45:40Z</time></trkpt><trkpt lat="45.545677803027395" lon="10.389911008698208"><ele>177.0</ele><time>2026-03-31T13:45:43Z</time></trkpt><trkpt lat="45.54562339927775" lon="10.38982584141172"><ele>177.0</ele><time>2026-03-31T13:45:47Z</time></trkpt><trkpt lat="45.54558924807111" lon="10.389737497761313"><ele>177.0</ele><time>2026-03-31T13:45:49Z</time></trkpt><trkpt lat="45.54554291740119" lon="10.38964967567046"><ele>177.0</ele><time>2026-03-31T13:45:51Z</time></trkpt><trkpt lat="45.54548661927106" lon="10.389555216534507"><ele>177.0</ele><time>2026-03-31T13:45:53Z</time></trkpt><trkpt lat="45.54542459023003" lon="10.38946630092382"><ele>177.0</ele><time>2026-03-31T13:45:55Z</time></trkpt><trkpt lat="45.54535335579467" lon="10.389378793479043"><ele>177.0</ele><time>2026-03-31T13:45:57Z</time></trkpt><trkpt lat="45.545282561443585" lon="10.389302378766"><ele>174.0</ele><time>2026-03-31T13:45:59Z</time></trkpt><trkpt lat="45.54521991593421" lon="10.389230317434109"><ele>174.0</ele><time>2026-03-31T13:46:01Z</time></trkpt><trkpt lat="45.54515668236128" lon="10.389160595473658"><ele>174.0</ele><time>2026-03-31T13:46:03Z</time></trkpt><trkpt lat="45.54510759930441" lon="10.389226334123123"><ele>174.0</ele><time>2026-03-31T13:46:06Z</time></trkpt><trkpt lat="45.54507522320163" lon="10.389313205858"><ele>174.0</ele><time>2026-03-31T13:46:10Z</time></trkpt></trkseg><trkseg><trkpt lat="45.54573047570567" lon="10.38991809465499"><ele>177.0</ele><time>2026-03-31T14:28:03Z</time></trkpt><trkpt lat="45.54581421189151" lon="10.389823668501123"><ele>177.0</ele><time>2026-03-31T14:28:06Z</time></trkpt><trkpt lat="45.54587800861988" lon="10.38973081513358"><ele>177.0</ele><time>2026-03-31T14:28:08Z</time></trkpt><trkpt lat="45.54594319465642" lon="10.389640075193268"><ele>177.0</ele><time>2026-03-31T14:28:10Z</time></trkpt><trkpt lat="45.546020079657566" lon="10.389564018423755"><ele>177.0</ele><time>2026-03-31T14:28:12Z</time></trkpt><trkpt lat="45.54608821094191" lon="10.389463714192221"><ele>177.0</ele><time>2026-03-31T14:28:14Z</time></trkpt><trkpt lat="45.546164907568595" lon="10.389378268833754"><ele>177.0</ele><time>2026-03-31T14:28:16Z</time></trkpt><trkpt lat="45.54623494600393" lon="10.389288965433888"><ele>177.0</ele><time>2026-03-31T14:28:18Z</time></trkpt><trkpt lat="45.54630549825998" lon="10.389188694274113"><ele>177.0</ele><time>2026-03-31T14:28:20Z</time></trkpt><trkpt lat="45.54637823509564" lon="10.389086655724702"><ele>177.0</ele><time>2026-03-31T14:28:22Z</time></trkpt><trkpt lat="45.5464589155181" lon="10.38899556934501"><ele>177.0</ele><time>2026-03-31T14:28:24Z</time></trkpt><trkpt lat="45.54654354834054" lon="10.388885961476229"><ele>177.0</ele><time>2026-03-31T14:28:26Z</time></trkpt><trkpt lat="45.546613592742034" lon="10.388805277012322"><ele>177.0</ele><time>2026-03-31T14:28:28Z</time></trkpt><trkpt lat="45.54668858202813" lon="10.388738614546519"><ele>177.0</ele><time>2026-03-31T14:28:30Z</time></trkpt><trkpt lat="45.546757070720304" lon="10.388689432840058"><ele>177.0</ele><time>2026-03-31T14:28:32Z</time></trkpt><trkpt lat="45.546816535162954" lon="10.388643234442153"><ele>177.0</ele><time>2026-03-31T14:28:34Z</time></trkpt><trkpt lat="45.546877246630466" lon="10.388586638809576"><ele>177.16666666666666</ele><time>2026-03-31T14:28:36Z</time></trkpt><trkpt lat="45.54697322868154" lon="10.388572532050532"><ele>177.33333333333334</ele><time>2026-03-31T14:28:39Z</time></trkpt><trkpt lat="45.54704379902318" lon="10.388652732417745"><ele>177.5</ele><time>2026-03-31T14:28:41Z</time></trkpt><trkpt lat="45.54707686552485" lon="10.388737221791889"><ele>177.66666666666669</ele><time>2026-03-31T14:28:43Z</time></trkpt><trkpt lat="45.54711225844623" lon="10.388845871410584"><ele>177.83333333333334</ele><time>2026-03-31T14:28:46Z</time></trkpt><trkpt lat="45.54717071069315" lon="10.388961795638943"><ele>178.0</ele><time>2026-03-31T14:28:48Z</time></trkpt><trkpt lat="45.547231672713814" lon="10.389082696265731"><ele>178.2</ele><time>2026-03-31T14:28:50Z</time></trkpt><trkpt lat="45.54727778048645" lon="10.389203003312673"><ele>178.4</ele><time>2026-03-31T14:28:52Z</time></trkpt><trkpt lat="45.547336926537916" lon="10.389315498211776"><ele>178.6</ele><time>2026-03-31T14:28:54Z</time></trkpt><trkpt lat="45.54739471071234" lon="10.38944068735306"><ele>178.79999999999998</ele><time>2026-03-31T14:28:56Z</time></trkpt><trkpt lat="45.547459902546585" lon="10.389556020501026"><ele>179.0</ele><time>2026-03-31T14:28:58Z</time></trkpt><trkpt lat="45.54752850872639" lon="10.389682122738812"><ele>179.0</ele><time>2026-03-31T14:29:00Z</time></trkpt><trkpt lat="45.5475902038653" lon="10.389803484733125"><ele>179.0</ele><time>2026-03-31T14:29:02Z</time></trkpt><trkpt lat="45.547647439892785" lon="10.389929708866719"><ele>179.0</ele><time>2026-03-31T14:29:04Z</time></trkpt><trkpt lat="45.54772295445263" lon="10.390041965547397"><ele>179.0</ele><time>2026-03-31T14:29:06Z</time></trkpt><trkpt lat="45.547770888208646" lon="10.390173376672356"><ele>179.0</ele><time>2026-03-31T14:29:08Z</time></trkpt><trkpt lat="45.54782842175915" lon="10.390277597020392"><ele>179.0</ele><time>2026-03-31T14:29:10Z</time></trkpt><trkpt lat="45.54787107375448" lon="10.390378219406914"><ele>179.0</ele><time>2026-03-31T14:29:12Z</time></trkpt><trkpt lat="45.54791207018572" lon="10.390461664447367"><ele>179.0</ele><time>2026-03-31T14:29:14Z</time></trkpt><trkpt lat="45.547956314511666" lon="10.390572547033463"><ele>179.0</ele><time>2026-03-31T14:29:16Z</time></trkpt><trkpt lat="45.54802258937601" lon="10.390663408369218"><ele>179.0</ele><time>2026-03-31T14:29:18Z</time></trkpt><trkpt lat="45.548056179325364" lon="10.390759800394365"><ele>179.0</ele><time>2026-03-31T14:29:20Z</time></trkpt><trkpt lat="45.548104419229034" lon="10.390819946503477"><ele>178.83333333333331</ele><time>2026-03-31T14:29:22Z</time></trkpt><trkpt lat="45.54815847203673" lon="10.390932929878842"><ele>178.66666666666666</ele><time>2026-03-31T14:29:25Z</time></trkpt><trkpt lat="45.548193850569064" lon="10.391052754320091"><ele>178.5</ele><time>2026-03-31T14:29:27Z</time></trkpt><trkpt lat="45.54824873699277" lon="10.39116272253858"><ele>178.33333333333334</ele><time>2026-03-31T14:29:29Z</time></trkpt><trkpt lat="45.54829314842977" lon="10.391257079066124"><ele>178.16666666666669</ele><time>2026-03-31T14:29:31Z</time></trkpt><trkpt lat="45.548332190078426" lon="10.39133463899045"><ele>178.0</ele><time>2026-03-31T14:29:33Z</time></trkpt><trkpt lat="45.548383189972725" lon="10.39142816621283"><ele>177.83333333333334</ele><time>2026-03-31T14:29:35Z</time></trkpt><trkpt lat="45.54843108167806" lon="10.391542985151187"><ele>177.66666666666669</ele><time>2026-03-31T14:29:37Z</time></trkpt><trkpt lat="45.54848623876061" lon="10.391654194583746"><ele>177.5</ele><time>2026-03-31T14:29:39Z</time></trkpt><trkpt lat="45.54853407748151" lon="10.391739607616051"><ele>177.33333333333334</ele><time>2026-03-31T14:29:41Z</time></trkpt><trkpt lat="45.54858032925021" lon="10.391815105284905"><ele>177.16666666666666</ele><time>2026-03-31T14:29:43Z</time></trkpt><trkpt lat="45.54862183713263" lon="10.391922481559115"><ele>177.0</ele><time>2026-03-31T14:29:45Z</time></trkpt><trkpt lat="45.54868277311722" lon="10.392025165078557"><ele>177.0</ele><time>2026-03-31T14:29:47Z</time></trkpt><trkpt lat="45.54873221837532" lon="10.392136348454386"><ele>177.0</ele><time>2026-03-31T14:29:49Z</time></trkpt><trkpt lat="45.54877415866909" lon="10.392218263009605"><ele>177.0</ele><time>2026-03-31T14:29:51Z</time></trkpt><trkpt lat="45.548833307344616" lon="10.392321018208936"><ele>177.0</ele><time>2026-03-31T14:29:54Z</time></trkpt><trkpt lat="45.54894869264008" lon="10.392430260025838"><ele>177.0</ele><time>2026-03-31T14:29:58Z</time></trkpt><trkpt lat="45.54900317822084" lon="10.39256238851694"><ele>177.0</ele><time>2026-03-31T14:30:00Z</time></trkpt><trkpt lat="45.54905700366698" lon="10.39266858887313"><ele>177.0</ele><time>2026-03-31T14:30:02Z</time></trkpt><trkpt lat="45.54905904270416" lon="10.392856174774792"><ele>177.0</ele><time>2026-03-31T14:30:04Z</time></trkpt><trkpt lat="45.54913232080917" lon="10.392962127205832"><ele>177.0</ele><time>2026-03-31T14:30:06Z</time></trkpt><trkpt lat="45.54922424613817" lon="10.393003874612221"><ele>177.0</ele><time>2026-03-31T14:30:08Z</time></trkpt><trkpt lat="45.54927409133668" lon="10.393111227104335"><ele>177.2</ele><time>2026-03-31T14:30:10Z</time></trkpt><trkpt lat="45.54933315643569" lon="10.393234516142519"><ele>177.39999999999998</ele><time>2026-03-31T14:30:12Z</time></trkpt><trkpt lat="45.549386428785134" lon="10.393356677246626"><ele>177.60000000000002</ele><time>2026-03-31T14:30:14Z</time></trkpt><trkpt lat="45.54944020094847" lon="10.393478117438276"><ele>177.8</ele><time>2026-03-31T14:30:16Z</time></trkpt><trkpt lat="45.549493128906526" lon="10.393593227582272"><ele>178.0</ele><time>2026-03-31T14:30:18Z</time></trkpt><trkpt lat="45.54954553329164" lon="10.393701109479311"><ele>178.0</ele><time>2026-03-31T14:30:20Z</time></trkpt><trkpt lat="45.54959486562918" lon="10.393809687942163"><ele>178.0</ele><time>2026-03-31T14:30:22Z</time></trkpt><trkpt lat="45.54965222219906" lon="10.393925130787393"><ele>178.0</ele><time>2026-03-31T14:30:24Z</time></trkpt><trkpt lat="45.549714142662936" lon="10.39401172586623"><ele>178.0</ele><time>2026-03-31T14:30:26Z</time></trkpt><trkpt lat="45.549771714029546" lon="10.394117183592522"><ele>178.0</ele><time>2026-03-31T14:30:28Z</time></trkpt><trkpt lat="45.54982364131607" lon="10.39423268029755"><ele>178.4</ele><time>2026-03-31T14:30:30Z</time></trkpt><trkpt lat="45.54987998877263" lon="10.394347865711577"><ele>178.8</ele><time>2026-03-31T14:30:32Z</time></trkpt><trkpt lat="45.54993686364582" lon="10.394462806072116"><ele>179.2</ele><time>2026-03-31T14:30:34Z</time></trkpt><trkpt lat="45.549984911253084" lon="10.39457434885863"><ele>179.6</ele><time>2026-03-31T14:30:36Z</time></trkpt><trkpt lat="45.55003955837329" lon="10.394680078060139"><ele>180.0</ele><time>2026-03-31T14:30:38Z</time></trkpt><trkpt lat="45.5500883353363" lon="10.394787476806561"><ele>180.0</ele><time>2026-03-31T14:30:40Z</time></trkpt><trkpt lat="45.55013683451168" lon="10.394891818551741"><ele>180.0</ele><time>2026-03-31T14:30:42Z</time></trkpt><trkpt lat="45.55018419990609" lon="10.394980549099742"><ele>180.0</ele><time>2026-03-31T14:30:44Z</time></trkpt><trkpt lat="45.550220428151455" lon="10.39509161972787"><ele>180.0</ele><time>2026-03-31T14:30:47Z</time></trkpt><trkpt lat="45.55028377005737" lon="10.395203547808732"><ele>180.0</ele><time>2026-03-31T14:30:50Z</time></trkpt><trkpt lat="45.550329976295586" lon="10.39530855788505"><ele>180.0</ele><time>2026-03-31T14:30:52Z</time></trkpt><trkpt lat="45.55038156417456" lon="10.39540806971672"><ele>179.8</ele><time>2026-03-31T14:30:54Z</time></trkpt><trkpt lat="45.550429056068225" lon="10.395521716214116"><ele>179.6</ele><time>2026-03-31T14:30:56Z</time></trkpt><trkpt lat="45.55048255114959" lon="10.395633350019988"><ele>179.39999999999998</ele><time>2026-03-31T14:30:58Z</time></trkpt><trkpt lat="45.55052507757333" lon="10.395724128721557"><ele>179.2</ele><time>2026-03-31T14:31:00Z</time></trkpt><trkpt lat="45.55058500397024" lon="10.395850475694475"><ele>179.0</ele><time>2026-03-31T14:31:02Z</time></trkpt><trkpt lat="45.55063704369115" lon="10.395962329781064"><ele>179.0</ele><time>2026-03-31T14:31:04Z</time></trkpt><trkpt lat="45.55069066453533" lon="10.39606725700211"><ele>179.0</ele><time>2026-03-31T14:31:06Z</time></trkpt><trkpt lat="45.550738290527846" lon="10.396170160483237"><ele>179.0</ele><time>2026-03-31T14:31:08Z</time></trkpt><trkpt lat="45.55078736445405" lon="10.396267986291283"><ele>179.0</ele><time>2026-03-31T14:31:10Z</time></trkpt><trkpt lat="45.55084226829265" lon="10.396361963254261"><ele>179.0</ele><time>2026-03-31T14:31:12Z</time></trkpt><trkpt lat="45.550907213961665" lon="10.396446553186548"><ele>179.0</ele><time>2026-03-31T14:31:14Z</time></trkpt><trkpt lat="45.55098161411779" lon="10.396523171857089"><ele>179.0</ele><time>2026-03-31T14:31:16Z</time></trkpt><trkpt lat="45.55104841338694" lon="10.396590486332206"><ele>179.0</ele><time>2026-03-31T14:31:18Z</time></trkpt><trkpt lat="45.55110198916769" lon="10.396647490736811"><ele>179.0</ele><time>2026-03-31T14:31:20Z</time></trkpt><trkpt lat="45.55118183532123" lon="10.396768631538874"><ele>179.0</ele><time>2026-03-31T14:31:21Z</time></trkpt><trkpt lat="45.55127464255609" lon="10.39685992662953"><ele>179.0</ele><time>2026-03-31T14:31:23Z</time></trkpt><trkpt lat="45.55136473342238" lon="10.396957364344797"><ele>179.0</ele><time>2026-03-31T14:31:25Z</time></trkpt><trkpt lat="45.55141598766106" lon="10.397011101902203"><ele>179.0</ele><time>2026-03-31T14:31:26Z</time></trkpt><trkpt lat="45.5514719453165" lon="10.39706053773763"><ele>179.0</ele><time>2026-03-31T14:31:27Z</time></trkpt><trkpt lat="45.55155609985358" lon="10.397181315177486"><ele>179.0</ele><time>2026-03-31T14:31:29Z</time></trkpt><trkpt lat="45.551640767049825" lon="10.397290512113019"><ele>179.0</ele><time>2026-03-31T14:31:31Z</time></trkpt><trkpt lat="45.55172405084418" lon="10.39740518019024"><ele>179.39999999999998</ele><time>2026-03-31T14:31:33Z</time></trkpt><trkpt lat="45.55179809715576" lon="10.397508123358733"><ele>179.8</ele><time>2026-03-31T14:31:35Z</time></trkpt><trkpt lat="45.55186889537941" lon="10.397608993941573"><ele>180.2</ele><time>2026-03-31T14:31:37Z</time></trkpt><trkpt lat="45.551930435898484" lon="10.397676477736836"><ele>180.60000000000002</ele><time>2026-03-31T14:31:39Z</time></trkpt><trkpt lat="45.55198246764586" lon="10.397792246592651"><ele>181.0</ele><time>2026-03-31T14:31:42Z</time></trkpt><trkpt lat="45.552037373186366" lon="10.39786245912665"><ele>181.33333333333334</ele><time>2026-03-31T14:31:44Z</time></trkpt><trkpt lat="45.55208152950981" lon="10.397959185780929"><ele>181.66666666666669</ele><time>2026-03-31T14:31:46Z</time></trkpt><trkpt lat="45.552131091966736" lon="10.398052947793808"><ele>182.0</ele><time>2026-03-31T14:31:48Z</time></trkpt><trkpt lat="45.55217772917917" lon="10.39815541005934"><ele>182.33333333333334</ele><time>2026-03-31T14:31:50Z</time></trkpt><trkpt lat="45.55221550103279" lon="10.398256959884126"><ele>182.66666666666666</ele><time>2026-03-31T14:31:52Z</time></trkpt><trkpt lat="45.55226550752565" lon="10.398359291614486"><ele>183.0</ele><time>2026-03-31T14:31:54Z</time></trkpt><trkpt lat="45.55231703224927" lon="10.3984574115112"><ele>183.0</ele><time>2026-03-31T14:31:56Z</time></trkpt><trkpt lat="45.55235840889654" lon="10.398546336368621"><ele>183.0</ele><time>2026-03-31T14:31:58Z</time></trkpt><trkpt lat="45.55239490965218" lon="10.398637277903246"><ele>183.0</ele><time>2026-03-31T14:32:00Z</time></trkpt><trkpt lat="45.55242960137319" lon="10.398742663257687"><ele>183.0</ele><time>2026-03-31T14:32:02Z</time></trkpt><trkpt lat="45.552489487153466" lon="10.398869600475528"><ele>183.0</ele><time>2026-03-31T14:32:04Z</time></trkpt><trkpt lat="45.552525554312965" lon="10.398980786714464"><ele>183.0</ele><time>2026-03-31T14:32:06Z</time></trkpt><trkpt lat="45.55244952009709" lon="10.399125497033031"><ele>183.16666666666666</ele><time>2026-03-31T14:32:09Z</time></trkpt><trkpt lat="45.55238300068073" lon="10.399219516736691"><ele>183.33333333333334</ele><time>2026-03-31T14:32:11Z</time></trkpt><trkpt lat="45.55234690913022" lon="10.399336121829133"><ele>183.5</ele><time>2026-03-31T14:32:13Z</time></trkpt><trkpt lat="45.55234518005659" lon="10.399454521976097"><ele>183.66666666666669</ele><time>2026-03-31T14:32:15Z</time></trkpt><trkpt lat="45.552355114683735" lon="10.399564611470655"><ele>183.83333333333334</ele><time>2026-03-31T14:32:17Z</time></trkpt><trkpt lat="45.55236427035193" lon="10.399663175789675"><ele>184.0</ele><time>2026-03-31T14:32:19Z</time></trkpt><trkpt lat="45.552372760173306" lon="10.399754572303038"><ele>183.33333333333334</ele><time>2026-03-31T14:32:21Z</time></trkpt><trkpt lat="45.552656828530665" lon="10.400050506791537"><ele>182.66666666666666</ele><time>2026-03-31T14:32:31Z</time></trkpt><trkpt lat="45.55272383036565" lon="10.400127451511203"><ele>182.0</ele><time>2026-03-31T14:32:33Z</time></trkpt><trkpt lat="45.55277498142155" lon="10.400217605581252"><ele>182.0</ele><time>2026-03-31T14:32:35Z</time></trkpt><trkpt lat="45.55283897588538" lon="10.400297991459874"><ele>182.0</ele><time>2026-03-31T14:32:37Z</time></trkpt><trkpt lat="45.55288887478445" lon="10.400386813557109"><ele>182.0</ele><time>2026-03-31T14:32:39Z</time></trkpt><trkpt lat="45.55293903072637" lon="10.400465129194048"><ele>182.0</ele><time>2026-03-31T14:32:41Z</time></trkpt><trkpt lat="45.55297927401804" lon="10.400542719021695"><ele>182.0</ele><time>2026-03-31T14:32:43Z</time></trkpt><trkpt lat="45.55300879181181" lon="10.4006362066718"><ele>182.0</ele><time>2026-03-31T14:32:45Z</time></trkpt><trkpt lat="45.55302962251614" lon="10.400729584163926"><ele>182.0</ele><time>2026-03-31T14:32:47Z</time></trkpt><trkpt lat="45.55304545005066" lon="10.400831157242944"><ele>182.71428571428572</ele><time>2026-03-31T14:32:49Z</time></trkpt><trkpt lat="45.55307597975069" lon="10.400924725537092"><ele>183.42857142857144</ele><time>2026-03-31T14:32:51Z</time></trkpt><trkpt lat="45.553116773653365" lon="10.401013882206524"><ele>184.14285714285714</ele><time>2026-03-31T14:32:53Z</time></trkpt><trkpt lat="45.55314312581272" lon="10.401116547038773"><ele>184.85714285714286</ele><time>2026-03-31T14:32:55Z</time></trkpt><trkpt lat="45.55317444064713" lon="10.4012147171543"><ele>185.57142857142858</ele><time>2026-03-31T14:32:57Z</time></trkpt><trkpt lat="45.55322623117898" lon="10.401281446452616"><ele>186.28571428571428</ele><time>2026-03-31T14:32:59Z</time></trkpt><trkpt lat="45.55327882443819" lon="10.401353356053583"><ele>187.0</ele><time>2026-03-31T14:33:01Z</time></trkpt><trkpt lat="45.55332424479683" lon="10.401437739049193"><ele>187.16666666666669</ele><time>2026-03-31T14:33:03Z</time></trkpt><trkpt lat="45.553366387174776" lon="10.401537496044917"><ele>187.33333333333334</ele><time>2026-03-31T14:33:05Z</time></trkpt><trkpt lat="45.55341243283191" lon="10.401631743808327"><ele>187.5</ele><time>2026-03-31T14:33:07Z</time></trkpt><trkpt lat="45.55345448917851" lon="10.40172734852911"><ele>187.66666666666666</ele><time>2026-03-31T14:33:09Z</time></trkpt><trkpt lat="45.55349451062087" lon="10.401821076829542"><ele>187.83333333333331</ele><time>2026-03-31T14:33:11Z</time></trkpt><trkpt lat="45.553523615685464" lon="10.401922142906855"><ele>188.0</ele><time>2026-03-31T14:33:13Z</time></trkpt><trkpt lat="45.55355355606504" lon="10.402023544491813"><ele>188.0</ele><time>2026-03-31T14:33:15Z</time></trkpt><trkpt lat="45.55358631081996" lon="10.402121242245522"><ele>188.0</ele><time>2026-03-31T14:33:17Z</time></trkpt><trkpt lat="45.553622730160775" lon="10.402224035903837"><ele>188.0</ele><time>2026-03-31T14:33:19Z</time></trkpt><trkpt lat="45.55365796149681" lon="10.402323289469251"><ele>188.0</ele><time>2026-03-31T14:33:21Z</time></trkpt><trkpt lat="45.55369608674681" lon="10.402429049425479"><ele>188.0</ele><time>2026-03-31T14:33:23Z</time></trkpt><trkpt lat="45.55374642206406" lon="10.40251783330819"><ele>188.0</ele><time>2026-03-31T14:33:25Z</time></trkpt><trkpt lat="45.553781804080195" lon="10.402609632462228"><ele>188.85714285714286</ele><time>2026-03-31T14:33:27Z</time></trkpt><trkpt lat="45.55381627874156" lon="10.40269491228162"><ele>189.71428571428572</ele><time>2026-03-31T14:33:29Z</time></trkpt><trkpt lat="45.553849106842925" lon="10.402781330264617"><ele>190.57142857142856</ele><time>2026-03-31T14:33:31Z</time></trkpt><trkpt lat="45.5539114297822" lon="10.402857896941818"><ele>191.42857142857144</ele><time>2026-03-31T14:33:33Z</time></trkpt><trkpt lat="45.553947707245534" lon="10.402945726938356"><ele>192.2857142857143</ele><time>2026-03-31T14:33:35Z</time></trkpt><trkpt lat="45.55399248734486" lon="10.403036929843811"><ele>193.14285714285714</ele><time>2026-03-31T14:33:37Z</time></trkpt><trkpt lat="45.55402826340519" lon="10.403112698011379"><ele>194.0</ele><time>2026-03-31T14:33:40Z</time></trkpt><trkpt lat="45.55408036235592" lon="10.403225141067939"><ele>194.0</ele><time>2026-03-31T14:33:43Z</time></trkpt><trkpt lat="45.55412287013071" lon="10.403304535005512"><ele>194.0</ele><time>2026-03-31T14:33:45Z</time></trkpt><trkpt lat="45.55416956917932" lon="10.403400908070605"><ele>194.0</ele><time>2026-03-31T14:33:47Z</time></trkpt><trkpt lat="45.55422854121717" lon="10.403518634343229"><ele>194.0</ele><time>2026-03-31T14:33:49Z</time></trkpt><trkpt lat="45.55428732283099" lon="10.403655191284626"><ele>194.0</ele><time>2026-03-31T14:33:51Z</time></trkpt><trkpt lat="45.5543518108424" lon="10.40378636534355"><ele>193.16666666666669</ele><time>2026-03-31T14:33:53Z</time></trkpt><trkpt lat="45.55437320569964" lon="10.403884814370894"><ele>192.33333333333334</ele><time>2026-03-31T14:33:55Z</time></trkpt><trkpt lat="45.554395328139336" lon="10.403990055825577"><ele>191.5</ele><time>2026-03-31T14:33:57Z</time></trkpt><trkpt lat="45.55443939001695" lon="10.404099339106784"><ele>190.66666666666669</ele><time>2026-03-31T14:33:59Z</time></trkpt><trkpt lat="45.554482209010665" lon="10.404222927086058"><ele>189.83333333333334</ele><time>2026-03-31T14:34:01Z</time></trkpt><trkpt lat="45.554500846638874" lon="10.404309562465723"><ele>189.0</ele><time>2026-03-31T14:34:02Z</time></trkpt><trkpt lat="45.55452535377584" lon="10.404462843227144"><ele>189.79999999999998</ele><time>2026-03-31T14:34:04Z</time></trkpt><trkpt lat="45.55455594339007" lon="10.404615001728406"><ele>190.6</ele><time>2026-03-31T14:34:06Z</time></trkpt><trkpt lat="45.55455681103415" lon="10.40477244799322"><ele>191.4</ele><time>2026-03-31T14:34:08Z</time></trkpt><trkpt lat="45.55458886297785" lon="10.404926141742289"><ele>192.2</ele><time>2026-03-31T14:34:10Z</time></trkpt><trkpt lat="45.5546143573248" lon="10.405034374602664"><ele>193.0</ele><time>2026-03-31T14:34:12Z</time></trkpt><trkpt lat="45.554650894758716" lon="10.405184504778578"><ele>193.0</ele><time>2026-03-31T14:34:14Z</time></trkpt><trkpt lat="45.55468554520771" lon="10.40533480289988"><ele>193.0</ele><time>2026-03-31T14:34:16Z</time></trkpt><trkpt lat="45.554719204777115" lon="10.405481116561429"><ele>193.0</ele><time>2026-03-31T14:34:18Z</time></trkpt><trkpt lat="45.55475574046459" lon="10.405625861908302"><ele>193.0</ele><time>2026-03-31T14:34:20Z</time></trkpt><trkpt lat="45.55478806746583" lon="10.405744489913495"><ele>193.0</ele><time>2026-03-31T14:34:22Z</time></trkpt><trkpt lat="45.55484940152556" lon="10.40585569637745"><ele>191.60000000000002</ele><time>2026-03-31T14:34:24Z</time></trkpt><trkpt lat="45.55494065499577" lon="10.405881892083755"><ele>190.20000000000002</ele><time>2026-03-31T14:34:26Z</time></trkpt><trkpt lat="45.55500842263514" lon="10.405911017948608"><ele>188.8</ele><time>2026-03-31T14:34:29Z</time></trkpt><trkpt lat="45.55508259074002" lon="10.405948617249551"><ele>187.4</ele><time>2026-03-31T14:34:30Z</time></trkpt><trkpt lat="45.55519993316764" lon="10.406039995260294"><ele>186.0</ele><time>2026-03-31T14:34:33Z</time></trkpt><trkpt lat="45.555281709924934" lon="10.406058507991665"><ele>186.0</ele><time>2026-03-31T14:34:35Z</time></trkpt><trkpt lat="45.555351587546284" lon="10.406142519252441"><ele>186.0</ele><time>2026-03-31T14:34:37Z</time></trkpt><trkpt lat="45.55540841083955" lon="10.406231105533802"><ele>186.0</ele><time>2026-03-31T14:34:39Z</time></trkpt><trkpt lat="45.55547079888305" lon="10.406302993254474"><ele>186.0</ele><time>2026-03-31T14:34:41Z</time></trkpt><trkpt lat="45.55553070563437" lon="10.406365806054415"><ele>186.0</ele><time>2026-03-31T14:34:43Z</time></trkpt><trkpt lat="45.55559705506376" lon="10.406423006077596"><ele>186.0</ele><time>2026-03-31T14:34:45Z</time></trkpt><trkpt lat="45.555661779490954" lon="10.406468797690291"><ele>186.83333333333334</ele><time>2026-03-31T14:34:47Z</time></trkpt><trkpt lat="45.555719035928675" lon="10.406534771298436"><ele>187.66666666666666</ele><time>2026-03-31T14:34:49Z</time></trkpt><trkpt lat="45.555779833702935" lon="10.406610836501915"><ele>188.5</ele><time>2026-03-31T14:34:52Z</time></trkpt><trkpt lat="45.555819016455885" lon="10.406741292032232"><ele>189.33333333333331</ele><time>2026-03-31T14:34:53Z</time></trkpt><trkpt lat="45.55588188951179" lon="10.406825757711124"><ele>190.16666666666666</ele><time>2026-03-31T14:34:55Z</time></trkpt><trkpt lat="45.5559417648805" lon="10.40690649250183"><ele>191.0</ele><time>2026-03-31T14:34:57Z</time></trkpt><trkpt lat="45.55599894632233" lon="10.406989340053556"><ele>191.0</ele><time>2026-03-31T14:34:59Z</time></trkpt><trkpt lat="45.556061805036826" lon="10.407071366337155"><ele>191.0</ele><time>2026-03-31T14:35:01Z</time></trkpt><trkpt lat="45.55613822552213" lon="10.40715700634963"><ele>191.0</ele><time>2026-03-31T14:35:03Z</time></trkpt><trkpt lat="45.556201428095946" lon="10.407244395507398"><ele>191.0</ele><time>2026-03-31T14:35:05Z</time></trkpt><trkpt lat="45.55626735915859" lon="10.407326939219491"><ele>191.0</ele><time>2026-03-31T14:35:07Z</time></trkpt><trkpt lat="45.55634468611477" lon="10.407390084673008"><ele>191.0</ele><time>2026-03-31T14:35:10Z</time></trkpt><trkpt lat="45.55640378228779" lon="10.407464237947018"><ele>190.33333333333331</ele><time>2026-03-31T14:35:12Z</time></trkpt><trkpt lat="45.556454438621735" lon="10.407533964426639"><ele>189.66666666666666</ele><time>2026-03-31T14:35:18Z</time></trkpt><trkpt lat="45.55642170167154" lon="10.407626050440816"><ele>189.0</ele><time>2026-03-31T14:35:22Z</time></trkpt><trkpt lat="45.55639878437713" lon="10.407710698747211"><ele>188.33333333333334</ele><time>2026-03-31T14:35:24Z</time></trkpt><trkpt lat="45.55635175210368" lon="10.407817713244087"><ele>187.66666666666669</ele><time>2026-03-31T14:35:26Z</time></trkpt><trkpt lat="45.556255235897105" lon="10.40792934266153"><ele>187.0</ele><time>2026-03-31T14:35:28Z</time></trkpt><trkpt lat="45.556162174064454" lon="10.408031423374808"><ele>187.0</ele><time>2026-03-31T14:35:30Z</time></trkpt><trkpt lat="45.55606965134279" lon="10.408145978355002"><ele>187.0</ele><time>2026-03-31T14:35:32Z</time></trkpt><trkpt lat="45.555973936156434" lon="10.408246341612843"><ele>187.0</ele><time>2026-03-31T14:35:34Z</time></trkpt><trkpt lat="45.5559239414277" lon="10.408301079176494"><ele>187.0</ele><time>2026-03-31T14:35:35Z</time></trkpt><trkpt lat="45.555873315521296" lon="10.408355996703053"><ele>187.0</ele><time>2026-03-31T14:35:36Z</time></trkpt><trkpt lat="45.55582596946008" lon="10.408418312261901"><ele>187.0</ele><time>2026-03-31T14:35:37Z</time></trkpt><trkpt lat="45.55577746004777" lon="10.408479522262832"><ele>187.0</ele><time>2026-03-31T14:35:38Z</time></trkpt><trkpt lat="45.555725847835205" lon="10.408537309382828"><ele>187.0</ele><time>2026-03-31T14:35:39Z</time></trkpt><trkpt lat="45.55567555540905" lon="10.408592976129707"><ele>187.0</ele><time>2026-03-31T14:35:40Z</time></trkpt><trkpt lat="45.555623431323006" lon="10.408654445135316"><ele>187.0</ele><time>2026-03-31T14:35:41Z</time></trkpt><trkpt lat="45.55557130211268" lon="10.408715133313198"><ele>187.0</ele><time>2026-03-31T14:35:42Z</time></trkpt><trkpt lat="45.55551906815086" lon="10.40877517267144"><ele>187.0</ele><time>2026-03-31T14:35:43Z</time></trkpt><trkpt lat="45.555423092376905" lon="10.408891294672936"><ele>186.5</ele><time>2026-03-31T14:35:45Z</time></trkpt><trkpt lat="45.555329915152996" lon="10.408997718500084"><ele>186.0</ele><time>2026-03-31T14:35:47Z</time></trkpt><trkpt lat="45.55524861533707" lon="10.409100465753282"><ele>185.5</ele><time>2026-03-31T14:35:49Z</time></trkpt><trkpt lat="45.55515898627095" lon="10.409160069665104"><ele>185.0</ele><time>2026-03-31T14:35:51Z</time></trkpt><trkpt lat="45.5550300258908" lon="10.409204768525665"><ele>185.0</ele><time>2026-03-31T14:35:53Z</time></trkpt><trkpt lat="45.55496757084459" lon="10.409251069546018"><ele>185.0</ele><time>2026-03-31T14:35:54Z</time></trkpt><trkpt lat="45.5549182655975" lon="10.40932706545219"><ele>185.0</ele><time>2026-03-31T14:35:55Z</time></trkpt><trkpt lat="45.55487366295309" lon="10.409401701927678"><ele>185.0</ele><time>2026-03-31T14:35:56Z</time></trkpt><trkpt lat="45.5547865137702" lon="10.409506915436593"><ele>185.0</ele><time>2026-03-31T14:35:58Z</time></trkpt><trkpt lat="45.554689489016845" lon="10.409584146951449"><ele>185.0</ele><time>2026-03-31T14:36:00Z</time></trkpt><trkpt lat="45.554603369065376" lon="10.409662833432433"><ele>185.0</ele><time>2026-03-31T14:36:02Z</time></trkpt><trkpt lat="45.55452167137299" lon="10.40972005301119"><ele>185.0</ele><time>2026-03-31T14:36:04Z</time></trkpt><trkpt lat="45.55445308236345" lon="10.40978865606475"><ele>185.0</ele><time>2026-03-31T14:36:06Z</time></trkpt><trkpt lat="45.55436610804108" lon="10.409826235643456"><ele>185.0</ele><time>2026-03-31T14:36:08Z</time></trkpt><trkpt lat="45.554288569635425" lon="10.409875269606264"><ele>185.0</ele><time>2026-03-31T14:36:10Z</time></trkpt><trkpt lat="45.554206480660675" lon="10.409911831409556"><ele>185.0</ele><time>2026-03-31T14:36:12Z</time></trkpt><trkpt lat="45.5541278665113" lon="10.409955851915749"><ele>185.0</ele><time>2026-03-31T14:36:14Z</time></trkpt><trkpt lat="45.554044915301525" lon="10.409988772134696"><ele>185.0</ele><time>2026-03-31T14:36:16Z</time></trkpt><trkpt lat="45.553962409901395" lon="10.41004466002754"><ele>185.0</ele><time>2026-03-31T14:36:18Z</time></trkpt><trkpt lat="45.55387861767413" lon="10.410107640479403"><ele>185.0</ele><time>2026-03-31T14:36:20Z</time></trkpt><trkpt lat="45.55379507306081" lon="10.410170957070182"><ele>185.0</ele><time>2026-03-31T14:36:22Z</time></trkpt><trkpt lat="45.55370900057462" lon="10.410241726415881"><ele>184.8</ele><time>2026-03-31T14:36:24Z</time></trkpt><trkpt lat="45.553622280703756" lon="10.410316175771243"><ele>184.6</ele><time>2026-03-31T14:36:26Z</time></trkpt><trkpt lat="45.55353845369868" lon="10.410395386746263"><ele>184.39999999999998</ele><time>2026-03-31T14:36:28Z</time></trkpt><trkpt lat="45.553481223411396" lon="10.410501970623054"><ele>184.2</ele><time>2026-03-31T14:36:30Z</time></trkpt><trkpt lat="45.5534086627126" lon="10.410567631945998"><ele>184.0</ele><time>2026-03-31T14:36:32Z</time></trkpt><trkpt lat="45.5533291967625" lon="10.410641730499895"><ele>184.0</ele><time>2026-03-31T14:36:34Z</time></trkpt><trkpt lat="45.553241822605315" lon="10.4107290092274"><ele>184.0</ele><time>2026-03-31T14:36:36Z</time></trkpt><trkpt lat="45.55317781495956" lon="10.41072713353763"><ele>184.0</ele><time>2026-03-31T14:36:37Z</time></trkpt><trkpt lat="45.55308820120728" lon="10.410806690836928"><ele>184.0</ele><time>2026-03-31T14:36:39Z</time></trkpt><trkpt lat="45.553005729509614" lon="10.410879907560771"><ele>184.0</ele><time>2026-03-31T14:36:41Z</time></trkpt><trkpt lat="45.55291912656031" lon="10.410956791939727"><ele>183.79999999999998</ele><time>2026-03-31T14:36:43Z</time></trkpt><trkpt lat="45.55282918500726" lon="10.411036640258141"><ele>183.6</ele><time>2026-03-31T14:36:45Z</time></trkpt><trkpt lat="45.55274328419582" lon="10.41111312212139"><ele>183.4</ele><time>2026-03-31T14:36:47Z</time></trkpt><trkpt lat="45.552662621925464" lon="10.411185189926279"><ele>183.2</ele><time>2026-03-31T14:36:49Z</time></trkpt><trkpt lat="45.55259087138209" lon="10.41124955011176"><ele>183.0</ele><time>2026-03-31T14:36:51Z</time></trkpt><trkpt lat="45.55252881079367" lon="10.411306955301571"><ele>183.16666666666666</ele><time>2026-03-31T14:36:53Z</time></trkpt><trkpt lat="45.55245835192105" lon="10.411371189442331"><ele>183.33333333333334</ele><time>2026-03-31T14:36:55Z</time></trkpt><trkpt lat="45.552385713775365" lon="10.411436611215596"><ele>183.5</ele><time>2026-03-31T14:36:57Z</time></trkpt><trkpt lat="45.55230815534032" lon="10.411500483471148"><ele>183.66666666666669</ele><time>2026-03-31T14:36:59Z</time></trkpt><trkpt lat="45.55223341031293" lon="10.411562038806757"><ele>183.83333333333334</ele><time>2026-03-31T14:37:01Z</time></trkpt><trkpt lat="45.5521795714974" lon="10.411642907223683"><ele>184.0</ele><time>2026-03-31T14:37:03Z</time></trkpt><trkpt lat="45.55211751271183" lon="10.411681474557755"><ele>184.0</ele><time>2026-03-31T14:37:05Z</time></trkpt><trkpt lat="45.55207390275648" lon="10.411757937872899"><ele>184.0</ele><time>2026-03-31T14:37:07Z</time></trkpt><trkpt lat="45.55200189898474" lon="10.411812945854543"><ele>184.0</ele><time>2026-03-31T14:37:10Z</time></trkpt><trkpt lat="45.55192449791087" lon="10.411875566526849"><ele>184.0</ele><time>2026-03-31T14:37:13Z</time></trkpt><trkpt lat="45.55184971451081" lon="10.411924321506746"><ele>184.0</ele><time>2026-03-31T14:37:16Z</time></trkpt><trkpt lat="45.551792751512956" lon="10.411882909872213"><ele>184.0</ele><time>2026-03-31T14:37:18Z</time></trkpt><trkpt lat="45.551730170202916" lon="10.411780802522097"><ele>183.79999999999998</ele><time>2026-03-31T14:37:20Z</time></trkpt><trkpt lat="45.5516664110245" lon="10.411700094210559"><ele>183.6</ele><time>2026-03-31T14:37:22Z</time></trkpt><trkpt lat="45.55158297757691" lon="10.411594284009691"><ele>183.4</ele><time>2026-03-31T14:37:24Z</time></trkpt><trkpt lat="45.55152096895054" lon="10.411511800545679"><ele>183.2</ele><time>2026-03-31T14:37:26Z</time></trkpt><trkpt lat="45.55142095143466" lon="10.41139078194333"><ele>183.0</ele><time>2026-03-31T14:37:28Z</time></trkpt><trkpt lat="45.55131230147415" lon="10.411355218492446"><ele>183.2</ele><time>2026-03-31T14:37:30Z</time></trkpt><trkpt lat="45.551206894911125" lon="10.411400301751707"><ele>183.4</ele><time>2026-03-31T14:37:32Z</time></trkpt><trkpt lat="45.55113509991473" lon="10.411466065054881"><ele>183.6</ele><time>2026-03-31T14:37:34Z</time></trkpt><trkpt lat="45.55104785069209" lon="10.411573242301227"><ele>183.79999999999998</ele><time>2026-03-31T14:37:36Z</time></trkpt><trkpt lat="45.55095834381096" lon="10.411671222439429"><ele>184.0</ele><time>2026-03-31T14:37:38Z</time></trkpt><trkpt lat="45.55087462788361" lon="10.411734351763505"><ele>184.0</ele><time>2026-03-31T14:37:40Z</time></trkpt><trkpt lat="45.55080203039287" lon="10.411805023403295"><ele>184.0</ele><time>2026-03-31T14:37:42Z</time></trkpt><trkpt lat="45.55073486096942" lon="10.411879177705147"><ele>184.0</ele><time>2026-03-31T14:37:44Z</time></trkpt><trkpt lat="45.55065995383772" lon="10.411969490622889"><ele>184.0</ele><time>2026-03-31T14:37:46Z</time></trkpt><trkpt lat="45.55059387311342" lon="10.412060986151012"><ele>184.0</ele><time>2026-03-31T14:37:48Z</time></trkpt><trkpt lat="45.55052614193" lon="10.412146787159676"><ele>184.0</ele><time>2026-03-31T14:37:50Z</time></trkpt><trkpt lat="45.55046151771193" lon="10.412211052693683"><ele>184.0</ele><time>2026-03-31T14:37:52Z</time></trkpt><trkpt lat="45.55040295698346" lon="10.412260387336358"><ele>184.0</ele><time>2026-03-31T14:37:54Z</time></trkpt><trkpt lat="45.55033571870586" lon="10.412225192298246"><ele>184.0</ele><time>2026-03-31T14:37:56Z</time></trkpt><trkpt lat="45.55028919631206" lon="10.412133080054282"><ele>184.0</ele><time>2026-03-31T14:37:58Z</time></trkpt><trkpt lat="45.55024538455949" lon="10.41204924195703"><ele>184.0</ele><time>2026-03-31T14:38:00Z</time></trkpt><trkpt lat="45.55019988532498" lon="10.411971533963294"><ele>184.0</ele><time>2026-03-31T14:38:02Z</time></trkpt><trkpt lat="45.55015413264076" lon="10.411876930516225"><ele>184.0</ele><time>2026-03-31T14:38:05Z</time></trkpt><trkpt lat="45.5501084424252" lon="10.411777010945487"><ele>184.0</ele><time>2026-03-31T14:38:08Z</time></trkpt><trkpt lat="45.55005292580411" lon="10.411728359203014"><ele>184.0</ele><time>2026-03-31T14:38:10Z</time></trkpt><trkpt lat="45.549978683186644" lon="10.411705704930263"><ele>184.0</ele><time>2026-03-31T14:38:12Z</time></trkpt><trkpt lat="45.54990599081078" lon="10.411689793523395"><ele>184.0</ele><time>2026-03-31T14:38:13Z</time></trkpt><trkpt lat="45.549840108522055" lon="10.4116763308173"><ele>184.0</ele><time>2026-03-31T14:38:14Z</time></trkpt><trkpt lat="45.54975505503606" lon="10.411651405482516"><ele>184.0</ele><time>2026-03-31T14:38:16Z</time></trkpt><trkpt lat="45.54966668291761" lon="10.411632396612664"><ele>184.0</ele><time>2026-03-31T14:38:18Z</time></trkpt><trkpt lat="45.54956597425374" lon="10.411612995111827"><ele>184.0</ele><time>2026-03-31T14:38:20Z</time></trkpt><trkpt lat="45.54946714082245" lon="10.411571487196891"><ele>184.0</ele><time>2026-03-31T14:38:22Z</time></trkpt><trkpt lat="45.54937012020443" lon="10.411519156531973"><ele>184.0</ele><time>2026-03-31T14:38:24Z</time></trkpt><trkpt lat="45.549276863129336" lon="10.411474891010865"><ele>184.0</ele><time>2026-03-31T14:38:26Z</time></trkpt><trkpt lat="45.54916903407326" lon="10.411452880161978"><ele>184.0</ele><time>2026-03-31T14:38:28Z</time></trkpt><trkpt lat="45.5490750342079" lon="10.411498516193925"><ele>184.0</ele><time>2026-03-31T14:38:30Z</time></trkpt><trkpt lat="45.54897058693223" lon="10.411519736711044"><ele>184.0</ele><time>2026-03-31T14:38:32Z</time></trkpt><trkpt lat="45.548876040768356" lon="10.41150604157015"><ele>184.0</ele><time>2026-03-31T14:38:34Z</time></trkpt><trkpt lat="45.54877637478524" lon="10.411433465078032"><ele>183.79999999999998</ele><time>2026-03-31T14:38:36Z</time></trkpt><trkpt lat="45.548701381985424" lon="10.41134738089742"><ele>183.6</ele><time>2026-03-31T14:38:38Z</time></trkpt><trkpt lat="45.54861033513862" lon="10.411343632434274"><ele>183.4</ele><time>2026-03-31T14:38:40Z</time></trkpt><trkpt lat="45.54851971009223" lon="10.411418225677753"><ele>183.2</ele><time>2026-03-31T14:38:42Z</time></trkpt><trkpt lat="45.54845339291703" lon="10.411529992920876"><ele>183.0</ele><time>2026-03-31T14:38:44Z</time></trkpt><trkpt lat="45.54836559104091" lon="10.411610173516808"><ele>183.0</ele><time>2026-03-31T14:38:46Z</time></trkpt><trkpt lat="45.5482896698165" lon="10.41170472967665"><ele>183.0</ele><time>2026-03-31T14:38:48Z</time></trkpt><trkpt lat="45.54821627696646" lon="10.41179464911787"><ele>183.0</ele><time>2026-03-31T14:38:50Z</time></trkpt><trkpt lat="45.54814163711835" lon="10.411883244727408"><ele>183.0</ele><time>2026-03-31T14:38:52Z</time></trkpt><trkpt lat="45.54807502247564" lon="10.411984414271902"><ele>183.0</ele><time>2026-03-31T14:38:54Z</time></trkpt><trkpt lat="45.54800898011401" lon="10.412068431770857"><ele>183.0</ele><time>2026-03-31T14:38:56Z</time></trkpt><trkpt lat="45.547946259735895" lon="10.412141938307178"><ele>183.0</ele><time>2026-03-31T14:38:58Z</time></trkpt><trkpt lat="45.54788474697715" lon="10.412183568426983"><ele>183.0</ele><time>2026-03-31T14:39:00Z</time></trkpt><trkpt lat="45.54777828083992" lon="10.41212565144597"><ele>183.0</ele><time>2026-03-31T14:39:04Z</time></trkpt><trkpt lat="45.547720864945276" lon="10.412030386396976"><ele>183.0</ele><time>2026-03-31T14:39:06Z</time></trkpt><trkpt lat="45.54766057875778" lon="10.411939136140672"><ele>183.0</ele><time>2026-03-31T14:39:08Z</time></trkpt><trkpt lat="45.54760180717026" lon="10.411851961726574"><ele>183.16666666666666</ele><time>2026-03-31T14:39:10Z</time></trkpt><trkpt lat="45.54754610973042" lon="10.411770486063656"><ele>183.33333333333334</ele><time>2026-03-31T14:39:12Z</time></trkpt><trkpt lat="45.54749472155737" lon="10.411693150593779"><ele>183.5</ele><time>2026-03-31T14:39:14Z</time></trkpt><trkpt lat="45.54743288763225" lon="10.411619785785625"><ele>183.66666666666669</ele><time>2026-03-31T14:39:16Z</time></trkpt><trkpt lat="45.547370995364616" lon="10.411528636335312"><ele>183.83333333333334</ele><time>2026-03-31T14:39:18Z</time></trkpt><trkpt lat="45.547305140015425" lon="10.411428432187758"><ele>184.0</ele><time>2026-03-31T14:39:20Z</time></trkpt><trkpt lat="45.54722402030499" lon="10.411335202077085"><ele>183.79999999999998</ele><time>2026-03-31T14:39:22Z</time></trkpt><trkpt lat="45.54714024150688" lon="10.411244453308068"><ele>183.6</ele><time>2026-03-31T14:39:24Z</time></trkpt><trkpt lat="45.54706005362002" lon="10.411156093694814"><ele>183.4</ele><time>2026-03-31T14:39:26Z</time></trkpt><trkpt lat="45.546979214941295" lon="10.411052662966254"><ele>183.2</ele><time>2026-03-31T14:39:28Z</time></trkpt><trkpt lat="45.54690198311786" lon="10.410944199664591"><ele>183.0</ele><time>2026-03-31T14:39:30Z</time></trkpt><trkpt lat="45.54681746342385" lon="10.410842058872422"><ele>182.60000000000002</ele><time>2026-03-31T14:39:32Z</time></trkpt><trkpt lat="45.54674343115753" lon="10.410734597030267"><ele>182.20000000000002</ele><time>2026-03-31T14:39:34Z</time></trkpt><trkpt lat="45.54668179316724" lon="10.410621790571367"><ele>181.8</ele><time>2026-03-31T14:39:36Z</time></trkpt><trkpt lat="45.54661806851315" lon="10.410513369039561"><ele>181.4</ele><time>2026-03-31T14:39:38Z</time></trkpt><trkpt lat="45.546561597100286" lon="10.41041229167209"><ele>181.0</ele><time>2026-03-31T14:39:40Z</time></trkpt><trkpt lat="45.54650243023218" lon="10.410331585406759"><ele>181.0</ele><time>2026-03-31T14:39:42Z</time></trkpt><trkpt lat="45.54645132437615" lon="10.41023819007656"><ele>181.0</ele><time>2026-03-31T14:39:48Z</time></trkpt><trkpt lat="45.546350019328194" lon="10.410239613520973"><ele>181.0</ele><time>2026-03-31T14:39:51Z</time></trkpt><trkpt lat="45.54626318815008" lon="10.410252105867034"><ele>181.0</ele><time>2026-03-31T14:39:53Z</time></trkpt><trkpt lat="45.546164367025085" lon="10.41024647894244"><ele>181.0</ele><time>2026-03-31T14:39:55Z</time></trkpt><trkpt lat="45.54606108779553" lon="10.410233803668573"><ele>181.0</ele><time>2026-03-31T14:39:57Z</time></trkpt><trkpt lat="45.54595438571573" lon="10.410214974286658"><ele>181.0</ele><time>2026-03-31T14:39:59Z</time></trkpt><trkpt lat="45.54584464350072" lon="10.410201894653813"><ele>181.0</ele><time>2026-03-31T14:40:01Z</time></trkpt><trkpt lat="45.545728601318714" lon="10.410187669313897"><ele>181.0</ele><time>2026-03-31T14:40:03Z</time></trkpt><trkpt lat="45.54561878349077" lon="10.410199417316017"><ele>181.0</ele><time>2026-03-31T14:40:05Z</time></trkpt><trkpt lat="45.545520647118614" lon="10.410270795280955"><ele>181.0</ele><time>2026-03-31T14:40:07Z</time></trkpt><trkpt lat="45.545442714901434" lon="10.410373364365732"><ele>181.0</ele><time>2026-03-31T14:40:09Z</time></trkpt><trkpt lat="45.54536680275305" lon="10.410476199516939"><ele>181.0</ele><time>2026-03-31T14:40:11Z</time></trkpt><trkpt lat="45.545286680218894" lon="10.41059076926522"><ele>181.0</ele><time>2026-03-31T14:40:13Z</time></trkpt><trkpt lat="45.54521129680264" lon="10.410712630678598"><ele>181.0</ele><time>2026-03-31T14:40:15Z</time></trkpt><trkpt lat="45.54512519845423" lon="10.410817420895016"><ele>181.4</ele><time>2026-03-31T14:40:17Z</time></trkpt><trkpt lat="45.54504641019156" lon="10.410929179297424"><ele>181.8</ele><time>2026-03-31T14:40:19Z</time></trkpt><trkpt lat="45.54496987175697" lon="10.411032213225104"><ele>182.20000000000002</ele><time>2026-03-31T14:40:21Z</time></trkpt><trkpt lat="45.54489562096278" lon="10.411133200636993"><ele>182.60000000000002</ele><time>2026-03-31T14:40:23Z</time></trkpt><trkpt lat="45.54482846083028" lon="10.411232525893578"><ele>183.0</ele><time>2026-03-31T14:40:25Z</time></trkpt><trkpt lat="45.544759031042986" lon="10.411333766468044"><ele>183.0</ele><time>2026-03-31T14:40:27Z</time></trkpt><trkpt lat="45.544699971084626" lon="10.411439591241006"><ele>183.0</ele><time>2026-03-31T14:40:29Z</time></trkpt><trkpt lat="45.5446431347246" lon="10.41154328064417"><ele>183.0</ele><time>2026-03-31T14:40:31Z</time></trkpt><trkpt lat="45.544587546918166" lon="10.411626492927837"><ele>183.0</ele><time>2026-03-31T14:40:33Z</time></trkpt><trkpt lat="45.544528763370884" lon="10.411699148311131"><ele>183.0</ele><time>2026-03-31T14:40:35Z</time></trkpt><trkpt lat="45.54446069433962" lon="10.411757957398029"><ele>183.0</ele><time>2026-03-31T14:40:37Z</time></trkpt><trkpt lat="45.54439473933555" lon="10.41183661218353"><ele>183.16666666666666</ele><time>2026-03-31T14:40:39Z</time></trkpt><trkpt lat="45.54434195314045" lon="10.411930374785989"><ele>183.33333333333334</ele><time>2026-03-31T14:40:41Z</time></trkpt><trkpt lat="45.54427700326576" lon="10.412003361094289"><ele>183.5</ele><time>2026-03-31T14:40:43Z</time></trkpt><trkpt lat="45.544213050790454" lon="10.412082204305566"><ele>183.66666666666669</ele><time>2026-03-31T14:40:45Z</time></trkpt><trkpt lat="45.54415067460714" lon="10.412169877321904"><ele>183.83333333333334</ele><time>2026-03-31T14:40:47Z</time></trkpt><trkpt lat="45.54408087223911" lon="10.412264838969842"><ele>184.0</ele><time>2026-03-31T14:40:49Z</time></trkpt><trkpt lat="45.544013701785275" lon="10.41238143370778"><ele>184.0</ele><time>2026-03-31T14:40:51Z</time></trkpt><trkpt lat="45.543937600840785" lon="10.412477446499448"><ele>184.0</ele><time>2026-03-31T14:40:53Z</time></trkpt><trkpt lat="45.543859536776125" lon="10.412571979181152"><ele>184.0</ele><time>2026-03-31T14:40:55Z</time></trkpt><trkpt lat="45.543793046229325" lon="10.412656360264142"><ele>184.0</ele><time>2026-03-31T14:40:57Z</time></trkpt><trkpt lat="45.5437279478131" lon="10.41273712597949"><ele>184.0</ele><time>2026-03-31T14:40:59Z</time></trkpt><trkpt lat="45.54364274498308" lon="10.412812314141803"><ele>184.0</ele><time>2026-03-31T14:41:01Z</time></trkpt><trkpt lat="45.543558771315936" lon="10.41291192283083"><ele>184.0</ele><time>2026-03-31T14:41:03Z</time></trkpt><trkpt lat="45.543496816631865" lon="10.413011573169305"><ele>184.0</ele><time>2026-03-31T14:41:05Z</time></trkpt><trkpt lat="45.54343575125693" lon="10.413083327191028"><ele>184.0</ele><time>2026-03-31T14:41:07Z</time></trkpt><trkpt lat="45.543366918602075" lon="10.413162171056026"><ele>184.0</ele><time>2026-03-31T14:41:09Z</time></trkpt><trkpt lat="45.543305652500734" lon="10.413234132993695"><ele>184.0</ele><time>2026-03-31T14:41:11Z</time></trkpt><trkpt lat="45.54322830667992" lon="10.413319837783698"><ele>184.0</ele><time>2026-03-31T14:41:13Z</time></trkpt><trkpt lat="45.5431539259005" lon="10.413420366457963"><ele>184.0</ele><time>2026-03-31T14:41:15Z</time></trkpt><trkpt lat="45.54308165485421" lon="10.413526733083266"><ele>184.0</ele><time>2026-03-31T14:41:17Z</time></trkpt><trkpt lat="45.54300742684314" lon="10.413631797277034"><ele>184.0</ele><time>2026-03-31T14:41:19Z</time></trkpt><trkpt lat="45.542932953004915" lon="10.4137369107054"><ele>184.0</ele><time>2026-03-31T14:41:21Z</time></trkpt><trkpt lat="45.54286123241815" lon="10.413830137536403"><ele>183.79999999999998</ele><time>2026-03-31T14:41:23Z</time></trkpt><trkpt lat="45.54280310389457" lon="10.413908784985306"><ele>183.6</ele><time>2026-03-31T14:41:25Z</time></trkpt><trkpt lat="45.542740980471024" lon="10.413998377825548"><ele>183.4</ele><time>2026-03-31T14:41:27Z</time></trkpt><trkpt lat="45.54265749794517" lon="10.414089294915588"><ele>183.2</ele><time>2026-03-31T14:41:29Z</time></trkpt><trkpt lat="45.54256786446419" lon="10.414181913697602"><ele>183.0</ele><time>2026-03-31T14:41:31Z</time></trkpt><trkpt lat="45.54249794499544" lon="10.414253071123506"><ele>183.0</ele><time>2026-03-31T14:41:33Z</time></trkpt><trkpt lat="45.54243007239902" lon="10.414310024680745"><ele>183.0</ele><time>2026-03-31T14:41:35Z</time></trkpt><trkpt lat="45.54236616497507" lon="10.414353174268594"><ele>183.0</ele><time>2026-03-31T14:41:37Z</time></trkpt><trkpt lat="45.5422828559233" lon="10.414392324157676"><ele>183.0</ele><time>2026-03-31T14:41:39Z</time></trkpt><trkpt lat="45.54219822371035" lon="10.414466632976575"><ele>183.0</ele><time>2026-03-31T14:41:41Z</time></trkpt><trkpt lat="45.5420998115934" lon="10.414520604834411"><ele>183.0</ele><time>2026-03-31T14:41:43Z</time></trkpt><trkpt lat="45.542022207422725" lon="10.414577449439589"><ele>183.60000000000002</ele><time>2026-03-31T14:41:45Z</time></trkpt><trkpt lat="45.54196011433274" lon="10.414626055600477"><ele>184.20000000000002</ele><time>2026-03-31T14:41:48Z</time></trkpt><trkpt lat="45.54189316794213" lon="10.414680439926743"><ele>184.8</ele><time>2026-03-31T14:41:49Z</time></trkpt><trkpt lat="45.5418117954607" lon="10.414749792113968"><ele>185.4</ele><time>2026-03-31T14:41:51Z</time></trkpt><trkpt lat="45.54172180925093" lon="10.41483287814753"><ele>186.0</ele><time>2026-03-31T14:41:53Z</time></trkpt><trkpt lat="45.54162557574729" lon="10.414908148193156"><ele>186.25</ele><time>2026-03-31T14:41:55Z</time></trkpt><trkpt lat="45.54152054682034" lon="10.414986883001529"><ele>186.5</ele><time>2026-03-31T14:41:57Z</time></trkpt><trkpt lat="45.54142570407335" lon="10.415062351791995"><ele>186.75</ele><time>2026-03-31T14:41:59Z</time></trkpt><trkpt lat="45.54132709834199" lon="10.415146585692028"><ele>187.0</ele><time>2026-03-31T14:42:01Z</time></trkpt><trkpt lat="45.54122066844449" lon="10.415204511639397"><ele>187.2</ele><time>2026-03-31T14:42:03Z</time></trkpt><trkpt lat="45.54113051742672" lon="10.415261617846241"><ele>187.39999999999998</ele><time>2026-03-31T14:42:05Z</time></trkpt><trkpt lat="45.541044953123425" lon="10.41528159365789"><ele>187.60000000000002</ele><time>2026-03-31T14:42:07Z</time></trkpt><trkpt lat="45.540955000988056" lon="10.415286183040434"><ele>187.8</ele><time>2026-03-31T14:42:09Z</time></trkpt><trkpt lat="45.54085329044038" lon="10.415271890825286"><ele>188.0</ele><time>2026-03-31T14:42:11Z</time></trkpt><trkpt lat="45.54075858874352" lon="10.415240345191135"><ele>188.0</ele><time>2026-03-31T14:42:13Z</time></trkpt><trkpt lat="45.5406562911474" lon="10.415203717460317"><ele>188.0</ele><time>2026-03-31T14:42:15Z</time></trkpt><trkpt lat="45.54055543365894" lon="10.4151495019523"><ele>188.0</ele><time>2026-03-31T14:42:17Z</time></trkpt><trkpt lat="45.540453687931155" lon="10.415098762061923"><ele>188.0</ele><time>2026-03-31T14:42:19Z</time></trkpt><trkpt lat="45.540359084876584" lon="10.41506490728645"><ele>188.0</ele><time>2026-03-31T14:42:21Z</time></trkpt><trkpt lat="45.54026185192467" lon="10.415040686420006"><ele>188.0</ele><time>2026-03-31T14:42:23Z</time></trkpt><trkpt lat="45.5401689552566" lon="10.415026676101586"><ele>188.0</ele><time>2026-03-31T14:42:25Z</time></trkpt><trkpt lat="45.54007823576944" lon="10.415051757143335"><ele>188.0</ele><time>2026-03-31T14:42:27Z</time></trkpt><trkpt lat="45.53998909119766" lon="10.41507353655854"><ele>188.0</ele><time>2026-03-31T14:42:29Z</time></trkpt><trkpt lat="45.53989940826595" lon="10.415149547189765"><ele>188.0</ele><time>2026-03-31T14:42:31Z</time></trkpt><trkpt lat="45.53979680791944" lon="10.415215910184076"><ele>188.0</ele><time>2026-03-31T14:42:33Z</time></trkpt><trkpt lat="45.53970729973731" lon="10.415276144626958"><ele>188.0</ele><time>2026-03-31T14:42:35Z</time></trkpt><trkpt lat="45.53964664551883" lon="10.415315544411685"><ele>188.0</ele><time>2026-03-31T14:42:37Z</time></trkpt><trkpt lat="45.539588592029276" lon="10.41535325481433"><ele>188.0</ele><time>2026-03-31T14:42:39Z</time></trkpt><trkpt lat="45.53951734821041" lon="10.415400000695081"><ele>188.0</ele><time>2026-03-31T14:42:40Z</time></trkpt><trkpt lat="45.53943076507125" lon="10.415458249246159"><ele>188.0</ele><time>2026-03-31T14:42:42Z</time></trkpt><trkpt lat="45.539353384905255" lon="10.41551030651679"><ele>188.0</ele><time>2026-03-31T14:42:44Z</time></trkpt><trkpt lat="45.539272601863445" lon="10.415581677535993"><ele>188.0</ele><time>2026-03-31T14:42:46Z</time></trkpt><trkpt lat="45.539205649312045" lon="10.415677050143536"><ele>188.0</ele><time>2026-03-31T14:42:48Z</time></trkpt><trkpt lat="45.53915589596427" lon="10.415767894305395"><ele>188.0</ele><time>2026-03-31T14:42:50Z</time></trkpt><trkpt lat="45.53913169018228" lon="10.415888406480349"><ele>188.0</ele><time>2026-03-31T14:42:52Z</time></trkpt><trkpt lat="45.5391208499603" lon="10.415998983103481"><ele>188.0</ele><time>2026-03-31T14:42:54Z</time></trkpt><trkpt lat="45.53911504826044" lon="10.416098142628668"><ele>188.0</ele><time>2026-03-31T14:42:56Z</time></trkpt><trkpt lat="45.53910048214494" lon="10.416193037663353"><ele>188.0</ele><time>2026-03-31T14:42:59Z</time></trkpt><trkpt lat="45.53903573943582" lon="10.416167839963133"><ele>188.0</ele><time>2026-03-31T14:43:00Z</time></trkpt><trkpt lat="45.53895074358949" lon="10.416230009653848"><ele>188.0</ele><time>2026-03-31T14:43:02Z</time></trkpt><trkpt lat="45.53884578165331" lon="10.416192851213694"><ele>188.0</ele><time>2026-03-31T14:43:04Z</time></trkpt><trkpt lat="45.53873535339742" lon="10.416134871459258"><ele>187.33333333333331</ele><time>2026-03-31T14:43:06Z</time></trkpt><trkpt lat="45.5386098568352" lon="10.416103776517822"><ele>186.66666666666666</ele><time>2026-03-31T14:43:08Z</time></trkpt><trkpt lat="45.538548915546905" lon="10.416065932392506"><ele>186.0</ele><time>2026-03-31T14:43:09Z</time></trkpt><trkpt lat="45.538483687643016" lon="10.416055041654412"><ele>185.33333333333334</ele><time>2026-03-31T14:43:10Z</time></trkpt><trkpt lat="45.53841602277186" lon="10.416040448276632"><ele>184.66666666666669</ele><time>2026-03-31T14:43:11Z</time></trkpt><trkpt lat="45.538349489583105" lon="10.416024741467236"><ele>184.0</ele><time>2026-03-31T14:43:12Z</time></trkpt><trkpt lat="45.53821652659246" lon="10.41597826533963"><ele>184.0</ele><time>2026-03-31T14:43:14Z</time></trkpt><trkpt lat="45.53816300864197" lon="10.415930597566339"><ele>184.0</ele><time>2026-03-31T14:43:15Z</time></trkpt><trkpt lat="45.53811344840754" lon="10.415869873000226"><ele>184.0</ele><time>2026-03-31T14:43:16Z</time></trkpt><trkpt lat="45.53801598806808" lon="10.415787804665692"><ele>184.0</ele><time>2026-03-31T14:43:18Z</time></trkpt><trkpt lat="45.53792516972318" lon="10.415737926574847"><ele>184.0</ele><time>2026-03-31T14:43:20Z</time></trkpt><trkpt lat="45.537842741036435" lon="10.415734842726469"><ele>184.0</ele><time>2026-03-31T14:43:22Z</time></trkpt><trkpt lat="45.5377456168411" lon="10.415775289581338"><ele>183.66666666666669</ele><time>2026-03-31T14:43:25Z</time></trkpt><trkpt lat="45.53766842489002" lon="10.415749605459043"><ele>183.33333333333334</ele><time>2026-03-31T14:43:27Z</time></trkpt><trkpt lat="45.53758436963857" lon="10.415728224056993"><ele>183.0</ele><time>2026-03-31T14:43:29Z</time></trkpt><trkpt lat="45.53748907014135" lon="10.415706587622786"><ele>182.66666666666666</ele><time>2026-03-31T14:43:31Z</time></trkpt><trkpt lat="45.53739581109706" lon="10.415688654591671"><ele>182.33333333333331</ele><time>2026-03-31T14:43:33Z</time></trkpt><trkpt lat="45.537303856971214" lon="10.415664406283874"><ele>182.0</ele><time>2026-03-31T14:43:35Z</time></trkpt><trkpt lat="45.53721219132468" lon="10.415648086407213"><ele>182.0</ele><time>2026-03-31T14:43:37Z</time></trkpt><trkpt lat="45.537101885387166" lon="10.415613235912733"><ele>182.0</ele><time>2026-03-31T14:43:39Z</time></trkpt><trkpt lat="45.53699864975076" lon="10.415616127600243"><ele>182.0</ele><time>2026-03-31T14:43:41Z</time></trkpt><trkpt lat="45.536923488975575" lon="10.415555928203126"><ele>182.0</ele><time>2026-03-31T14:43:44Z</time></trkpt><trkpt lat="45.53685885949433" lon="10.415532860785563"><ele>182.0</ele><time>2026-03-31T14:43:46Z</time></trkpt><trkpt lat="45.53678929865314" lon="10.415510979514396"><ele>182.0</ele><time>2026-03-31T14:43:48Z</time></trkpt><trkpt lat="45.53670858138969" lon="10.415579582053052"><ele>181.8</ele><time>2026-03-31T14:43:50Z</time></trkpt><trkpt lat="45.53661692420679" lon="10.41564527020136"><ele>181.6</ele><time>2026-03-31T14:43:52Z</time></trkpt><trkpt lat="45.536524624526926" lon="10.415715640152762"><ele>181.4</ele><time>2026-03-31T14:43:54Z</time></trkpt><trkpt lat="45.536460321437694" lon="10.41583865183106"><ele>181.20000000000002</ele><time>2026-03-31T14:43:56Z</time></trkpt><trkpt lat="45.53638130538481" lon="10.41593793334192"><ele>181.0</ele><time>2026-03-31T14:43:58Z</time></trkpt><trkpt lat="45.536305413486616" lon="10.416047352911907"><ele>181.0</ele><time>2026-03-31T14:44:00Z</time></trkpt><trkpt lat="45.53623370423816" lon="10.416157951203745"><ele>181.0</ele><time>2026-03-31T14:44:02Z</time></trkpt><trkpt lat="45.53615840898396" lon="10.416264976702914"><ele>181.0</ele><time>2026-03-31T14:44:04Z</time></trkpt><trkpt lat="45.53608292444273" lon="10.416376575161427"><ele>181.0</ele><time>2026-03-31T14:44:06Z</time></trkpt><trkpt lat="45.53600843899234" lon="10.41648480439058"><ele>181.0</ele><time>2026-03-31T14:44:08Z</time></trkpt><trkpt lat="45.535934199414356" lon="10.416595930240963"><ele>180.60000000000002</ele><time>2026-03-31T14:44:10Z</time></trkpt><trkpt lat="45.53585925276796" lon="10.416701279859367"><ele>180.2</ele><time>2026-03-31T14:44:12Z</time></trkpt><trkpt lat="45.53578678054095" lon="10.416805583835815"><ele>179.8</ele><time>2026-03-31T14:44:14Z</time></trkpt><trkpt lat="45.53571245185939" lon="10.416915597198424"><ele>179.39999999999998</ele><time>2026-03-31T14:44:16Z</time></trkpt><trkpt lat="45.53564069638594" lon="10.417018835740404"><ele>179.0</ele><time>2026-03-31T14:44:18Z</time></trkpt><trkpt lat="45.53556798719242" lon="10.417123917745265"><ele>179.0</ele><time>2026-03-31T14:44:20Z</time></trkpt><trkpt lat="45.5355003446224" lon="10.417216253319737"><ele>179.0</ele><time>2026-03-31T14:44:22Z</time></trkpt><trkpt lat="45.53543181165867" lon="10.41730363319548"><ele>179.0</ele><time>2026-03-31T14:44:24Z</time></trkpt><trkpt lat="45.53536213725552" lon="10.417398895273728"><ele>179.0</ele><time>2026-03-31T14:44:26Z</time></trkpt><trkpt lat="45.53528944859096" lon="10.417497006428087"><ele>179.0</ele><time>2026-03-31T14:44:28Z</time></trkpt><trkpt lat="45.535212227435515" lon="10.417599578917102"><ele>179.0</ele><time>2026-03-31T14:44:30Z</time></trkpt><trkpt lat="45.53512578962365" lon="10.417683617693084"><ele>179.0</ele><time>2026-03-31T14:44:32Z</time></trkpt><trkpt lat="45.53504817441748" lon="10.41778192083486"><ele>179.0</ele><time>2026-03-31T14:44:34Z</time></trkpt><trkpt lat="45.53497497671851" lon="10.417877540326769"><ele>179.0</ele><time>2026-03-31T14:44:36Z</time></trkpt><trkpt lat="45.53490841059559" lon="10.417971045535745"><ele>179.0</ele><time>2026-03-31T14:44:38Z</time></trkpt><trkpt lat="45.53485287335586" lon="10.418069597572137"><ele>179.2</ele><time>2026-03-31T14:44:40Z</time></trkpt><trkpt lat="45.534799301421444" lon="10.418166440684914"><ele>179.39999999999998</ele><time>2026-03-31T14:44:42Z</time></trkpt><trkpt lat="45.53472723141547" lon="10.418245788963628"><ele>179.6</ele><time>2026-03-31T14:44:44Z</time></trkpt><trkpt lat="45.53466408460023" lon="10.418341416104525"><ele>179.8</ele><time>2026-03-31T14:44:46Z</time></trkpt><trkpt lat="45.534596299958395" lon="10.418440140211557"><ele>180.0</ele><time>2026-03-31T14:44:48Z</time></trkpt><trkpt lat="45.534539183565265" lon="10.418552601284292"><ele>180.0</ele><time>2026-03-31T14:44:50Z</time></trkpt><trkpt lat="45.53447002776185" lon="10.418651410441356"><ele>180.0</ele><time>2026-03-31T14:44:52Z</time></trkpt><trkpt lat="45.5343951664766" lon="10.418751817646067"><ele>180.0</ele><time>2026-03-31T14:44:54Z</time></trkpt><trkpt lat="45.53432542862321" lon="10.418858234205787"><ele>180.0</ele><time>2026-03-31T14:44:56Z</time></trkpt><trkpt lat="45.53424743020642" lon="10.418955775282049"><ele>180.0</ele><time>2026-03-31T14:44:58Z</time></trkpt><trkpt lat="45.53417101113073" lon="10.419057599564697"><ele>180.0</ele><time>2026-03-31T14:45:00Z</time></trkpt><trkpt lat="45.5340884560814" lon="10.419153556125282"><ele>180.0</ele><time>2026-03-31T14:45:02Z</time></trkpt><trkpt lat="45.5340038014225" lon="10.419246534494274"><ele>180.0</ele><time>2026-03-31T14:45:04Z</time></trkpt><trkpt lat="45.53392141560688" lon="10.419320855142423"><ele>180.0</ele><time>2026-03-31T14:45:06Z</time></trkpt><trkpt lat="45.533843797468236" lon="10.419390040484659"><ele>180.0</ele><time>2026-03-31T14:45:08Z</time></trkpt><trkpt lat="45.533770318691275" lon="10.419444424470676"><ele>179.6</ele><time>2026-03-31T14:45:10Z</time></trkpt><trkpt lat="45.53369040875063" lon="10.41949839541079"><ele>179.2</ele><time>2026-03-31T14:45:12Z</time></trkpt><trkpt lat="45.53360535999465" lon="10.419553914318833"><ele>178.8</ele><time>2026-03-31T14:45:14Z</time></trkpt><trkpt lat="45.5335249631623" lon="10.419617579219375"><ele>178.4</ele><time>2026-03-31T14:45:16Z</time></trkpt><trkpt lat="45.53344107098635" lon="10.419692413032537"><ele>178.0</ele><time>2026-03-31T14:45:18Z</time></trkpt><trkpt lat="45.5333494960705" lon="10.419762048018933"><ele>177.60000000000002</ele><time>2026-03-31T14:45:20Z</time></trkpt><trkpt lat="45.53325554892477" lon="10.419819517319182"><ele>177.20000000000002</ele><time>2026-03-31T14:45:22Z</time></trkpt><trkpt lat="45.53316822019978" lon="10.4198916388564"><ele>176.8</ele><time>2026-03-31T14:45:24Z</time></trkpt><trkpt lat="45.533075545492494" lon="10.419965360725149"><ele>176.4</ele><time>2026-03-31T14:45:26Z</time></trkpt><trkpt lat="45.53298373464492" lon="10.420038454964097"><ele>176.0</ele><time>2026-03-31T14:45:28Z</time></trkpt><trkpt lat="45.532892227144515" lon="10.42011424264434"><ele>176.0</ele><time>2026-03-31T14:45:30Z</time></trkpt><trkpt lat="45.53281288792194" lon="10.42022001685925"><ele>176.0</ele><time>2026-03-31T14:45:32Z</time></trkpt><trkpt lat="45.53272951263729" lon="10.420321372186008"><ele>176.0</ele><time>2026-03-31T14:45:34Z</time></trkpt><trkpt lat="45.53264671907237" lon="10.420425631128856"><ele>176.0</ele><time>2026-03-31T14:45:36Z</time></trkpt><trkpt lat="45.53256433429897" lon="10.420528714666823"><ele>176.0</ele><time>2026-03-31T14:45:38Z</time></trkpt><trkpt lat="45.532467681472426" lon="10.420613896663692"><ele>176.0</ele><time>2026-03-31T14:45:40Z</time></trkpt><trkpt lat="45.532392258688176" lon="10.420730045497614"><ele>176.0</ele><time>2026-03-31T14:45:42Z</time></trkpt><trkpt lat="45.53230706198709" lon="10.420820327787554"><ele>176.0</ele><time>2026-03-31T14:45:44Z</time></trkpt><trkpt lat="45.532216312762344" lon="10.420913532841576"><ele>176.0</ele><time>2026-03-31T14:45:46Z</time></trkpt><trkpt lat="45.532124196651154" lon="10.42100367160565"><ele>176.0</ele><time>2026-03-31T14:45:48Z</time></trkpt><trkpt lat="45.532034218219884" lon="10.42109389071417"><ele>175.8</ele><time>2026-03-31T14:45:50Z</time></trkpt><trkpt lat="45.53194167050053" lon="10.421184631559118"><ele>175.60000000000002</ele><time>2026-03-31T14:45:52Z</time></trkpt><trkpt lat="45.53185083201331" lon="10.421265102054303"><ele>175.4</ele><time>2026-03-31T14:45:54Z</time></trkpt><trkpt lat="45.53176962443996" lon="10.42134032213397"><ele>175.2</ele><time>2026-03-31T14:45:56Z</time></trkpt><trkpt lat="45.53169559460839" lon="10.421410918270647"><ele>175.0</ele><time>2026-03-31T14:45:58Z</time></trkpt><trkpt lat="45.53161755130216" lon="10.421496530564186"><ele>175.0</ele><time>2026-03-31T14:46:00Z</time></trkpt><trkpt lat="45.531531961760074" lon="10.42158258921991"><ele>175.0</ele><time>2026-03-31T14:46:02Z</time></trkpt><trkpt lat="45.53144449883689" lon="10.421664101563863"><ele>175.0</ele><time>2026-03-31T14:46:04Z</time></trkpt><trkpt lat="45.53135746429028" lon="10.421742187169844"><ele>175.0</ele><time>2026-03-31T14:46:06Z</time></trkpt><trkpt lat="45.531262367981014" lon="10.42180631028182"><ele>175.0</ele><time>2026-03-31T14:46:08Z</time></trkpt><trkpt lat="45.5311749692931" lon="10.42188766590868"><ele>175.2</ele><time>2026-03-31T14:46:10Z</time></trkpt><trkpt lat="45.53109617822653" lon="10.421989143712489"><ele>175.4</ele><time>2026-03-31T14:46:12Z</time></trkpt><trkpt lat="45.530999406559225" lon="10.422052343166845"><ele>175.60000000000002</ele><time>2026-03-31T14:46:14Z</time></trkpt><trkpt lat="45.53090921060899" lon="10.422138060124137"><ele>175.8</ele><time>2026-03-31T14:46:16Z</time></trkpt><trkpt lat="45.53082228038709" lon="10.422220673427352"><ele>176.0</ele><time>2026-03-31T14:46:18Z</time></trkpt><trkpt lat="45.53073859041434" lon="10.4223263095692"><ele>176.0</ele><time>2026-03-31T14:46:20Z</time></trkpt><trkpt lat="45.53064734561319" lon="10.422417202386637"><ele>176.0</ele><time>2026-03-31T14:46:22Z</time></trkpt><trkpt lat="45.530550656255166" lon="10.422505219942797"><ele>176.0</ele><time>2026-03-31T14:46:24Z</time></trkpt><trkpt lat="45.530483320568905" lon="10.422603876555877"><ele>176.0</ele><time>2026-03-31T14:46:26Z</time></trkpt><trkpt lat="45.53041788900555" lon="10.42268869526517"><ele>176.0</ele><time>2026-03-31T14:46:28Z</time></trkpt><trkpt lat="45.530341425315974" lon="10.422780704106769"><ele>176.0</ele><time>2026-03-31T14:46:30Z</time></trkpt><trkpt lat="45.53025636762607" lon="10.42287571616603"><ele>176.0</ele><time>2026-03-31T14:46:32Z</time></trkpt><trkpt lat="45.530163232773994" lon="10.422959746003325"><ele>176.0</ele><time>2026-03-31T14:46:34Z</time></trkpt><trkpt lat="45.53008344311115" lon="10.423062550818411"><ele>176.0</ele><time>2026-03-31T14:46:36Z</time></trkpt><trkpt lat="45.52999605924902" lon="10.423133064091935"><ele>176.0</ele><time>2026-03-31T14:46:38Z</time></trkpt><trkpt lat="45.52991767110868" lon="10.423209902843762"><ele>175.8</ele><time>2026-03-31T14:46:40Z</time></trkpt><trkpt lat="45.529830580614465" lon="10.42326543728176"><ele>175.60000000000002</ele><time>2026-03-31T14:46:42Z</time></trkpt><trkpt lat="45.52975092073267" lon="10.42334375593438"><ele>175.4</ele><time>2026-03-31T14:46:44Z</time></trkpt><trkpt lat="45.5296714083014" lon="10.423413929915565"><ele>175.2</ele><time>2026-03-31T14:46:46Z</time></trkpt><trkpt lat="45.529575455282526" lon="10.423460772560695"><ele>175.0</ele><time>2026-03-31T14:46:48Z</time></trkpt><trkpt lat="45.529471960603345" lon="10.423500597269037"><ele>174.0</ele><time>2026-03-31T14:46:50Z</time></trkpt><trkpt lat="45.52936291201282" lon="10.42350612491492"><ele>173.0</ele><time>2026-03-31T14:46:52Z</time></trkpt><trkpt lat="45.529254893781236" lon="10.423523083333224"><ele>172.0</ele><time>2026-03-31T14:46:54Z</time></trkpt><trkpt lat="45.529150823650845" lon="10.423567596666137"><ele>171.0</ele><time>2026-03-31T14:46:56Z</time></trkpt><trkpt lat="45.52910876330044" lon="10.423765717301373"><ele>170.83333333333334</ele><time>2026-03-31T14:46:58Z</time></trkpt><trkpt lat="45.52914606956969" lon="10.423840997313544"><ele>170.66666666666666</ele><time>2026-03-31T14:46:59Z</time></trkpt><trkpt lat="45.52919439154553" lon="10.423941079784427"><ele>170.5</ele><time>2026-03-31T14:47:01Z</time></trkpt><trkpt lat="45.52924897240368" lon="10.42404029377102"><ele>170.33333333333331</ele><time>2026-03-31T14:47:03Z</time></trkpt><trkpt lat="45.52927845919252" lon="10.424152776568175"><ele>170.16666666666666</ele><time>2026-03-31T14:47:05Z</time></trkpt><trkpt lat="45.52923854515871" lon="10.424257534695899"><ele>170.0</ele><time>2026-03-31T14:47:07Z</time></trkpt><trkpt lat="45.52917158793461" lon="10.424343456626502"><ele>170.0</ele><time>2026-03-31T14:47:09Z</time></trkpt><trkpt lat="45.529109348206674" lon="10.424459121647123"><ele>170.0</ele><time>2026-03-31T14:47:11Z</time></trkpt><trkpt lat="45.52909583854947" lon="10.424617176100819"><ele>170.0</ele><time>2026-03-31T14:47:13Z</time></trkpt><trkpt lat="45.529157608148225" lon="10.424735183169611"><ele>170.0</ele><time>2026-03-31T14:47:15Z</time></trkpt><trkpt lat="45.529221342844195" lon="10.424845533713311"><ele>170.0</ele><time>2026-03-31T14:47:17Z</time></trkpt><trkpt lat="45.52928717456347" lon="10.424953180376281"><ele>170.0</ele><time>2026-03-31T14:47:19Z</time></trkpt><trkpt lat="45.529350536112325" lon="10.425056782440212"><ele>170.0</ele><time>2026-03-31T14:47:21Z</time></trkpt><trkpt lat="45.529417293866786" lon="10.42516593767819"><ele>170.0</ele><time>2026-03-31T14:47:23Z</time></trkpt><trkpt lat="45.52949399636201" lon="10.42529042900089"><ele>170.0</ele><time>2026-03-31T14:47:25Z</time></trkpt><trkpt lat="45.52956270437493" lon="10.425394680558156"><ele>170.0</ele><time>2026-03-31T14:47:27Z</time></trkpt><trkpt lat="45.52963553536176" lon="10.425501119662517"><ele>170.33333333333331</ele><time>2026-03-31T14:47:29Z</time></trkpt><trkpt lat="45.52970116054143" lon="10.425596787695145"><ele>170.66666666666666</ele><time>2026-03-31T14:47:31Z</time></trkpt><trkpt lat="45.52976403404114" lon="10.42565733002295"><ele>171.0</ele><time>2026-03-31T14:47:33Z</time></trkpt><trkpt lat="45.52982983161597" lon="10.425731018441775"><ele>171.33333333333334</ele><time>2026-03-31T14:47:35Z</time></trkpt><trkpt lat="45.52989344079912" lon="10.425818021626823"><ele>171.66666666666669</ele><time>2026-03-31T14:47:37Z</time></trkpt><trkpt lat="45.52996293960227" lon="10.425906120698855"><ele>172.0</ele><time>2026-03-31T14:47:39Z</time></trkpt><trkpt lat="45.53001759877177" lon="10.425997957769159"><ele>172.0</ele><time>2026-03-31T14:47:41Z</time></trkpt><trkpt lat="45.53006609471596" lon="10.426071880479103"><ele>172.0</ele><time>2026-03-31T14:47:43Z</time></trkpt><trkpt lat="45.53011357751316" lon="10.426159621405958"><ele>172.0</ele><time>2026-03-31T14:47:45Z</time></trkpt><trkpt lat="45.53018909671845" lon="10.42626125790123"><ele>172.0</ele><time>2026-03-31T14:47:47Z</time></trkpt><trkpt lat="45.53027131481595" lon="10.426369251590177"><ele>172.0</ele><time>2026-03-31T14:47:49Z</time></trkpt><trkpt lat="45.530287358869245" lon="10.426459839589885"><ele>172.0</ele><time>2026-03-31T14:47:50Z</time></trkpt><trkpt lat="45.530361085016004" lon="10.426572873458117"><ele>172.2</ele><time>2026-03-31T14:47:52Z</time></trkpt><trkpt lat="45.53043304162955" lon="10.426686867808625"><ele>172.39999999999998</ele><time>2026-03-31T14:47:54Z</time></trkpt><trkpt lat="45.5305016542475" lon="10.426806362581791"><ele>172.60000000000002</ele><time>2026-03-31T14:47:56Z</time></trkpt><trkpt lat="45.53056705198624" lon="10.426931198034929"><ele>172.8</ele><time>2026-03-31T14:47:58Z</time></trkpt><trkpt lat="45.53063147674923" lon="10.427058471402734"><ele>173.0</ele><time>2026-03-31T14:48:00Z</time></trkpt><trkpt lat="45.53069999137591" lon="10.427190430693111"><ele>172.5</ele><time>2026-03-31T14:48:02Z</time></trkpt><trkpt lat="45.53077095226669" lon="10.427326768404368"><ele>172.0</ele><time>2026-03-31T14:48:04Z</time></trkpt><trkpt lat="45.53083921670101" lon="10.427462477446682"><ele>171.5</ele><time>2026-03-31T14:48:06Z</time></trkpt><trkpt lat="45.53090674567926" lon="10.427596724360185"><ele>171.0</ele><time>2026-03-31T14:48:08Z</time></trkpt><trkpt lat="45.53097455074453" lon="10.427726883806312"><ele>171.0</ele><time>2026-03-31T14:48:10Z</time></trkpt><trkpt lat="45.53104214758933" lon="10.427856023777249"><ele>171.0</ele><time>2026-03-31T14:48:12Z</time></trkpt><trkpt lat="45.531111205531396" lon="10.42798812144273"><ele>171.0</ele><time>2026-03-31T14:48:14Z</time></trkpt><trkpt lat="45.53117773787197" lon="10.428116700335531"><ele>171.0</ele><time>2026-03-31T14:48:16Z</time></trkpt><trkpt lat="45.53124856540168" lon="10.428253580047413"><ele>171.75</ele><time>2026-03-31T14:48:18Z</time></trkpt><trkpt lat="45.531313817883515" lon="10.42837968548577"><ele>172.5</ele><time>2026-03-31T14:48:20Z</time></trkpt><trkpt lat="45.53138131418496" lon="10.42851012733006"><ele>173.25</ele><time>2026-03-31T14:48:22Z</time></trkpt><trkpt lat="45.53144892766964" lon="10.428640795620453"><ele>174.0</ele><time>2026-03-31T14:48:24Z</time></trkpt><trkpt lat="45.53151989143338" lon="10.428776594650767"><ele>172.75</ele><time>2026-03-31T14:48:26Z</time></trkpt><trkpt lat="45.53158963945307" lon="10.42890861245334"><ele>171.5</ele><time>2026-03-31T14:48:28Z</time></trkpt><trkpt lat="45.531659884669565" lon="10.429041899789524"><ele>170.25</ele><time>2026-03-31T14:48:30Z</time></trkpt><trkpt lat="45.531729869224456" lon="10.42917485557648"><ele>169.0</ele><time>2026-03-31T14:48:32Z</time></trkpt><trkpt lat="45.53179779704536" lon="10.429307228235974"><ele>169.0</ele><time>2026-03-31T14:48:34Z</time></trkpt><trkpt lat="45.53186309838125" lon="10.429434910530267"><ele>169.0</ele><time>2026-03-31T14:48:36Z</time></trkpt><trkpt lat="45.53193014687555" lon="10.42955959948309"><ele>169.0</ele><time>2026-03-31T14:48:38Z</time></trkpt><trkpt lat="45.53199955171854" lon="10.429683306390706"><ele>169.0</ele><time>2026-03-31T14:48:40Z</time></trkpt><trkpt lat="45.53206872799268" lon="10.429805420884982"><ele>169.0</ele><time>2026-03-31T14:48:42Z</time></trkpt><trkpt lat="45.532139964124205" lon="10.429919569078423"><ele>169.2</ele><time>2026-03-31T14:48:44Z</time></trkpt><trkpt lat="45.53221289726685" lon="10.4300342913292"><ele>169.39999999999998</ele><time>2026-03-31T14:48:46Z</time></trkpt><trkpt lat="45.53227931332958" lon="10.430142121395706"><ele>169.6</ele><time>2026-03-31T14:48:48Z</time></trkpt><trkpt lat="45.532350178609704" lon="10.430258136709119"><ele>169.8</ele><time>2026-03-31T14:48:50Z</time></trkpt><trkpt lat="45.53241795746441" lon="10.43036909910672"><ele>170.0</ele><time>2026-03-31T14:48:52Z</time></trkpt><trkpt lat="45.53248524000436" lon="10.43047924902668"><ele>170.0</ele><time>2026-03-31T14:48:54Z</time></trkpt><trkpt lat="45.53255221030887" lon="10.430588887750021"><ele>170.0</ele><time>2026-03-31T14:48:56Z</time></trkpt><trkpt lat="45.532619793197924" lon="10.430702900286475"><ele>170.0</ele><time>2026-03-31T14:48:58Z</time></trkpt><trkpt lat="45.532684636893066" lon="10.43082065369709"><ele>170.0</ele><time>2026-03-31T14:49:00Z</time></trkpt><trkpt lat="45.53274874616981" lon="10.430939728099885"><ele>170.0</ele><time>2026-03-31T14:49:02Z</time></trkpt><trkpt lat="45.53281484224682" lon="10.431056677510915"><ele>170.0</ele><time>2026-03-31T14:49:04Z</time></trkpt><trkpt lat="45.53287983231629" lon="10.431177832544423"><ele>170.0</ele><time>2026-03-31T14:49:06Z</time></trkpt><trkpt lat="45.53294083089785" lon="10.431293551272304"><ele>170.0</ele><time>2026-03-31T14:49:08Z</time></trkpt><trkpt lat="45.53299903060231" lon="10.431403568845283"><ele>170.0</ele><time>2026-03-31T14:49:10Z</time></trkpt><trkpt lat="45.533059344839785" lon="10.43152560960223"><ele>170.0</ele><time>2026-03-31T14:49:12Z</time></trkpt><trkpt lat="45.53311588288246" lon="10.431639260237166"><ele>170.16666666666666</ele><time>2026-03-31T14:49:14Z</time></trkpt><trkpt lat="45.53316994716213" lon="10.431733833836399"><ele>170.33333333333331</ele><time>2026-03-31T14:49:16Z</time></trkpt><trkpt lat="45.53323939978928" lon="10.431788709014016"><ele>170.5</ele><time>2026-03-31T14:49:18Z</time></trkpt><trkpt lat="45.533282056014585" lon="10.431880339188622"><ele>170.66666666666666</ele><time>2026-03-31T14:49:20Z</time></trkpt><trkpt lat="45.53332913005904" lon="10.431979329919168"><ele>170.83333333333334</ele><time>2026-03-31T14:49:22Z</time></trkpt><trkpt lat="45.53338722683079" lon="10.432082575088033"><ele>171.0</ele><time>2026-03-31T14:49:24Z</time></trkpt><trkpt lat="45.53343928824665" lon="10.43218140780774"><ele>171.0</ele><time>2026-03-31T14:49:26Z</time></trkpt><trkpt lat="45.533485100920004" lon="10.432282076108958"><ele>171.0</ele><time>2026-03-31T14:49:28Z</time></trkpt><trkpt lat="45.5335439536142" lon="10.432377131635528"><ele>171.0</ele><time>2026-03-31T14:49:30Z</time></trkpt><trkpt lat="45.533600898606586" lon="10.432481288644006"><ele>171.0</ele><time>2026-03-31T14:49:32Z</time></trkpt><trkpt lat="45.53366503751981" lon="10.432551828186849"><ele>171.0</ele><time>2026-03-31T14:49:34Z</time></trkpt><trkpt lat="45.53371703492157" lon="10.432631898750298"><ele>171.0</ele><time>2026-03-31T14:49:36Z</time></trkpt><trkpt lat="45.53377755802173" lon="10.432731407021334"><ele>171.0</ele><time>2026-03-31T14:49:38Z</time></trkpt><trkpt lat="45.533830469349525" lon="10.432832578104717"><ele>171.0</ele><time>2026-03-31T14:49:40Z</time></trkpt><trkpt lat="45.53389346478405" lon="10.432933735495263"><ele>171.0</ele><time>2026-03-31T14:49:42Z</time></trkpt><trkpt lat="45.533945013204054" lon="10.433027783825338"><ele>171.0</ele><time>2026-03-31T14:49:44Z</time></trkpt><trkpt lat="45.53400252691015" lon="10.433109421919285"><ele>171.0</ele><time>2026-03-31T14:49:46Z</time></trkpt><trkpt lat="45.53406341759421" lon="10.433200965832796"><ele>171.0</ele><time>2026-03-31T14:49:48Z</time></trkpt><trkpt lat="45.53413302616198" lon="10.43326989420907"><ele>171.0</ele><time>2026-03-31T14:49:50Z</time></trkpt><trkpt lat="45.534211099329234" lon="10.43332357432696"><ele>171.0</ele><time>2026-03-31T14:49:52Z</time></trkpt><trkpt lat="45.53428610742368" lon="10.433352263686325"><ele>171.0</ele><time>2026-03-31T14:49:54Z</time></trkpt><trkpt lat="45.53436086211766" lon="10.433388696612845"><ele>171.0</ele><time>2026-03-31T14:49:56Z</time></trkpt><trkpt lat="45.534441680847884" lon="10.433426584026423"><ele>171.0</ele><time>2026-03-31T14:49:58Z</time></trkpt><trkpt lat="45.53451945395819" lon="10.433472168601309"><ele>171.0</ele><time>2026-03-31T14:50:00Z</time></trkpt><trkpt lat="45.534602755731896" lon="10.433518437540581"><ele>171.0</ele><time>2026-03-31T14:50:02Z</time></trkpt><trkpt lat="45.53467059226919" lon="10.43358730801737"><ele>171.0</ele><time>2026-03-31T14:50:04Z</time></trkpt><trkpt lat="45.53475175895788" lon="10.43364919503818"><ele>171.0</ele><time>2026-03-31T14:50:06Z</time></trkpt><trkpt lat="45.53481110381944" lon="10.433720896704067"><ele>171.0</ele><time>2026-03-31T14:50:08Z</time></trkpt><trkpt lat="45.53486406450838" lon="10.433795199081535"><ele>171.0</ele><time>2026-03-31T14:50:10Z</time></trkpt><trkpt lat="45.534915015360454" lon="10.433871923517627"><ele>171.0</ele><time>2026-03-31T14:50:12Z</time></trkpt><trkpt lat="45.53498107085083" lon="10.433936091763037"><ele>170.5</ele><time>2026-03-31T14:50:14Z</time></trkpt><trkpt lat="45.53502704755656" lon="10.43401049022544"><ele>170.0</ele><time>2026-03-31T14:50:16Z</time></trkpt><trkpt lat="45.5350838931884" lon="10.434084516415144"><ele>169.5</ele><time>2026-03-31T14:50:18Z</time></trkpt><trkpt lat="45.53512552732674" lon="10.434163824307136"><ele>169.0</ele><time>2026-03-31T14:50:20Z</time></trkpt><trkpt lat="45.53518096345162" lon="10.434265047693767"><ele>168.5</ele><time>2026-03-31T14:50:22Z</time></trkpt><trkpt lat="45.5352288441212" lon="10.434359687668746"><ele>168.0</ele><time>2026-03-31T14:50:24Z</time></trkpt><trkpt lat="45.53529190264411" lon="10.434462314283206"><ele>168.0</ele><time>2026-03-31T14:50:26Z</time></trkpt><trkpt lat="45.53534503700644" lon="10.434558650842304"><ele>168.0</ele><time>2026-03-31T14:50:28Z</time></trkpt><trkpt lat="45.535388860543186" lon="10.434642854067652"><ele>168.0</ele><time>2026-03-31T14:50:30Z</time></trkpt><trkpt lat="45.53543142649082" lon="10.434735992477876"><ele>168.0</ele><time>2026-03-31T14:50:32Z</time></trkpt><trkpt lat="45.535475614743326" lon="10.434827434523292"><ele>168.0</ele><time>2026-03-31T14:50:34Z</time></trkpt><trkpt lat="45.53551787996028" lon="10.43490033552518"><ele>168.0</ele><time>2026-03-31T14:50:36Z</time></trkpt><trkpt lat="45.53557892871615" lon="10.434986298010575"><ele>168.14285714285714</ele><time>2026-03-31T14:50:39Z</time></trkpt><trkpt lat="45.53562619146203" lon="10.435068285314333"><ele>168.28571428571428</ele><time>2026-03-31T14:50:41Z</time></trkpt><trkpt lat="45.53566198792784" lon="10.435144928728729"><ele>168.42857142857144</ele><time>2026-03-31T14:50:43Z</time></trkpt><trkpt lat="45.53570706388455" lon="10.435225245933285"><ele>168.57142857142856</ele><time>2026-03-31T14:50:45Z</time></trkpt><trkpt lat="45.535751098654686" lon="10.435299659570253"><ele>168.71428571428572</ele><time>2026-03-31T14:50:47Z</time></trkpt><trkpt lat="45.535790423283615" lon="10.435373737240766"><ele>168.85714285714286</ele><time>2026-03-31T14:50:49Z</time></trkpt><trkpt lat="45.53583251871795" lon="10.435446344308465"><ele>169.0</ele><time>2026-03-31T14:50:51Z</time></trkpt><trkpt lat="45.53588028503775" lon="10.435509863664683"><ele>169.0</ele><time>2026-03-31T14:50:53Z</time></trkpt><trkpt lat="45.53593378412828" lon="10.435572693068632"><ele>169.0</ele><time>2026-03-31T14:50:55Z</time></trkpt><trkpt lat="45.535988295262655" lon="10.435631609952768"><ele>169.0</ele><time>2026-03-31T14:50:57Z</time></trkpt><trkpt lat="45.53606021364868" lon="10.43571370761207"><ele>169.0</ele><time>2026-03-31T14:51:00Z</time></trkpt><trkpt lat="45.536107262249715" lon="10.435774806897038"><ele>169.0</ele><time>2026-03-31T14:51:02Z</time></trkpt><trkpt lat="45.53616252563749" lon="10.435833658744867"><ele>169.0</ele><time>2026-03-31T14:51:04Z</time></trkpt><trkpt lat="45.536214082770805" lon="10.435886308977647"><ele>169.0</ele><time>2026-03-31T14:51:06Z</time></trkpt><trkpt lat="45.53626529693559" lon="10.435943142322317"><ele>169.42857142857144</ele><time>2026-03-31T14:51:08Z</time></trkpt><trkpt lat="45.53631850339206" lon="10.435997313081602"><ele>169.85714285714286</ele><time>2026-03-31T14:51:10Z</time></trkpt><trkpt lat="45.53637239684997" lon="10.436059723857403"><ele>170.28571428571428</ele><time>2026-03-31T14:51:12Z</time></trkpt><trkpt lat="45.53642905279125" lon="10.436114679172956"><ele>170.71428571428572</ele><time>2026-03-31T14:51:14Z</time></trkpt><trkpt lat="45.53648710596216" lon="10.43617548295108"><ele>171.14285714285714</ele><time>2026-03-31T14:51:16Z</time></trkpt><trkpt lat="45.536549274849776" lon="10.436240047199256"><ele>171.57142857142858</ele><time>2026-03-31T14:51:18Z</time></trkpt><trkpt lat="45.536609444198625" lon="10.436294562726761"><ele>172.0</ele><time>2026-03-31T14:51:20Z</time></trkpt><trkpt lat="45.53667186996474" lon="10.436334398370143"><ele>172.00000000000003</ele><time>2026-03-31T14:51:22Z</time></trkpt><trkpt lat="45.53673880294569" lon="10.436378669845492"><ele>172.0</ele><time>2026-03-31T14:51:24Z</time></trkpt><trkpt lat="45.53680079174298" lon="10.436420137423516"><ele>172.0</ele><time>2026-03-31T14:51:26Z</time></trkpt><trkpt lat="45.53686338845242" lon="10.436460298150202"><ele>172.0</ele><time>2026-03-31T14:51:28Z</time></trkpt><trkpt lat="45.53692788525184" lon="10.43649176140071"><ele>172.0</ele><time>2026-03-31T14:51:30Z</time></trkpt><trkpt lat="45.53699231669353" lon="10.436527411457869"><ele>172.00000000000003</ele><time>2026-03-31T14:51:32Z</time></trkpt><trkpt lat="45.53706004132205" lon="10.436570262502178"><ele>172.0</ele><time>2026-03-31T14:51:34Z</time></trkpt><trkpt lat="45.53712458922503" lon="10.436612114454865"><ele>172.2857142857143</ele><time>2026-03-31T14:51:36Z</time></trkpt><trkpt lat="45.537195984413884" lon="10.43664891727281"><ele>172.57142857142858</ele><time>2026-03-31T14:51:38Z</time></trkpt><trkpt lat="45.53726855516945" lon="10.436680016556007"><ele>172.85714285714286</ele><time>2026-03-31T14:51:40Z</time></trkpt><trkpt lat="45.53733386117304" lon="10.436724091886806"><ele>173.14285714285717</ele><time>2026-03-31T14:51:42Z</time></trkpt><trkpt lat="45.53740025077883" lon="10.436760883023302"><ele>173.42857142857144</ele><time>2026-03-31T14:51:44Z</time></trkpt><trkpt lat="45.53746711924436" lon="10.436795516137167"><ele>173.71428571428572</ele><time>2026-03-31T14:51:46Z</time></trkpt><trkpt lat="45.537535938783684" lon="10.43679820935886"><ele>174.0</ele><time>2026-03-31T14:51:48Z</time></trkpt><trkpt lat="45.53760372961683" lon="10.43681657660156"><ele>174.0</ele><time>2026-03-31T14:51:50Z</time></trkpt><trkpt lat="45.5376745874892" lon="10.436834332174028"><ele>174.0</ele><time>2026-03-31T14:51:52Z</time></trkpt><trkpt lat="45.537748111611045" lon="10.43685318622429"><ele>174.0</ele><time>2026-03-31T14:51:54Z</time></trkpt><trkpt lat="45.53782077749769" lon="10.436860372214872"><ele>174.0</ele><time>2026-03-31T14:51:56Z</time></trkpt><trkpt lat="45.53789663763546" lon="10.436869308384122"><ele>174.0</ele><time>2026-03-31T14:51:58Z</time></trkpt><trkpt lat="45.53797417450297" lon="10.43687306206675"><ele>174.0</ele><time>2026-03-31T14:52:00Z</time></trkpt><trkpt lat="45.53805109235882" lon="10.436878058355843"><ele>174.16666666666666</ele><time>2026-03-31T14:52:02Z</time></trkpt><trkpt lat="45.538132564759614" lon="10.436875616009035"><ele>174.33333333333334</ele><time>2026-03-31T14:52:04Z</time></trkpt><trkpt lat="45.538212389104565" lon="10.436883112983356"><ele>174.5</ele><time>2026-03-31T14:52:06Z</time></trkpt><trkpt lat="45.538295523257226" lon="10.436886714111841"><ele>174.66666666666669</ele><time>2026-03-31T14:52:08Z</time></trkpt><trkpt lat="45.53837882836548" lon="10.436888326732072"><ele>174.83333333333334</ele><time>2026-03-31T14:52:10Z</time></trkpt><trkpt lat="45.53846481721863" lon="10.436888584887003"><ele>175.0</ele><time>2026-03-31T14:52:12Z</time></trkpt><trkpt lat="45.53854452656895" lon="10.436890865410884"><ele>175.0</ele><time>2026-03-31T14:52:14Z</time></trkpt><trkpt lat="45.538616681877556" lon="10.436895522387527"><ele>175.0</ele><time>2026-03-31T14:52:16Z</time></trkpt><trkpt lat="45.5386821284379" lon="10.436898674821665"><ele>175.0</ele><time>2026-03-31T14:52:18Z</time></trkpt><trkpt lat="45.53877728800076" lon="10.43685069714095"><ele>175.0</ele><time>2026-03-31T14:52:21Z</time></trkpt><trkpt lat="45.5388550451492" lon="10.436815388327851"><ele>175.0</ele><time>2026-03-31T14:52:23Z</time></trkpt><trkpt lat="45.538916252079716" lon="10.436771101883092"><ele>175.0</ele><time>2026-03-31T14:52:25Z</time></trkpt><trkpt lat="45.53897413297798" lon="10.436705081302025"><ele>174.83333333333334</ele><time>2026-03-31T14:52:27Z</time></trkpt><trkpt lat="45.53902720815618" lon="10.43663416017715"><ele>174.66666666666669</ele><time>2026-03-31T14:52:29Z</time></trkpt><trkpt lat="45.53908874059495" lon="10.436576906793933"><ele>174.5</ele><time>2026-03-31T14:52:31Z</time></trkpt><trkpt lat="45.53915459402427" lon="10.436544751738522"><ele>174.33333333333334</ele><time>2026-03-31T14:52:33Z</time></trkpt><trkpt lat="45.539221604962854" lon="10.436515473386002"><ele>174.16666666666666</ele><time>2026-03-31T14:52:35Z</time></trkpt><trkpt lat="45.539298714926915" lon="10.436483755214681"><ele>174.0</ele><time>2026-03-31T14:52:37Z</time></trkpt><trkpt lat="45.539378633186644" lon="10.436445243024998"><ele>174.0</ele><time>2026-03-31T14:52:39Z</time></trkpt><trkpt lat="45.53945916465587" lon="10.436409220822322"><ele>174.0</ele><time>2026-03-31T14:52:41Z</time></trkpt><trkpt lat="45.53953458139925" lon="10.436380423526868"><ele>174.0</ele><time>2026-03-31T14:52:43Z</time></trkpt><trkpt lat="45.53961346828551" lon="10.436352572123582"><ele>174.0</ele><time>2026-03-31T14:52:45Z</time></trkpt><trkpt lat="45.53969682768478" lon="10.43632057593954"><ele>174.0</ele><time>2026-03-31T14:52:47Z</time></trkpt><trkpt lat="45.539769581786324" lon="10.43628634222673"><ele>174.0</ele><time>2026-03-31T14:52:49Z</time></trkpt><trkpt lat="45.53983855847669" lon="10.436278981721676"><ele>174.57142857142856</ele><time>2026-03-31T14:52:51Z</time></trkpt><trkpt lat="45.539914642329585" lon="10.43626250541474"><ele>175.14285714285714</ele><time>2026-03-31T14:52:53Z</time></trkpt><trkpt lat="45.53998511952333" lon="10.43625105004293"><ele>175.71428571428572</ele><time>2026-03-31T14:52:55Z</time></trkpt><trkpt lat="45.54004987610638" lon="10.436223577122437"><ele>176.28571428571428</ele><time>2026-03-31T14:52:57Z</time></trkpt><trkpt lat="45.540116884476554" lon="10.436199391189163"><ele>176.85714285714286</ele><time>2026-03-31T14:52:59Z</time></trkpt><trkpt lat="45.5401938997001" lon="10.436181471520898"><ele>177.42857142857142</ele><time>2026-03-31T14:53:01Z</time></trkpt><trkpt lat="45.54026910295969" lon="10.436156533056252"><ele>178.0</ele><time>2026-03-31T14:53:03Z</time></trkpt><trkpt lat="45.540355986590235" lon="10.436132888174997"><ele>177.66666666666669</ele><time>2026-03-31T14:53:05Z</time></trkpt><trkpt lat="45.54043779972302" lon="10.436100968063462"><ele>177.33333333333334</ele><time>2026-03-31T14:53:07Z</time></trkpt><trkpt lat="45.54051817745712" lon="10.436081517690154"><ele>177.0</ele><time>2026-03-31T14:53:09Z</time></trkpt><trkpt lat="45.54058858650079" lon="10.436069483636418"><ele>176.66666666666666</ele><time>2026-03-31T14:53:11Z</time></trkpt><trkpt lat="45.540657053437364" lon="10.436063648625955"><ele>176.33333333333331</ele><time>2026-03-31T14:53:13Z</time></trkpt><trkpt lat="45.54073539776203" lon="10.43606330716691"><ele>176.0</ele><time>2026-03-31T14:53:15Z</time></trkpt><trkpt lat="45.54083044260377" lon="10.436045128525828"><ele>176.0</ele><time>2026-03-31T14:53:17Z</time></trkpt><trkpt lat="45.54092029638014" lon="10.436037134608936"><ele>176.0</ele><time>2026-03-31T14:53:19Z</time></trkpt><trkpt lat="45.540997705301045" lon="10.436037720924435"><ele>176.0</ele><time>2026-03-31T14:53:21Z</time></trkpt><trkpt lat="45.54106297730746" lon="10.43596850579248"><ele>176.0</ele><time>2026-03-31T14:53:24Z</time></trkpt><trkpt lat="45.54108125223978" lon="10.435851185748465"><ele>176.0</ele><time>2026-03-31T14:53:27Z</time></trkpt><trkpt lat="45.54114729149259" lon="10.435792205339313"><ele>176.0</ele><time>2026-03-31T14:53:30Z</time></trkpt><trkpt lat="45.54121369983943" lon="10.435759661553531"><ele>176.16666666666666</ele><time>2026-03-31T14:53:33Z</time></trkpt><trkpt lat="45.54130406239374" lon="10.435744961494747"><ele>176.33333333333331</ele><time>2026-03-31T14:53:36Z</time></trkpt><trkpt lat="45.54136848631012" lon="10.43575243112688"><ele>176.5</ele><time>2026-03-31T14:53:38Z</time></trkpt><trkpt lat="45.54144468842347" lon="10.435764533420565"><ele>176.66666666666666</ele><time>2026-03-31T14:53:41Z</time></trkpt><trkpt lat="45.54152561097239" lon="10.435776724178258"><ele>176.83333333333334</ele><time>2026-03-31T14:53:44Z</time></trkpt><trkpt lat="45.54160878953457" lon="10.435789056587288"><ele>177.0</ele><time>2026-03-31T14:53:47Z</time></trkpt><trkpt lat="45.54167497095504" lon="10.435788906627598"><ele>177.0</ele><time>2026-03-31T14:53:49Z</time></trkpt><trkpt lat="45.54174264621888" lon="10.435795100872568"><ele>177.0</ele><time>2026-03-31T14:53:51Z</time></trkpt><trkpt lat="45.54183902078377" lon="10.435786602104294"><ele>177.0</ele><time>2026-03-31T14:53:54Z</time></trkpt><trkpt lat="45.541914880175" lon="10.435780846406168"><ele>177.0</ele><time>2026-03-31T14:53:56Z</time></trkpt><trkpt lat="45.54198383569243" lon="10.435773415113903"><ele>177.0</ele><time>2026-03-31T14:53:58Z</time></trkpt><trkpt lat="45.542048851131035" lon="10.435751264709857"><ele>177.0</ele><time>2026-03-31T14:54:00Z</time></trkpt><trkpt lat="45.54211698638603" lon="10.435751893383244"><ele>177.0</ele><time>2026-03-31T14:54:02Z</time></trkpt><trkpt lat="45.54219001331318" lon="10.435731543050938"><ele>177.14285714285714</ele><time>2026-03-31T14:54:04Z</time></trkpt><trkpt lat="45.54226247136032" lon="10.435721313236714"><ele>177.28571428571428</ele><time>2026-03-31T14:54:06Z</time></trkpt><trkpt lat="45.542334033551704" lon="10.435711063008032"><ele>177.42857142857142</ele><time>2026-03-31T14:54:08Z</time></trkpt><trkpt lat="45.5424081394304" lon="10.435701970743887"><ele>177.57142857142856</ele><time>2026-03-31T14:54:10Z</time></trkpt><trkpt lat="45.5424799561008" lon="10.435690905395134"><ele>177.71428571428572</ele><time>2026-03-31T14:54:12Z</time></trkpt><trkpt lat="45.542550976045106" lon="10.435670793927216"><ele>177.85714285714283</ele><time>2026-03-31T14:54:14Z</time></trkpt><trkpt lat="45.54262800395208" lon="10.435653507136903"><ele>178.0</ele><time>2026-03-31T14:54:16Z</time></trkpt><trkpt lat="45.542703561857756" lon="10.435642791673317"><ele>177.99999999999997</ele><time>2026-03-31T14:54:18Z</time></trkpt><trkpt lat="45.542776573784955" lon="10.435624533871941"><ele>178.0</ele><time>2026-03-31T14:54:20Z</time></trkpt><trkpt lat="45.542835008217956" lon="10.435583708865034"><ele>178.0</ele><time>2026-03-31T14:54:22Z</time></trkpt><trkpt lat="45.54288722712707" lon="10.4355308208494"><ele>178.0</ele><time>2026-03-31T14:54:24Z</time></trkpt><trkpt lat="45.54294348747917" lon="10.435479377834268"><ele>178.0</ele><time>2026-03-31T14:54:26Z</time></trkpt><trkpt lat="45.54300226057717" lon="10.435443860388125"><ele>177.99999999999997</ele><time>2026-03-31T14:54:28Z</time></trkpt><trkpt lat="45.54304866329853" lon="10.435535550182054"><ele>178.0</ele><time>2026-03-31T14:54:30Z</time></trkpt><trkpt lat="45.54312437409422" lon="10.43556950085564"><ele>179.5</ele><time>2026-03-31T14:54:32Z</time></trkpt><trkpt lat="45.54313637951604" lon="10.435168572864244"><ele>181.0</ele><time>2026-03-31T14:54:36Z</time></trkpt><trkpt lat="45.54311321397736" lon="10.435072612475428"><ele>182.5</ele><time>2026-03-31T14:54:38Z</time></trkpt><trkpt lat="45.543088319675775" lon="10.434976846649677"><ele>184.0</ele><time>2026-03-31T14:54:40Z</time></trkpt><trkpt lat="45.543066516376804" lon="10.43483939728006"><ele>184.0</ele><time>2026-03-31T14:54:43Z</time></trkpt><trkpt lat="45.543037596108924" lon="10.43473161490131"><ele>184.0</ele><time>2026-03-31T14:54:45Z</time></trkpt><trkpt lat="45.54300833714376" lon="10.434640583118343"><ele>184.0</ele><time>2026-03-31T14:54:47Z</time></trkpt><trkpt lat="45.54297794857716" lon="10.434538466791322"><ele>184.0</ele><time>2026-03-31T14:54:49Z</time></trkpt><trkpt lat="45.54294238975917" lon="10.434430686020274"><ele>184.0</ele><time>2026-03-31T14:54:52Z</time></trkpt><trkpt lat="45.54291167824524" lon="10.43431394055767"><ele>184.0</ele><time>2026-03-31T14:54:55Z</time></trkpt><trkpt lat="45.542891391597834" lon="10.434206974454545"><ele>184.33333333333334</ele><time>2026-03-31T14:54:57Z</time></trkpt><trkpt lat="45.54288270246299" lon="10.434103757815938"><ele>184.66666666666669</ele><time>2026-03-31T14:54:59Z</time></trkpt><trkpt lat="45.54287915788023" lon="10.434009329301642"><ele>185.0</ele><time>2026-03-31T14:55:01Z</time></trkpt><trkpt lat="45.54287749860934" lon="10.433894561482722"><ele>185.33333333333334</ele><time>2026-03-31T14:55:03Z</time></trkpt><trkpt lat="45.542873364331236" lon="10.433780304253267"><ele>185.66666666666666</ele><time>2026-03-31T14:55:05Z</time></trkpt><trkpt lat="45.542868582327976" lon="10.433690121629141"><ele>186.0</ele><time>2026-03-31T14:55:07Z</time></trkpt><trkpt lat="45.54286447459435" lon="10.433564300170039"><ele>186.16666666666666</ele><time>2026-03-31T14:55:10Z</time></trkpt><trkpt lat="45.54285987549865" lon="10.433441571280596"><ele>186.33333333333334</ele><time>2026-03-31T14:55:13Z</time></trkpt><trkpt lat="45.542868082106885" lon="10.433341113226573"><ele>186.5</ele><time>2026-03-31T14:55:15Z</time></trkpt><trkpt lat="45.542875274536975" lon="10.4332504192642"><ele>186.66666666666669</ele><time>2026-03-31T14:55:17Z</time></trkpt><trkpt lat="45.54289115531449" lon="10.433144552968034"><ele>186.83333333333334</ele><time>2026-03-31T14:55:19Z</time></trkpt><trkpt lat="45.54292246394055" lon="10.433035639672433"><ele>187.0</ele><time>2026-03-31T14:55:21Z</time></trkpt><trkpt lat="45.54294612378726" lon="10.43293290020726"><ele>187.0</ele><time>2026-03-31T14:55:23Z</time></trkpt><trkpt lat="45.542984553203176" lon="10.432831826168776"><ele>187.0</ele><time>2026-03-31T14:55:25Z</time></trkpt><trkpt lat="45.543020829283826" lon="10.432738412514158"><ele>187.0</ele><time>2026-03-31T14:55:27Z</time></trkpt><trkpt lat="45.54305131713772" lon="10.43263817881816"><ele>187.0</ele><time>2026-03-31T14:55:29Z</time></trkpt><trkpt lat="45.5430848594184" lon="10.432539322163596"><ele>187.0</ele><time>2026-03-31T14:55:31Z</time></trkpt><trkpt lat="45.54311273688483" lon="10.432447789034715"><ele>187.0</ele><time>2026-03-31T14:55:33Z</time></trkpt><trkpt lat="45.54313693566487" lon="10.43234529822978"><ele>187.0</ele><time>2026-03-31T14:55:35Z</time></trkpt><trkpt lat="45.54314096664503" lon="10.432251318070088"><ele>187.0</ele><time>2026-03-31T14:55:37Z</time></trkpt><trkpt lat="45.54322510381451" lon="10.432185497318645"><ele>187.0</ele><time>2026-03-31T14:55:39Z</time></trkpt><trkpt lat="45.54327345806208" lon="10.432093129919116"><ele>187.0</ele><time>2026-03-31T14:55:41Z</time></trkpt><trkpt lat="45.54332225401564" lon="10.432010752097993"><ele>187.0</ele><time>2026-03-31T14:55:43Z</time></trkpt><trkpt lat="45.54335795010789" lon="10.431912724332932"><ele>187.0</ele><time>2026-03-31T14:55:45Z</time></trkpt><trkpt lat="45.543399596564996" lon="10.431811145443978"><ele>186.5</ele><time>2026-03-31T14:55:47Z</time></trkpt><trkpt lat="45.54344132092766" lon="10.431710262163323"><ele>186.0</ele><time>2026-03-31T14:55:49Z</time></trkpt><trkpt lat="45.54347895160923" lon="10.431605164645326"><ele>185.5</ele><time>2026-03-31T14:55:51Z</time></trkpt><trkpt lat="45.54351657296955" lon="10.431498448712249"><ele>185.0</ele><time>2026-03-31T14:55:53Z</time></trkpt><trkpt lat="45.5435513856277" lon="10.43138694973113"><ele>184.5</ele><time>2026-03-31T14:55:55Z</time></trkpt><trkpt lat="45.54358929383562" lon="10.431275828317077"><ele>184.0</ele><time>2026-03-31T14:55:57Z</time></trkpt><trkpt lat="45.54363374690867" lon="10.431168546059775"><ele>184.0</ele><time>2026-03-31T14:55:59Z</time></trkpt><trkpt lat="45.54368428340208" lon="10.431068940919737"><ele>184.0</ele><time>2026-03-31T14:56:01Z</time></trkpt><trkpt lat="45.54372875047796" lon="10.43096758987331"><ele>184.0</ele><time>2026-03-31T14:56:03Z</time></trkpt><trkpt lat="45.543779432070245" lon="10.430871233599573"><ele>184.0</ele><time>2026-03-31T14:56:05Z</time></trkpt><trkpt lat="45.543829545210805" lon="10.430774801787711"><ele>184.0</ele><time>2026-03-31T14:56:07Z</time></trkpt><trkpt lat="45.54387524102165" lon="10.430681693063704"><ele>184.0</ele><time>2026-03-31T14:56:09Z</time></trkpt><trkpt lat="45.543924180609466" lon="10.43058048331714"><ele>184.16666666666669</ele><time>2026-03-31T14:56:11Z</time></trkpt><trkpt lat="45.543979732848065" lon="10.43049128126285"><ele>184.33333333333334</ele><time>2026-03-31T14:56:13Z</time></trkpt><trkpt lat="45.54404563130134" lon="10.430406578262087"><ele>184.5</ele><time>2026-03-31T14:56:15Z</time></trkpt><trkpt lat="45.54411356540917" lon="10.430330285402658"><ele>184.66666666666666</ele><time>2026-03-31T14:56:17Z</time></trkpt><trkpt lat="45.54418358607983" lon="10.43026158140036"><ele>184.83333333333331</ele><time>2026-03-31T14:56:19Z</time></trkpt><trkpt lat="45.544252584057645" lon="10.430188974759416"><ele>185.0</ele><time>2026-03-31T14:56:21Z</time></trkpt><trkpt lat="45.54432212458945" lon="10.430113348163845"><ele>185.0</ele><time>2026-03-31T14:56:23Z</time></trkpt><trkpt lat="45.54439559845034" lon="10.430045662676495"><ele>185.0</ele><time>2026-03-31T14:56:25Z</time></trkpt><trkpt lat="45.54446233174277" lon="10.42996481099807"><ele>185.0</ele><time>2026-03-31T14:56:27Z</time></trkpt><trkpt lat="45.54452466279058" lon="10.429876962244654"><ele>185.0</ele><time>2026-03-31T14:56:29Z</time></trkpt><trkpt lat="45.54458388169998" lon="10.42978341657357"><ele>185.0</ele><time>2026-03-31T14:56:31Z</time></trkpt><trkpt lat="45.54464102104389" lon="10.429692248950685"><ele>185.0</ele><time>2026-03-31T14:56:33Z</time></trkpt><trkpt lat="45.544691943991836" lon="10.429594285991138"><ele>185.5</ele><time>2026-03-31T14:56:35Z</time></trkpt><trkpt lat="45.544736277387834" lon="10.42948942127771"><ele>186.0</ele><time>2026-03-31T14:56:37Z</time></trkpt><trkpt lat="45.5447817474484" lon="10.42938927175042"><ele>186.5</ele><time>2026-03-31T14:56:39Z</time></trkpt><trkpt lat="45.54482934169937" lon="10.429292516069363"><ele>187.0</ele><time>2026-03-31T14:56:41Z</time></trkpt><trkpt lat="45.54488508263735" lon="10.429206619267692"><ele>187.5</ele><time>2026-03-31T14:56:43Z</time></trkpt><trkpt lat="45.54494037448203" lon="10.42912478408991"><ele>188.0</ele><time>2026-03-31T14:56:45Z</time></trkpt><trkpt lat="45.54500509729079" lon="10.429054410081232"><ele>188.0</ele><time>2026-03-31T14:56:47Z</time></trkpt><trkpt lat="45.5450879892545" lon="10.429000125086512"><ele>188.0</ele><time>2026-03-31T14:56:49Z</time></trkpt><trkpt lat="45.54517332749969" lon="10.428952936490807"><ele>188.0</ele><time>2026-03-31T14:56:51Z</time></trkpt><trkpt lat="45.54526029819103" lon="10.42891179486989"><ele>188.0</ele><time>2026-03-31T14:56:53Z</time></trkpt><trkpt lat="45.54534807749244" lon="10.428873196684085"><ele>188.0</ele><time>2026-03-31T14:56:55Z</time></trkpt><trkpt lat="45.54543676375899" lon="10.428816313473693"><ele>188.16666666666666</ele><time>2026-03-31T14:56:57Z</time></trkpt><trkpt lat="45.545529932401095" lon="10.428767724269747"><ele>188.33333333333331</ele><time>2026-03-31T14:56:59Z</time></trkpt><trkpt lat="45.54562285603861" lon="10.428763522518196"><ele>188.5</ele><time>2026-03-31T14:57:01Z</time></trkpt><trkpt lat="45.54571302844281" lon="10.428792082471224"><ele>188.66666666666666</ele><time>2026-03-31T14:57:03Z</time></trkpt><trkpt lat="45.545792056645276" lon="10.428821080708554"><ele>188.83333333333334</ele><time>2026-03-31T14:57:05Z</time></trkpt><trkpt lat="45.545864941857786" lon="10.428846263585312"><ele>189.0</ele><time>2026-03-31T14:57:07Z</time></trkpt><trkpt lat="45.54592809397515" lon="10.428873390562071"><ele>189.0</ele><time>2026-03-31T14:57:09Z</time></trkpt><trkpt lat="45.5459925241006" lon="10.428919763173981"><ele>189.0</ele><time>2026-03-31T14:57:14Z</time></trkpt><trkpt lat="45.54605613182744" lon="10.428776688025499"><ele>189.0</ele><time>2026-03-31T14:57:16Z</time></trkpt><trkpt lat="45.54607884557015" lon="10.428638990348908"><ele>189.0</ele><time>2026-03-31T14:57:18Z</time></trkpt><trkpt lat="45.54611771744068" lon="10.428502188827672"><ele>189.0</ele><time>2026-03-31T14:57:20Z</time></trkpt><trkpt lat="45.54616227091548" lon="10.428356535326389"><ele>189.0</ele><time>2026-03-31T14:57:22Z</time></trkpt><trkpt lat="45.54621042809916" lon="10.428206871454742"><ele>189.0</ele><time>2026-03-31T14:57:24Z</time></trkpt><trkpt lat="45.546269310101906" lon="10.428061310465063"><ele>189.0</ele><time>2026-03-31T14:57:26Z</time></trkpt><trkpt lat="45.54633638866039" lon="10.427925913771157"><ele>189.0</ele><time>2026-03-31T14:57:28Z</time></trkpt><trkpt lat="45.54640454924862" lon="10.427789408879672"><ele>189.39999999999998</ele><time>2026-03-31T14:57:30Z</time></trkpt><trkpt lat="45.54647364528805" lon="10.427655737533017"><ele>189.8</ele><time>2026-03-31T14:57:32Z</time></trkpt><trkpt lat="45.546544053058334" lon="10.427529550586748"><ele>190.2</ele><time>2026-03-31T14:57:34Z</time></trkpt><trkpt lat="45.54661053437406" lon="10.427407505402"><ele>190.60000000000002</ele><time>2026-03-31T14:57:36Z</time></trkpt><trkpt lat="45.546671849222164" lon="10.427289089565592"><ele>191.0</ele><time>2026-03-31T14:57:38Z</time></trkpt><trkpt lat="45.54673056581248" lon="10.427185711316904"><ele>190.66666666666666</ele><time>2026-03-31T14:57:40Z</time></trkpt><trkpt lat="45.546771688885826" lon="10.42710795408628"><ele>190.33333333333331</ele><time>2026-03-31T14:57:42Z</time></trkpt><trkpt lat="45.546821204326925" lon="10.427005819749406"><ele>190.0</ele><time>2026-03-31T14:57:45Z</time></trkpt><trkpt lat="45.546833037561015" lon="10.426888168279614"><ele>189.66666666666666</ele><time>2026-03-31T14:57:49Z</time></trkpt><trkpt lat="45.54688686944601" lon="10.426806605474606"><ele>189.33333333333334</ele><time>2026-03-31T14:57:52Z</time></trkpt><trkpt lat="45.54687357642041" lon="10.42669792256937"><ele>189.0</ele><time>2026-03-31T14:57:56Z</time></trkpt><trkpt lat="45.546860543618806" lon="10.426432853152455"><ele>189.0</ele><time>2026-03-31T14:57:57Z</time></trkpt><trkpt lat="45.546830565208374" lon="10.426335351014872"><ele>189.0</ele><time>2026-03-31T14:57:59Z</time></trkpt><trkpt lat="45.54620774784803" lon="10.42642487413584"><ele>189.0</ele><time>2026-03-31T14:58:04Z</time></trkpt><trkpt lat="45.546109557486794" lon="10.426347305629868"><ele>189.0</ele><time>2026-03-31T14:58:06Z</time></trkpt><trkpt lat="45.54601197619193" lon="10.426267787204898"><ele>189.0</ele><time>2026-03-31T14:58:08Z</time></trkpt><trkpt lat="45.54591027075989" lon="10.426187965888381"><ele>189.0</ele><time>2026-03-31T14:58:10Z</time></trkpt><trkpt lat="45.54580759605248" lon="10.426103456318923"><ele>189.0</ele><time>2026-03-31T14:58:12Z</time></trkpt><trkpt lat="45.545703187228554" lon="10.426020990897035"><ele>189.0</ele><time>2026-03-31T14:58:14Z</time></trkpt><trkpt lat="45.54560136499992" lon="10.425941125854772"><ele>189.0</ele><time>2026-03-31T14:58:16Z</time></trkpt><trkpt lat="45.5454985190995" lon="10.425853464338736"><ele>189.0</ele><time>2026-03-31T14:58:18Z</time></trkpt><trkpt lat="45.54539748126561" lon="10.425765851829352"><ele>188.2</ele><time>2026-03-31T14:58:20Z</time></trkpt><trkpt lat="45.54534297322344" lon="10.425720296751969"><ele>187.39999999999998</ele><time>2026-03-31T14:58:21Z</time></trkpt><trkpt lat="45.54523663975253" lon="10.425645134657339"><ele>186.6</ele><time>2026-03-31T14:58:23Z</time></trkpt><trkpt lat="45.54513157470525" lon="10.425554999099356"><ele>185.8</ele><time>2026-03-31T14:58:25Z</time></trkpt><trkpt lat="45.54502517642108" lon="10.425464301277175"><ele>185.0</ele><time>2026-03-31T14:58:27Z</time></trkpt><trkpt lat="45.544920006437046" lon="10.425378779449929"><ele>184.99999999999997</ele><time>2026-03-31T14:58:29Z</time></trkpt><trkpt lat="45.54486474870643" lon="10.42533500291424"><ele>185.0</ele><time>2026-03-31T14:58:30Z</time></trkpt><trkpt lat="45.544808462071146" lon="10.425289052394291"><ele>185.0</ele><time>2026-03-31T14:58:31Z</time></trkpt><trkpt lat="45.544752211503805" lon="10.425247268438646"><ele>185.0</ele><time>2026-03-31T14:58:32Z</time></trkpt><trkpt lat="45.544643199590126" lon="10.425154889211099"><ele>185.0</ele><time>2026-03-31T14:58:34Z</time></trkpt><trkpt lat="45.544587181234014" lon="10.425109286628702"><ele>184.99999999999997</ele><time>2026-03-31T14:58:35Z</time></trkpt><trkpt lat="45.544531887006684" lon="10.425061750535141"><ele>185.0</ele><time>2026-03-31T14:58:36Z</time></trkpt><trkpt lat="45.54447653518937" lon="10.425016841146823"><ele>185.0</ele><time>2026-03-31T14:58:37Z</time></trkpt><trkpt lat="45.54441973005655" lon="10.424968978612688"><ele>185.0</ele><time>2026-03-31T14:58:38Z</time></trkpt><trkpt lat="45.54431131955617" lon="10.424890354702885"><ele>185.0</ele><time>2026-03-31T14:58:40Z</time></trkpt><trkpt lat="45.54425774030149" lon="10.424842152651506"><ele>185.0</ele><time>2026-03-31T14:58:41Z</time></trkpt><trkpt lat="45.544201407565886" lon="10.424796808298312"><ele>185.0</ele><time>2026-03-31T14:58:42Z</time></trkpt><trkpt lat="45.544090382189545" lon="10.424709847625296"><ele>185.0</ele><time>2026-03-31T14:58:44Z</time></trkpt><trkpt lat="45.54403410683138" lon="10.424663509177943"><ele>184.83333333333331</ele><time>2026-03-31T14:58:45Z</time></trkpt><trkpt lat="45.543977543663246" lon="10.424619983885544"><ele>184.66666666666666</ele><time>2026-03-31T14:58:46Z</time></trkpt><trkpt lat="45.54392169905904" lon="10.424575414180108"><ele>184.5</ele><time>2026-03-31T14:58:47Z</time></trkpt><trkpt lat="45.54386684519288" lon="10.424524733641816"><ele>184.33333333333334</ele><time>2026-03-31T14:58:48Z</time></trkpt><trkpt lat="45.54380860431824" lon="10.424479530275882"><ele>184.16666666666669</ele><time>2026-03-31T14:58:49Z</time></trkpt><trkpt lat="45.543666732451264" lon="10.424576364771438"><ele>184.0</ele><time>2026-03-31T14:58:50Z</time></trkpt><trkpt lat="45.543615840674036" lon="10.42451719529067"><ele>183.6</ele><time>2026-03-31T14:58:51Z</time></trkpt><trkpt lat="45.543519911933274" lon="10.424405663460949"><ele>183.2</ele><time>2026-03-31T14:58:53Z</time></trkpt><trkpt lat="45.543424174991536" lon="10.424294354624267"><ele>182.79999999999998</ele><time>2026-03-31T14:58:55Z</time></trkpt><trkpt lat="45.54332854680507" lon="10.424183172233347"><ele>182.39999999999998</ele><time>2026-03-31T14:58:57Z</time></trkpt><trkpt lat="45.54327815665941" lon="10.424124206305024"><ele>182.0</ele><time>2026-03-31T14:58:58Z</time></trkpt><trkpt lat="45.543180711947635" lon="10.424010118053936"><ele>182.0</ele><time>2026-03-31T14:59:00Z</time></trkpt><trkpt lat="45.543086242351556" lon="10.423899513055543"><ele>182.0</ele><time>2026-03-31T14:59:02Z</time></trkpt><trkpt lat="45.54299961168656" lon="10.423798085886034"><ele>182.0</ele><time>2026-03-31T14:59:04Z</time></trkpt><trkpt lat="45.54291116877638" lon="10.42369453693886"><ele>182.0</ele><time>2026-03-31T14:59:06Z</time></trkpt><trkpt lat="45.54281442782239" lon="10.423581272642878"><ele>182.28571428571428</ele><time>2026-03-31T14:59:08Z</time></trkpt><trkpt lat="45.54276530180183" lon="10.423523755900115"><ele>182.57142857142856</ele><time>2026-03-31T14:59:09Z</time></trkpt><trkpt lat="45.542715709413415" lon="10.423465693128595"><ele>182.85714285714286</ele><time>2026-03-31T14:59:10Z</time></trkpt><trkpt lat="45.54266453229295" lon="10.423405774963438"><ele>183.14285714285714</ele><time>2026-03-31T14:59:11Z</time></trkpt><trkpt lat="45.54261393378084" lon="10.423346534229156"><ele>183.42857142857142</ele><time>2026-03-31T14:59:12Z</time></trkpt><trkpt lat="45.54256351287569" lon="10.423287501436754"><ele>183.71428571428572</ele><time>2026-03-31T14:59:13Z</time></trkpt><trkpt lat="45.54251206576741" lon="10.423227024069115"><ele>184.0</ele><time>2026-03-31T14:59:14Z</time></trkpt><trkpt lat="45.54246115645638" lon="10.423166574339366"><ele>184.0</ele><time>2026-03-31T14:59:15Z</time></trkpt><trkpt lat="45.54241124630611" lon="10.423107311021022"><ele>184.0</ele><time>2026-03-31T14:59:16Z</time></trkpt><trkpt lat="45.542359977574044" lon="10.423046434517516"><ele>184.0</ele><time>2026-03-31T14:59:17Z</time></trkpt><trkpt lat="45.54230974878025" lon="10.422985524039365"><ele>184.0</ele><time>2026-03-31T14:59:18Z</time></trkpt><trkpt lat="45.54226023061209" lon="10.4229248653351"><ele>184.0</ele><time>2026-03-31T14:59:19Z</time></trkpt><trkpt lat="45.542207919354325" lon="10.422860785157804"><ele>184.0</ele><time>2026-03-31T14:59:20Z</time></trkpt><trkpt lat="45.542158162854484" lon="10.422799959289256"><ele>184.0</ele><time>2026-03-31T14:59:21Z</time></trkpt><trkpt lat="45.5420648414752" lon="10.422686209387294"><ele>183.75</ele><time>2026-03-31T14:59:23Z</time></trkpt><trkpt lat="45.541972502337465" lon="10.42257365673643"><ele>183.5</ele><time>2026-03-31T14:59:25Z</time></trkpt><trkpt lat="45.54188670785217" lon="10.422469081398352"><ele>183.25</ele><time>2026-03-31T14:59:27Z</time></trkpt><trkpt lat="45.54179974338607" lon="10.422363079966159"><ele>183.0</ele><time>2026-03-31T14:59:29Z</time></trkpt><trkpt lat="45.54170311930935" lon="10.42224530439634"><ele>183.0</ele><time>2026-03-31T14:59:31Z</time></trkpt><trkpt lat="45.541652249728884" lon="10.4221832992113"><ele>183.0</ele><time>2026-03-31T14:59:32Z</time></trkpt><trkpt lat="45.54160249108168" lon="10.422122648142748"><ele>183.0</ele><time>2026-03-31T14:59:33Z</time></trkpt><trkpt lat="45.541550115195065" lon="10.42205880691681"><ele>183.0</ele><time>2026-03-31T14:59:34Z</time></trkpt><trkpt lat="45.54149989819404" lon="10.421997597162925"><ele>183.0</ele><time>2026-03-31T14:59:35Z</time></trkpt><trkpt lat="45.54144934149882" lon="10.421935973362277"><ele>183.0</ele><time>2026-03-31T14:59:36Z</time></trkpt><trkpt lat="45.541398972893354" lon="10.421874578815514"><ele>183.0</ele><time>2026-03-31T14:59:37Z</time></trkpt><trkpt lat="45.541350952729395" lon="10.42181604679636"><ele>183.0</ele><time>2026-03-31T14:59:38Z</time></trkpt><trkpt lat="45.54130111316971" lon="10.421755297108545"><ele>183.0</ele><time>2026-03-31T14:59:39Z</time></trkpt><trkpt lat="45.54125156755431" lon="10.421694528553548"><ele>183.0</ele><time>2026-03-31T14:59:40Z</time></trkpt><trkpt lat="45.54120325655924" lon="10.421634996907462"><ele>183.0</ele><time>2026-03-31T14:59:41Z</time></trkpt><trkpt lat="45.54110493020351" lon="10.421513833388156"><ele>183.0</ele><time>2026-03-31T14:59:43Z</time></trkpt><trkpt lat="45.54105707354817" lon="10.42145486160327"><ele>183.0</ele><time>2026-03-31T14:59:44Z</time></trkpt><trkpt lat="45.54096594540946" lon="10.421342662721061"><ele>183.2</ele><time>2026-03-31T14:59:46Z</time></trkpt><trkpt lat="45.540880830049936" lon="10.421239471274745"><ele>183.4</ele><time>2026-03-31T14:59:48Z</time></trkpt><trkpt lat="45.54080029848101" lon="10.421143356074312"><ele>183.6</ele><time>2026-03-31T14:59:50Z</time></trkpt><trkpt lat="45.54071095101764" lon="10.4210367190134"><ele>183.79999999999998</ele><time>2026-03-31T14:59:52Z</time></trkpt><trkpt lat="45.54065948915385" lon="10.42097460891534"><ele>184.0</ele><time>2026-03-31T14:59:53Z</time></trkpt><trkpt lat="45.54056749468994" lon="10.420862078537771"><ele>184.0</ele><time>2026-03-31T14:59:55Z</time></trkpt><trkpt lat="45.54048015104047" lon="10.42075523716967"><ele>184.0</ele><time>2026-03-31T14:59:57Z</time></trkpt><trkpt lat="45.540396315731094" lon="10.42065268731107"><ele>184.0</ele><time>2026-03-31T14:59:59Z</time></trkpt><trkpt lat="45.540305150267116" lon="10.420540853770527"><ele>184.0</ele><time>2026-03-31T15:00:01Z</time></trkpt><trkpt lat="45.54020965885757" lon="10.420423056888708"><ele>183.71428571428572</ele><time>2026-03-31T15:00:03Z</time></trkpt><trkpt lat="45.54016042559567" lon="10.420362323409163"><ele>183.42857142857142</ele><time>2026-03-31T15:00:04Z</time></trkpt><trkpt lat="45.5401126091436" lon="10.420303337689326"><ele>183.14285714285714</ele><time>2026-03-31T15:00:05Z</time></trkpt><trkpt lat="45.54006243730106" lon="10.420241446395156"><ele>182.85714285714286</ele><time>2026-03-31T15:00:06Z</time></trkpt><trkpt lat="45.540012731031354" lon="10.420180129425802"><ele>182.57142857142856</ele><time>2026-03-31T15:00:07Z</time></trkpt><trkpt lat="45.5399626182673" lon="10.42011831100931"><ele>182.28571428571428</ele><time>2026-03-31T15:00:08Z</time></trkpt><trkpt lat="45.539913803565554" lon="10.420058093860256"><ele>182.0</ele><time>2026-03-31T15:00:09Z</time></trkpt><trkpt lat="45.53986377666452" lon="10.419994845719392"><ele>182.0</ele><time>2026-03-31T15:00:10Z</time></trkpt><trkpt lat="45.53981362885171" lon="10.419929794338842"><ele>182.0</ele><time>2026-03-31T15:00:11Z</time></trkpt><trkpt lat="45.53976397152155" lon="10.419865379203051"><ele>182.0</ele><time>2026-03-31T15:00:12Z</time></trkpt><trkpt lat="45.53971634723037" lon="10.419803228765334"><ele>182.0</ele><time>2026-03-31T15:00:13Z</time></trkpt><trkpt lat="45.539626425322986" lon="10.419682779176263"><ele>182.0</ele><time>2026-03-31T15:00:15Z</time></trkpt><trkpt lat="45.53953921029343" lon="10.419564137319782"><ele>182.0</ele><time>2026-03-31T15:00:17Z</time></trkpt><trkpt lat="45.53947420968925" lon="10.419438645427315"><ele>182.5</ele><time>2026-03-31T15:00:19Z</time></trkpt><trkpt lat="45.53939883037081" lon="10.419331646648446"><ele>183.0</ele><time>2026-03-31T15:00:21Z</time></trkpt><trkpt lat="45.53930743410215" lon="10.419230175217894"><ele>183.5</ele><time>2026-03-31T15:00:23Z</time></trkpt><trkpt lat="45.53922450672636" lon="10.419108147081456"><ele>184.0</ele><time>2026-03-31T15:00:25Z</time></trkpt><trkpt lat="45.539138298695185" lon="10.418979747520737"><ele>184.0</ele><time>2026-03-31T15:00:27Z</time></trkpt><trkpt lat="45.53905326230062" lon="10.418852270087369"><ele>184.0</ele><time>2026-03-31T15:00:29Z</time></trkpt><trkpt lat="45.53896776357115" lon="10.418723734708834"><ele>184.0</ele><time>2026-03-31T15:00:31Z</time></trkpt><trkpt lat="45.53888474572164" lon="10.418598669756651"><ele>184.0</ele><time>2026-03-31T15:00:33Z</time></trkpt><trkpt lat="45.538804456205106" lon="10.418475526541586"><ele>183.6</ele><time>2026-03-31T15:00:35Z</time></trkpt><trkpt lat="45.538728001817574" lon="10.418358265411523"><ele>183.2</ele><time>2026-03-31T15:00:37Z</time></trkpt><trkpt lat="45.53865585167024" lon="10.41824760587276"><ele>182.79999999999998</ele><time>2026-03-31T15:00:39Z</time></trkpt><trkpt lat="45.53858306384009" lon="10.418135968282336"><ele>182.39999999999998</ele><time>2026-03-31T15:00:41Z</time></trkpt><trkpt lat="45.53850679423183" lon="10.418018990537457"><ele>182.0</ele><time>2026-03-31T15:00:43Z</time></trkpt><trkpt lat="45.53842924067387" lon="10.417900043565288"><ele>181.75</ele><time>2026-03-31T15:00:45Z</time></trkpt><trkpt lat="45.538352922163256" lon="10.417782999189441"><ele>181.5</ele><time>2026-03-31T15:00:47Z</time></trkpt><trkpt lat="45.53827114701863" lon="10.41765757761452"><ele>181.25</ele><time>2026-03-31T15:00:49Z</time></trkpt><trkpt lat="45.53818965127663" lon="10.417532562410571"><ele>181.0</ele><time>2026-03-31T15:00:51Z</time></trkpt><trkpt lat="45.538107144733914" lon="10.41740590301963"><ele>181.0</ele><time>2026-03-31T15:00:53Z</time></trkpt><trkpt lat="45.53802940934236" lon="10.417286567974681"><ele>181.0</ele><time>2026-03-31T15:00:55Z</time></trkpt><trkpt lat="45.5379552569916" lon="10.41717273342646"><ele>181.0</ele><time>2026-03-31T15:00:57Z</time></trkpt><trkpt lat="45.53788345609791" lon="10.41706079670756"><ele>181.0</ele><time>2026-03-31T15:00:59Z</time></trkpt><trkpt lat="45.537819512191476" lon="10.416960811080328"><ele>181.0</ele><time>2026-03-31T15:01:01Z</time></trkpt><trkpt lat="45.537750186137195" lon="10.416849414552779"><ele>181.4</ele><time>2026-03-31T15:01:03Z</time></trkpt><trkpt lat="45.53768700841351" lon="10.41674547891841"><ele>181.8</ele><time>2026-03-31T15:01:05Z</time></trkpt><trkpt lat="45.53761794755568" lon="10.416629202995145"><ele>182.20000000000002</ele><time>2026-03-31T15:01:07Z</time></trkpt><trkpt lat="45.53757717443696" lon="10.416555528214193"><ele>182.60000000000002</ele><time>2026-03-31T15:01:08Z</time></trkpt><trkpt lat="45.537523166259206" lon="10.416449773548775"><ele>183.0</ele><time>2026-03-31T15:01:10Z</time></trkpt><trkpt lat="45.53746823989815" lon="10.416334148807195"><ele>182.66666666666666</ele><time>2026-03-31T15:01:12Z</time></trkpt><trkpt lat="45.53742601328823" lon="10.416238782393503"><ele>182.33333333333331</ele><time>2026-03-31T15:01:14Z</time></trkpt><trkpt lat="45.537389607719675" lon="10.416152427961674"><ele>182.0</ele><time>2026-03-31T15:01:16Z</time></trkpt><trkpt lat="45.537880839078774" lon="10.415775834854028"><ele>182.33333333333331</ele><time>2026-03-31T15:01:20Z</time></trkpt><trkpt lat="45.537964658288516" lon="10.415771639968051"><ele>182.66666666666666</ele><time>2026-03-31T15:01:23Z</time></trkpt><trkpt lat="45.53803016759693" lon="10.415825871072027"><ele>183.0</ele><time>2026-03-31T15:01:25Z</time></trkpt><trkpt lat="45.538095480478916" lon="10.415899659953599"><ele>183.33333333333334</ele><time>2026-03-31T15:01:27Z</time></trkpt><trkpt lat="45.538165982882" lon="10.415965216228393"><ele>183.66666666666669</ele><time>2026-03-31T15:01:29Z</time></trkpt><trkpt lat="45.53823798993434" lon="10.416017486990658"><ele>184.0</ele><time>2026-03-31T15:01:31Z</time></trkpt><trkpt lat="45.538316089731836" lon="10.416044875881711"><ele>184.0</ele><time>2026-03-31T15:01:33Z</time></trkpt><trkpt lat="45.53839707956919" lon="10.416052622845356"><ele>184.0</ele><time>2026-03-31T15:01:35Z</time></trkpt><trkpt lat="45.5384708960601" lon="10.416066572765878"><ele>184.0</ele><time>2026-03-31T15:01:37Z</time></trkpt><trkpt lat="45.53853899641512" lon="10.416087781214799"><ele>184.0</ele><time>2026-03-31T15:01:39Z</time></trkpt><trkpt lat="45.53860687695977" lon="10.416104523477506"><ele>184.0</ele><time>2026-03-31T15:01:41Z</time></trkpt><trkpt lat="45.53867042967471" lon="10.416131416327223"><ele>184.0</ele><time>2026-03-31T15:01:43Z</time></trkpt><trkpt lat="45.5387316278499" lon="10.416173471292067"><ele>184.0</ele><time>2026-03-31T15:01:45Z</time></trkpt><trkpt lat="45.53880726342454" lon="10.416206502747917"><ele>184.66666666666669</ele><time>2026-03-31T15:01:47Z</time></trkpt><trkpt lat="45.53888289768577" lon="10.416230622123226"><ele>185.33333333333334</ele><time>2026-03-31T15:01:49Z</time></trkpt><trkpt lat="45.53895172890164" lon="10.416216586848254"><ele>186.0</ele><time>2026-03-31T15:01:51Z</time></trkpt><trkpt lat="45.53902281546175" lon="10.416203464641011"><ele>186.66666666666666</ele><time>2026-03-31T15:01:54Z</time></trkpt><trkpt lat="45.53910697094144" lon="10.416183040289374"><ele>187.33333333333331</ele><time>2026-03-31T15:01:56Z</time></trkpt><trkpt lat="45.53917132612075" lon="10.416150937402284"><ele>188.0</ele><time>2026-03-31T15:01:59Z</time></trkpt><trkpt lat="45.539139859457" lon="10.416028773971014"><ele>188.0</ele><time>2026-03-31T15:02:00Z</time></trkpt><trkpt lat="45.53913982534949" lon="10.4159142283949"><ele>188.0</ele><time>2026-03-31T15:02:02Z</time></trkpt><trkpt lat="45.53917681632665" lon="10.415808580786571"><ele>188.0</ele><time>2026-03-31T15:02:03Z</time></trkpt><trkpt lat="45.539213533003604" lon="10.415704574993972"><ele>188.0</ele><time>2026-03-31T15:02:05Z</time></trkpt><trkpt lat="45.53928132394575" lon="10.415629426750634"><ele>188.0</ele><time>2026-03-31T15:02:07Z</time></trkpt><trkpt lat="45.53934598200087" lon="10.415545091160086"><ele>188.0</ele><time>2026-03-31T15:02:09Z</time></trkpt><trkpt lat="45.53941735017939" lon="10.415503190272444"><ele>188.0</ele><time>2026-03-31T15:02:11Z</time></trkpt><trkpt lat="45.53950040139532" lon="10.415456934766787"><ele>188.0</ele><time>2026-03-31T15:02:13Z</time></trkpt><trkpt lat="45.53958627442659" lon="10.415396163745806"><ele>188.0</ele><time>2026-03-31T15:02:15Z</time></trkpt><trkpt lat="45.53966346396971" lon="10.4153392905003"><ele>188.0</ele><time>2026-03-31T15:02:17Z</time></trkpt><trkpt lat="45.53973419072875" lon="10.415288226812647"><ele>188.0</ele><time>2026-03-31T15:02:19Z</time></trkpt><trkpt lat="45.53980442306562" lon="10.415243386280125"><ele>188.0</ele><time>2026-03-31T15:02:21Z</time></trkpt><trkpt lat="45.539898343768904" lon="10.415199036410181"><ele>188.0</ele><time>2026-03-31T15:02:23Z</time></trkpt><trkpt lat="45.539996746345" lon="10.415134001267898"><ele>188.0</ele><time>2026-03-31T15:02:25Z</time></trkpt><trkpt lat="45.5400952252497" lon="10.415081618677998"><ele>188.0</ele><time>2026-03-31T15:02:27Z</time></trkpt><trkpt lat="45.54018960526449" lon="10.415084129849667"><ele>188.0</ele><time>2026-03-31T15:02:29Z</time></trkpt><trkpt lat="45.540281005233304" lon="10.415102855597418"><ele>188.0</ele><time>2026-03-31T15:02:31Z</time></trkpt><trkpt lat="45.54038735771241" lon="10.415112182063293"><ele>188.0</ele><time>2026-03-31T15:02:33Z</time></trkpt><trkpt lat="45.540498999594114" lon="10.41516443667797"><ele>188.0</ele><time>2026-03-31T15:02:35Z</time></trkpt><trkpt lat="45.54059595968232" lon="10.41521854834359"><ele>188.0</ele><time>2026-03-31T15:02:37Z</time></trkpt><trkpt lat="45.54068537700783" lon="10.415259369995756"><ele>188.0</ele><time>2026-03-31T15:02:39Z</time></trkpt><trkpt lat="45.540778074150374" lon="10.415299728923666"><ele>188.0</ele><time>2026-03-31T15:02:41Z</time></trkpt><trkpt lat="45.54087422547149" lon="10.415325424979251"><ele>188.0</ele><time>2026-03-31T15:02:43Z</time></trkpt><trkpt lat="45.54096985441099" lon="10.415333751755526"><ele>188.0</ele><time>2026-03-31T15:02:45Z</time></trkpt><trkpt lat="45.541058213014146" lon="10.415316770329644"><ele>188.0</ele><time>2026-03-31T15:02:47Z</time></trkpt><trkpt lat="45.54114280085838" lon="10.415276017385343"><ele>188.0</ele><time>2026-03-31T15:02:49Z</time></trkpt><trkpt lat="45.54123798747321" lon="10.415242115407807"><ele>188.0</ele><time>2026-03-31T15:02:51Z</time></trkpt><trkpt lat="45.541320111591254" lon="10.415171602407975"><ele>187.8</ele><time>2026-03-31T15:02:53Z</time></trkpt><trkpt lat="45.54141348117407" lon="10.415107790383148"><ele>187.60000000000002</ele><time>2026-03-31T15:02:55Z</time></trkpt><trkpt lat="45.54150429771066" lon="10.415039541129163"><ele>187.39999999999998</ele><time>2026-03-31T15:02:57Z</time></trkpt><trkpt lat="45.541600441840814" lon="10.41497251859857"><ele>187.2</ele><time>2026-03-31T15:02:59Z</time></trkpt><trkpt lat="45.541691161684206" lon="10.414903300882777"><ele>187.0</ele><time>2026-03-31T15:03:01Z</time></trkpt><trkpt lat="45.541773855324344" lon="10.414837216958878"><ele>187.0</ele><time>2026-03-31T15:03:03Z</time></trkpt><trkpt lat="45.54185636827768" lon="10.414787933824128"><ele>187.0</ele><time>2026-03-31T15:03:05Z</time></trkpt><trkpt lat="45.54193444930271" lon="10.414709173667504"><ele>187.0</ele><time>2026-03-31T15:03:07Z</time></trkpt><trkpt lat="45.54202502711728" lon="10.41464679802171"><ele>187.0</ele><time>2026-03-31T15:03:09Z</time></trkpt><trkpt lat="45.54211411192356" lon="10.414571323595428"><ele>187.0</ele><time>2026-03-31T15:03:11Z</time></trkpt><trkpt lat="45.54219909434222" lon="10.41451085944598"><ele>186.39999999999998</ele><time>2026-03-31T15:03:13Z</time></trkpt><trkpt lat="45.54228182482344" lon="10.414456017880184"><ele>185.79999999999998</ele><time>2026-03-31T15:03:15Z</time></trkpt><trkpt lat="45.54235272881235" lon="10.414422565069502"><ele>185.2</ele><time>2026-03-31T15:03:18Z</time></trkpt><trkpt lat="45.54242014380591" lon="10.414582020699815"><ele>184.6</ele><time>2026-03-31T15:03:19Z</time></trkpt><trkpt lat="45.542476329324415" lon="10.414692835541107"><ele>184.0</ele><time>2026-03-31T15:03:21Z</time></trkpt><trkpt lat="45.542534689858606" lon="10.41480346182811"><ele>184.0</ele><time>2026-03-31T15:03:23Z</time></trkpt><trkpt lat="45.5425980571473" lon="10.414918315385615"><ele>184.0</ele><time>2026-03-31T15:03:25Z</time></trkpt><trkpt lat="45.54265843657004" lon="10.415023752387745"><ele>184.0</ele><time>2026-03-31T15:03:27Z</time></trkpt><trkpt lat="45.542720875500855" lon="10.41512082562228"><ele>184.0</ele><time>2026-03-31T15:03:29Z</time></trkpt><trkpt lat="45.54277323360368" lon="10.415235163893602"><ele>184.0</ele><time>2026-03-31T15:03:31Z</time></trkpt><trkpt lat="45.542841233899345" lon="10.415342376405812"><ele>184.0</ele><time>2026-03-31T15:03:33Z</time></trkpt><trkpt lat="45.54289914338957" lon="10.415456650071924"><ele>184.0</ele><time>2026-03-31T15:03:35Z</time></trkpt><trkpt lat="45.542969047243616" lon="10.415563108006396"><ele>184.0</ele><time>2026-03-31T15:03:37Z</time></trkpt><trkpt lat="45.54302661830132" lon="10.415683306647816"><ele>184.0</ele><time>2026-03-31T15:03:39Z</time></trkpt><trkpt lat="45.543085854742806" lon="10.4157883284842"><ele>184.0</ele><time>2026-03-31T15:03:41Z</time></trkpt><trkpt lat="45.543142355285724" lon="10.415904993459526"><ele>184.0</ele><time>2026-03-31T15:03:43Z</time></trkpt><trkpt lat="45.54320499673446" lon="10.41601085823047"><ele>184.0</ele><time>2026-03-31T15:03:45Z</time></trkpt><trkpt lat="45.543274958708395" lon="10.41611393093586"><ele>184.0</ele><time>2026-03-31T15:03:47Z</time></trkpt><trkpt lat="45.54334424226317" lon="10.416202913875775"><ele>184.0</ele><time>2026-03-31T15:03:49Z</time></trkpt><trkpt lat="45.543407355417145" lon="10.416273069055878"><ele>184.0</ele><time>2026-03-31T15:03:51Z</time></trkpt><trkpt lat="45.543454447086425" lon="10.41634108853484"><ele>184.0</ele><time>2026-03-31T15:03:53Z</time></trkpt><trkpt lat="45.54350830192027" lon="10.416426736530997"><ele>184.39999999999998</ele><time>2026-03-31T15:03:55Z</time></trkpt><trkpt lat="45.54358475784731" lon="10.416504902822016"><ele>184.8</ele><time>2026-03-31T15:03:57Z</time></trkpt><trkpt lat="45.54364409338854" lon="10.416584966992469"><ele>185.2</ele><time>2026-03-31T15:03:59Z</time></trkpt><trkpt lat="45.543732016077975" lon="10.416599209090828"><ele>185.60000000000002</ele><time>2026-03-31T15:04:01Z</time></trkpt><trkpt lat="45.543795523278085" lon="10.416505942151668"><ele>186.0</ele><time>2026-03-31T15:04:03Z</time></trkpt><trkpt lat="45.54386816401732" lon="10.4164134527042"><ele>186.20000000000002</ele><time>2026-03-31T15:04:05Z</time></trkpt><trkpt lat="45.54394186665117" lon="10.416321378097384"><ele>186.4</ele><time>2026-03-31T15:04:07Z</time></trkpt><trkpt lat="45.54401401939705" lon="10.416234023385849"><ele>186.6</ele><time>2026-03-31T15:04:09Z</time></trkpt><trkpt lat="45.54408287375803" lon="10.416153900192208"><ele>186.8</ele><time>2026-03-31T15:04:11Z</time></trkpt><trkpt lat="45.544152271138216" lon="10.416080340914219"><ele>187.0</ele><time>2026-03-31T15:04:13Z</time></trkpt><trkpt lat="45.54423541479553" lon="10.41600828264912"><ele>187.0</ele><time>2026-03-31T15:04:15Z</time></trkpt><trkpt lat="45.54432031338893" lon="10.415933797414091"><ele>187.0</ele><time>2026-03-31T15:04:17Z</time></trkpt><trkpt lat="45.5444099466958" lon="10.4158696218852"><ele>187.0</ele><time>2026-03-31T15:04:19Z</time></trkpt><trkpt lat="45.544490231218965" lon="10.4157927071631"><ele>187.0</ele><time>2026-03-31T15:04:21Z</time></trkpt><trkpt lat="45.544569857188314" lon="10.415726345531423"><ele>187.0</ele><time>2026-03-31T15:04:23Z</time></trkpt><trkpt lat="45.54466087628036" lon="10.415670384499554"><ele>187.0</ele><time>2026-03-31T15:04:25Z</time></trkpt><trkpt lat="45.54475895797112" lon="10.415621556827816"><ele>187.0</ele><time>2026-03-31T15:04:27Z</time></trkpt><trkpt lat="45.544853514571905" lon="10.415564939779472"><ele>187.0</ele><time>2026-03-31T15:04:29Z</time></trkpt><trkpt lat="45.54493717845455" lon="10.415531958353975"><ele>187.0</ele><time>2026-03-31T15:04:31Z</time></trkpt><trkpt lat="45.54501246254285" lon="10.415472375662718"><ele>187.0</ele><time>2026-03-31T15:04:33Z</time></trkpt><trkpt lat="45.54507585073913" lon="10.415398354278981"><ele>187.0</ele><time>2026-03-31T15:04:35Z</time></trkpt><trkpt lat="45.54513785628748" lon="10.415312175378608"><ele>187.0</ele><time>2026-03-31T15:04:37Z</time></trkpt><trkpt lat="45.545194504111734" lon="10.415245561567716"><ele>187.0</ele><time>2026-03-31T15:04:39Z</time></trkpt><trkpt lat="45.545248778172876" lon="10.415144504170867"><ele>187.0</ele><time>2026-03-31T15:04:41Z</time></trkpt><trkpt lat="45.545315633137385" lon="10.4150731215065"><ele>187.0</ele><time>2026-03-31T15:04:43Z</time></trkpt><trkpt lat="45.54537959440465" lon="10.41497399356446"><ele>187.0</ele><time>2026-03-31T15:04:45Z</time></trkpt><trkpt lat="45.54544374737913" lon="10.414874667892379"><ele>187.0</ele><time>2026-03-31T15:04:47Z</time></trkpt><trkpt lat="45.54552009240335" lon="10.41481999909871"><ele>187.0</ele><time>2026-03-31T15:04:49Z</time></trkpt><trkpt lat="45.545567660655394" lon="10.414757898993752"><ele>187.0</ele><time>2026-03-31T15:04:51Z</time></trkpt><trkpt lat="45.545631995427854" lon="10.414690251149919"><ele>187.0</ele><time>2026-03-31T15:04:53Z</time></trkpt><trkpt lat="45.545714477929685" lon="10.414624228334484"><ele>187.0</ele><time>2026-03-31T15:04:56Z</time></trkpt><trkpt lat="45.5457694724156" lon="10.414550189660169"><ele>187.0</ele><time>2026-03-31T15:05:06Z</time></trkpt><trkpt lat="45.545815634102134" lon="10.414461574503934"><ele>187.0</ele><time>2026-03-31T15:05:11Z</time></trkpt><trkpt lat="45.545760543910994" lon="10.41438146476264"><ele>187.0</ele><time>2026-03-31T15:05:15Z</time></trkpt><trkpt lat="45.54581302406301" lon="10.414243692268746"><ele>187.0</ele><time>2026-03-31T15:05:19Z</time></trkpt><trkpt lat="45.54587480738725" lon="10.41416045806073"><ele>187.0</ele><time>2026-03-31T15:05:21Z</time></trkpt><trkpt lat="45.545944500049586" lon="10.41408032310951"><ele>187.0</ele><time>2026-03-31T15:05:23Z</time></trkpt><trkpt lat="45.5459655086324" lon="10.413983018801016"><ele>187.0</ele><time>2026-03-31T15:05:25Z</time></trkpt><trkpt lat="45.545920924510455" lon="10.413894081365207"><ele>187.0</ele><time>2026-03-31T15:05:27Z</time></trkpt><trkpt lat="45.545985146757715" lon="10.413863473483783"><ele>187.0</ele><time>2026-03-31T15:05:29Z</time></trkpt><trkpt lat="45.54606971211686" lon="10.413743125393147"><ele>187.0</ele><time>2026-03-31T15:05:31Z</time></trkpt><trkpt lat="45.54612740328825" lon="10.413610320833909"><ele>187.0</ele><time>2026-03-31T15:05:33Z</time></trkpt><trkpt lat="45.54620065930222" lon="10.413481027387103"><ele>187.0</ele><time>2026-03-31T15:05:35Z</time></trkpt><trkpt lat="45.54626783193415" lon="10.413372429202871"><ele>186.39999999999998</ele><time>2026-03-31T15:05:37Z</time></trkpt><trkpt lat="45.54633281787854" lon="10.413257301063416"><ele>185.79999999999998</ele><time>2026-03-31T15:05:39Z</time></trkpt><trkpt lat="45.546397830631946" lon="10.413140743640941"><ele>185.2</ele><time>2026-03-31T15:05:41Z</time></trkpt><trkpt lat="45.546458452777635" lon="10.413047972801657"><ele>184.6</ele><time>2026-03-31T15:05:43Z</time></trkpt><trkpt lat="45.546513204729706" lon="10.412957102140416"><ele>184.0</ele><time>2026-03-31T15:05:45Z</time></trkpt><trkpt lat="45.5465803852955" lon="10.412852998650887"><ele>183.79999999999998</ele><time>2026-03-31T15:05:47Z</time></trkpt><trkpt lat="45.546651841841594" lon="10.41274816550034"><ele>183.6</ele><time>2026-03-31T15:05:49Z</time></trkpt><trkpt lat="45.54673179504931" lon="10.41264251671891"><ele>183.4</ele><time>2026-03-31T15:05:51Z</time></trkpt><trkpt lat="45.54681206425258" lon="10.412537070092087"><ele>183.2</ele><time>2026-03-31T15:05:53Z</time></trkpt><trkpt lat="45.54688951835193" lon="10.412420655188873"><ele>183.0</ele><time>2026-03-31T15:05:55Z</time></trkpt><trkpt lat="45.546962624905895" lon="10.412322762453895"><ele>183.0</ele><time>2026-03-31T15:05:57Z</time></trkpt><trkpt lat="45.547031414869146" lon="10.412227993787678"><ele>183.0</ele><time>2026-03-31T15:05:59Z</time></trkpt><trkpt lat="45.54710588081733" lon="10.412158368172715"><ele>183.0</ele><time>2026-03-31T15:06:01Z</time></trkpt><trkpt lat="45.54715740808931" lon="10.41206557612338"><ele>183.0</ele><time>2026-03-31T15:06:03Z</time></trkpt><trkpt lat="45.54722036866642" lon="10.411994651736899"><ele>183.0</ele><time>2026-03-31T15:06:05Z</time></trkpt><trkpt lat="45.54728819296874" lon="10.411922310240536"><ele>183.0</ele><time>2026-03-31T15:06:07Z</time></trkpt><trkpt lat="45.54734108413879" lon="10.411830412157759"><ele>183.16666666666666</ele><time>2026-03-31T15:06:09Z</time></trkpt><trkpt lat="45.54739353710485" lon="10.411756926022498"><ele>183.33333333333334</ele><time>2026-03-31T15:06:11Z</time></trkpt><trkpt lat="45.54744525473687" lon="10.411699367602798"><ele>183.5</ele><time>2026-03-31T15:06:13Z</time></trkpt><trkpt lat="45.54751736979202" lon="10.411728235383288"><ele>183.66666666666669</ele><time>2026-03-31T15:06:15Z</time></trkpt><trkpt lat="45.54757197673716" lon="10.411824571345386"><ele>183.83333333333334</ele><time>2026-03-31T15:06:17Z</time></trkpt><trkpt lat="45.547623715785576" lon="10.411903905834034"><ele>184.0</ele><time>2026-03-31T15:06:19Z</time></trkpt><trkpt lat="45.54769427697103" lon="10.412001880112662"><ele>184.0</ele><time>2026-03-31T15:06:22Z</time></trkpt><trkpt lat="45.54775323083746" lon="10.412091294040653"><ele>184.0</ele><time>2026-03-31T15:06:24Z</time></trkpt><trkpt lat="45.54780917374282" lon="10.412152973855882"><ele>184.0</ele><time>2026-03-31T15:06:26Z</time></trkpt><trkpt lat="45.54787426838157" lon="10.412216871744652"><ele>184.0</ele><time>2026-03-31T15:06:29Z</time></trkpt><trkpt lat="45.54794738687399" lon="10.412163203440288"><ele>184.0</ele><time>2026-03-31T15:06:31Z</time></trkpt><trkpt lat="45.54800613678205" lon="10.412070538696481"><ele>184.0</ele><time>2026-03-31T15:06:33Z</time></trkpt><trkpt lat="45.548076218574025" lon="10.411995063666671"><ele>183.79999999999998</ele><time>2026-03-31T15:06:35Z</time></trkpt><trkpt lat="45.54815015463734" lon="10.411909042774457"><ele>183.6</ele><time>2026-03-31T15:06:37Z</time></trkpt><trkpt lat="45.548224278226506" lon="10.411815121900338"><ele>183.4</ele><time>2026-03-31T15:06:39Z</time></trkpt><trkpt lat="45.548301603386506" lon="10.411729714755099"><ele>183.2</ele><time>2026-03-31T15:06:41Z</time></trkpt><trkpt lat="45.54840217492649" lon="10.41160618371019"><ele>183.0</ele><time>2026-03-31T15:06:44Z</time></trkpt><trkpt lat="45.54846468468523" lon="10.411549716126506"><ele>183.0</ele><time>2026-03-31T15:06:46Z</time></trkpt><trkpt lat="45.548538906189954" lon="10.41145537283104"><ele>183.0</ele><time>2026-03-31T15:06:48Z</time></trkpt><trkpt lat="45.54858610201677" lon="10.411373946914226"><ele>183.0</ele><time>2026-03-31T15:06:50Z</time></trkpt><trkpt lat="45.54864429056379" lon="10.411329900570298"><ele>183.0</ele><time>2026-03-31T15:06:52Z</time></trkpt><trkpt lat="45.548700020146946" lon="10.411277775205683"><ele>183.0</ele><time>2026-03-31T15:06:55Z</time></trkpt><trkpt lat="45.548800051810815" lon="10.41145620868751"><ele>183.2</ele><time>2026-03-31T15:06:56Z</time></trkpt><trkpt lat="45.54888607829526" lon="10.411509624311458"><ele>183.4</ele><time>2026-03-31T15:06:58Z</time></trkpt><trkpt lat="45.548987222266575" lon="10.411522211126975"><ele>183.6</ele><time>2026-03-31T15:07:00Z</time></trkpt><trkpt lat="45.54908420235176" lon="10.41146708436209"><ele>183.79999999999998</ele><time>2026-03-31T15:07:02Z</time></trkpt><trkpt lat="45.549170107495215" lon="10.411421087269092"><ele>184.0</ele><time>2026-03-31T15:07:04Z</time></trkpt><trkpt lat="45.54926390221877" lon="10.411428879753078"><ele>184.0</ele><time>2026-03-31T15:07:06Z</time></trkpt><trkpt lat="45.54935775091726" lon="10.411490042739938"><ele>184.0</ele><time>2026-03-31T15:07:08Z</time></trkpt><trkpt lat="45.549452367092194" lon="10.411544405256963"><ele>184.0</ele><time>2026-03-31T15:07:10Z</time></trkpt><trkpt lat="45.54954341950443" lon="10.411575628238909"><ele>184.0</ele><time>2026-03-31T15:07:12Z</time></trkpt><trkpt lat="45.54963843287541" lon="10.411593648201283"><ele>184.0</ele><time>2026-03-31T15:07:14Z</time></trkpt><trkpt lat="45.54973203191958" lon="10.411617497574644"><ele>184.0</ele><time>2026-03-31T15:07:16Z</time></trkpt><trkpt lat="45.54982805235229" lon="10.411635879926378"><ele>184.0</ele><time>2026-03-31T15:07:18Z</time></trkpt><trkpt lat="45.54991533324669" lon="10.4116517277636"><ele>184.0</ele><time>2026-03-31T15:07:20Z</time></trkpt><trkpt lat="45.549992154043636" lon="10.41167316650968"><ele>184.0</ele><time>2026-03-31T15:07:22Z</time></trkpt><trkpt lat="45.550054758571875" lon="10.411727019047987"><ele>184.0</ele><time>2026-03-31T15:07:24Z</time></trkpt><trkpt lat="45.55010716560732" lon="10.411819719146374"><ele>184.0</ele><time>2026-03-31T15:07:28Z</time></trkpt><trkpt lat="45.55016246326503" lon="10.411925589084225"><ele>184.0</ele><time>2026-03-31T15:07:30Z</time></trkpt><trkpt lat="45.550209152306074" lon="10.412017076333827"><ele>184.0</ele><time>2026-03-31T15:07:32Z</time></trkpt><trkpt lat="45.55025278434699" lon="10.412113741343104"><ele>184.0</ele><time>2026-03-31T15:07:34Z</time></trkpt><trkpt lat="45.55031438010558" lon="10.41220369161071"><ele>184.0</ele><time>2026-03-31T15:07:36Z</time></trkpt><trkpt lat="45.550367684344465" lon="10.412264659697561"><ele>184.0</ele><time>2026-03-31T15:07:38Z</time></trkpt><trkpt lat="45.55044167819144" lon="10.412217989722333"><ele>184.0</ele><time>2026-03-31T15:07:40Z</time></trkpt><trkpt lat="45.55049618628765" lon="10.412136398403561"><ele>184.0</ele><time>2026-03-31T15:07:42Z</time></trkpt><trkpt lat="45.55056517799142" lon="10.412039279232085"><ele>184.0</ele><time>2026-03-31T15:07:44Z</time></trkpt><trkpt lat="45.550635562031985" lon="10.411959547101043"><ele>184.0</ele><time>2026-03-31T15:07:46Z</time></trkpt><trkpt lat="45.55069400424045" lon="10.411882532346047"><ele>184.0</ele><time>2026-03-31T15:07:48Z</time></trkpt><trkpt lat="45.55078300837176" lon="10.411795228224545"><ele>184.0</ele><time>2026-03-31T15:07:50Z</time></trkpt><trkpt lat="45.55085980661076" lon="10.411711561336777"><ele>184.0</ele><time>2026-03-31T15:07:52Z</time></trkpt><trkpt lat="45.55093435202961" lon="10.411617957373792"><ele>184.0</ele><time>2026-03-31T15:07:55Z</time></trkpt><trkpt lat="45.55101830357264" lon="10.41153276380011"><ele>184.0</ele><time>2026-03-31T15:07:57Z</time></trkpt><trkpt lat="45.55108606373915" lon="10.411460364644524"><ele>184.0</ele><time>2026-03-31T15:07:59Z</time></trkpt><trkpt lat="45.55116831223995" lon="10.411378291712607"><ele>184.0</ele><time>2026-03-31T15:08:01Z</time></trkpt><trkpt lat="45.55124586395533" lon="10.411344878514226"><ele>183.83333333333334</ele><time>2026-03-31T15:08:03Z</time></trkpt><trkpt lat="45.55133259918351" lon="10.411382596690192"><ele>183.66666666666669</ele><time>2026-03-31T15:08:05Z</time></trkpt><trkpt lat="45.551393939749175" lon="10.411441004467065"><ele>183.5</ele><time>2026-03-31T15:08:07Z</time></trkpt><trkpt lat="45.551489094963664" lon="10.411519208374353"><ele>183.33333333333334</ele><time>2026-03-31T15:08:09Z</time></trkpt><trkpt lat="45.551539578589804" lon="10.411600917469892"><ele>183.16666666666666</ele><time>2026-03-31T15:08:11Z</time></trkpt><trkpt lat="45.551609012259284" lon="10.411651375426878"><ele>183.0</ele><time>2026-03-31T15:08:13Z</time></trkpt><trkpt lat="45.551691713109705" lon="10.411718118350402"><ele>183.0</ele><time>2026-03-31T15:08:15Z</time></trkpt><trkpt lat="45.55175470760941" lon="10.411798475679808"><ele>183.0</ele><time>2026-03-31T15:08:17Z</time></trkpt><trkpt lat="45.55179924356342" lon="10.411863171878213"><ele>183.0</ele><time>2026-03-31T15:08:19Z</time></trkpt><trkpt lat="45.55185956690041" lon="10.411890427701318"><ele>183.0</ele><time>2026-03-31T15:08:21Z</time></trkpt><trkpt lat="45.55192938112486" lon="10.411874030534257"><ele>183.0</ele><time>2026-03-31T15:08:24Z</time></trkpt><trkpt lat="45.55199315927818" lon="10.411825455023399"><ele>183.0</ele><time>2026-03-31T15:08:26Z</time></trkpt><trkpt lat="45.55205189197823" lon="10.411787573913728"><ele>183.0</ele><time>2026-03-31T15:08:28Z</time></trkpt><trkpt lat="45.552105367773656" lon="10.411740038685398"><ele>183.0</ele><time>2026-03-31T15:08:30Z</time></trkpt><trkpt lat="45.552176839894784" lon="10.411669568788405"><ele>183.0</ele><time>2026-03-31T15:08:33Z</time></trkpt><trkpt lat="45.55224170626941" lon="10.411617584590315"><ele>183.0</ele><time>2026-03-31T15:08:36Z</time></trkpt><trkpt lat="45.552145545019016" lon="10.411500572921556"><ele>183.0</ele><time>2026-03-31T15:08:42Z</time></trkpt><trkpt lat="45.55205091436911" lon="10.41151472384591"><ele>183.0</ele><time>2026-03-31T15:08:45Z</time></trkpt><trkpt lat="45.55200200382998" lon="10.411628288495415"><ele>183.2</ele><time>2026-03-31T15:08:47Z</time></trkpt><trkpt lat="45.55207278553975" lon="10.411738075629707"><ele>183.4</ele><time>2026-03-31T15:08:49Z</time></trkpt><trkpt lat="45.55215697429549" lon="10.41174436244539"><ele>183.6</ele><time>2026-03-31T15:08:51Z</time></trkpt><trkpt lat="45.55221266779553" lon="10.411667718564143"><ele>183.79999999999998</ele><time>2026-03-31T15:08:53Z</time></trkpt><trkpt lat="45.552265309988385" lon="10.411603600675479"><ele>184.0</ele><time>2026-03-31T15:08:56Z</time></trkpt><trkpt lat="45.55214305380607" lon="10.411514468100462"><ele>184.0</ele><time>2026-03-31T15:09:01Z</time></trkpt><trkpt lat="45.55205835922275" lon="10.411509926776768"><ele>184.0</ele><time>2026-03-31T15:09:04Z</time></trkpt><trkpt lat="45.55200399232591" lon="10.411585163833303"><ele>184.0</ele><time>2026-03-31T15:09:06Z</time></trkpt><trkpt lat="45.55198550498846" lon="10.41168719854968"><ele>184.0</ele><time>2026-03-31T15:09:08Z</time></trkpt><trkpt lat="45.55198827684666" lon="10.411811599233781"><ele>184.0</ele><time>2026-03-31T15:09:11Z</time></trkpt><trkpt lat="45.55192947338903" lon="10.411867279217661"><ele>184.0</ele><time>2026-03-31T15:09:14Z</time></trkpt><trkpt lat="45.55185706435293" lon="10.411902669209757"><ele>183.83333333333334</ele><time>2026-03-31T15:09:18Z</time></trkpt><trkpt lat="45.55184644566291" lon="10.412029816930948"><ele>183.66666666666669</ele><time>2026-03-31T15:09:19Z</time></trkpt><trkpt lat="45.55189265253919" lon="10.412099728162032"><ele>183.5</ele><time>2026-03-31T15:09:20Z</time></trkpt><trkpt lat="45.551935316561675" lon="10.412181521106644"><ele>183.33333333333334</ele><time>2026-03-31T15:09:22Z</time></trkpt><trkpt lat="45.551977689164985" lon="10.412262797927847"><ele>183.16666666666666</ele><time>2026-03-31T15:09:24Z</time></trkpt><trkpt lat="45.55202766414005" lon="10.41235419705698"><ele>183.0</ele><time>2026-03-31T15:09:26Z</time></trkpt><trkpt lat="45.55207714119817" lon="10.412442908577468"><ele>183.83333333333334</ele><time>2026-03-31T15:09:28Z</time></trkpt><trkpt lat="45.55213071165674" lon="10.412530639055959"><ele>184.66666666666666</ele><time>2026-03-31T15:09:30Z</time></trkpt><trkpt lat="45.55218985443929" lon="10.412618774964521"><ele>185.5</ele><time>2026-03-31T15:09:32Z</time></trkpt><trkpt lat="45.55225733031774" lon="10.412686301178681"><ele>186.33333333333331</ele><time>2026-03-31T15:09:34Z</time></trkpt><trkpt lat="45.55231893474911" lon="10.41279801424285"><ele>187.16666666666666</ele><time>2026-03-31T15:09:36Z</time></trkpt><trkpt lat="45.55239946491139" lon="10.41287713469415"><ele>188.0</ele><time>2026-03-31T15:09:38Z</time></trkpt><trkpt lat="45.5524392772416" lon="10.412968665224769"><ele>188.0</ele><time>2026-03-31T15:09:40Z</time></trkpt><trkpt lat="45.55248349997862" lon="10.413045624317203"><ele>188.0</ele><time>2026-03-31T15:09:42Z</time></trkpt><trkpt lat="45.552508921873255" lon="10.413157319923709"><ele>188.0</ele><time>2026-03-31T15:09:45Z</time></trkpt><trkpt lat="45.552490596751646" lon="10.413247348852272"><ele>188.0</ele><time>2026-03-31T15:09:47Z</time></trkpt><trkpt lat="45.55241440960885" lon="10.413325392485898"><ele>188.0</ele><time>2026-03-31T15:09:49Z</time></trkpt><trkpt lat="45.552350971564415" lon="10.413414505420246"><ele>188.0</ele><time>2026-03-31T15:09:51Z</time></trkpt><trkpt lat="45.55228571013977" lon="10.413479902023818"><ele>188.0</ele><time>2026-03-31T15:09:53Z</time></trkpt><trkpt lat="45.552235045436774" lon="10.413552226551024"><ele>188.0</ele><time>2026-03-31T15:09:55Z</time></trkpt><trkpt lat="45.55218041190597" lon="10.413645224809656"><ele>188.0</ele><time>2026-03-31T15:09:57Z</time></trkpt><trkpt lat="45.55212999083009" lon="10.413754571108612"><ele>188.0</ele><time>2026-03-31T15:09:59Z</time></trkpt><trkpt lat="45.55208344697451" lon="10.413876273372662"><ele>188.0</ele><time>2026-03-31T15:10:01Z</time></trkpt><trkpt lat="45.55205161553336" lon="10.414009502346024"><ele>188.0</ele><time>2026-03-31T15:10:03Z</time></trkpt><trkpt lat="45.55202568548327" lon="10.41414368832589"><ele>188.0</ele><time>2026-03-31T15:10:05Z</time></trkpt><trkpt lat="45.55200616223149" lon="10.414264290475469"><ele>188.0</ele><time>2026-03-31T15:10:07Z</time></trkpt><trkpt lat="45.552007419767236" lon="10.41435922650317"><ele>188.0</ele><time>2026-03-31T15:10:09Z</time></trkpt><trkpt lat="45.551976367839245" lon="10.414464000113414"><ele>188.0</ele><time>2026-03-31T15:10:11Z</time></trkpt><trkpt lat="45.55195826100515" lon="10.414590347721353"><ele>188.0</ele><time>2026-03-31T15:10:13Z</time></trkpt><trkpt lat="45.55193973015086" lon="10.414723544073743"><ele>188.0</ele><time>2026-03-31T15:10:15Z</time></trkpt><trkpt lat="45.55194000888611" lon="10.414843617503033"><ele>187.83333333333331</ele><time>2026-03-31T15:10:17Z</time></trkpt><trkpt lat="45.55192818141581" lon="10.414947843711383"><ele>187.66666666666666</ele><time>2026-03-31T15:10:19Z</time></trkpt><trkpt lat="45.55189907951486" lon="10.415057957203622"><ele>187.5</ele><time>2026-03-31T15:10:21Z</time></trkpt><trkpt lat="45.55189539568487" lon="10.415186910107758"><ele>187.33333333333334</ele><time>2026-03-31T15:10:23Z</time></trkpt><trkpt lat="45.55187695605038" lon="10.415321753233643"><ele>187.16666666666669</ele><time>2026-03-31T15:10:25Z</time></trkpt><trkpt lat="45.5518338291613" lon="10.415459614114285"><ele>187.0</ele><time>2026-03-31T15:10:27Z</time></trkpt><trkpt lat="45.55180085391936" lon="10.415596475628984"><ele>186.83333333333334</ele><time>2026-03-31T15:10:29Z</time></trkpt><trkpt lat="45.55177729509575" lon="10.415721104622115"><ele>186.66666666666669</ele><time>2026-03-31T15:10:31Z</time></trkpt><trkpt lat="45.55174924810078" lon="10.415838538191906"><ele>186.5</ele><time>2026-03-31T15:10:33Z</time></trkpt><trkpt lat="45.55170422963671" lon="10.41594974238228"><ele>186.33333333333334</ele><time>2026-03-31T15:10:35Z</time></trkpt><trkpt lat="45.55167743921234" lon="10.41607847823935"><ele>186.16666666666666</ele><time>2026-03-31T15:10:37Z</time></trkpt><trkpt lat="45.55166482740615" lon="10.416195020099055"><ele>186.0</ele><time>2026-03-31T15:10:39Z</time></trkpt><trkpt lat="45.5516604535836" lon="10.416294088449234"><ele>186.00000000000003</ele><time>2026-03-31T15:10:41Z</time></trkpt><trkpt lat="45.55165945379215" lon="10.416405465753268"><ele>186.0</ele><time>2026-03-31T15:10:44Z</time></trkpt><trkpt lat="45.551670207839244" lon="10.416506006928783"><ele>186.0</ele><time>2026-03-31T15:10:46Z</time></trkpt><trkpt lat="45.551679764305696" lon="10.416623812722976"><ele>186.0</ele><time>2026-03-31T15:10:49Z</time></trkpt><trkpt lat="45.55164812796908" lon="10.416704220536822"><ele>186.0</ele><time>2026-03-31T15:10:51Z</time></trkpt><trkpt lat="45.551621631786325" lon="10.416792412239172"><ele>186.00000000000003</ele><time>2026-03-31T15:10:53Z</time></trkpt><trkpt lat="45.551602932911" lon="10.416896370805905"><ele>186.0</ele><time>2026-03-31T15:10:55Z</time></trkpt><trkpt lat="45.551585998329344" lon="10.417013227936621"><ele>186.0</ele><time>2026-03-31T15:10:57Z</time></trkpt><trkpt lat="45.55158511164495" lon="10.417134631781932"><ele>186.0</ele><time>2026-03-31T15:10:59Z</time></trkpt><trkpt lat="45.55155663632015" lon="10.417258525771484"><ele>186.0</ele><time>2026-03-31T15:11:01Z</time></trkpt><trkpt lat="45.551535993166524" lon="10.417381370244255"><ele>186.0</ele><time>2026-03-31T15:11:03Z</time></trkpt><trkpt lat="45.55152568710176" lon="10.417495452067756"><ele>186.0</ele><time>2026-03-31T15:11:05Z</time></trkpt><trkpt lat="45.55149923223946" lon="10.417619586258162"><ele>186.0</ele><time>2026-03-31T15:11:07Z</time></trkpt><trkpt lat="45.55143665695087" lon="10.417724579574392"><ele>186.5</ele><time>2026-03-31T15:11:09Z</time></trkpt><trkpt lat="45.551394389302864" lon="10.417840598726691"><ele>187.0</ele><time>2026-03-31T15:11:11Z</time></trkpt><trkpt lat="45.55133671739365" lon="10.417944906998038"><ele>187.5</ele><time>2026-03-31T15:11:13Z</time></trkpt><trkpt lat="45.55128783844984" lon="10.418046886736663"><ele>188.0</ele><time>2026-03-31T15:11:15Z</time></trkpt><trkpt lat="45.551228926507626" lon="10.418113056244167"><ele>188.5</ele><time>2026-03-31T15:11:17Z</time></trkpt><trkpt lat="45.55119070863429" lon="10.418199639452293"><ele>189.0</ele><time>2026-03-31T15:11:19Z</time></trkpt><trkpt lat="45.55114171571077" lon="10.418277280306887"><ele>189.2</ele><time>2026-03-31T15:11:21Z</time></trkpt><trkpt lat="45.551073197351236" lon="10.418352285252936"><ele>189.39999999999998</ele><time>2026-03-31T15:11:24Z</time></trkpt><trkpt lat="45.550961700867965" lon="10.418227276338598"><ele>189.6</ele><time>2026-03-31T15:11:28Z</time></trkpt><trkpt lat="45.550904233516775" lon="10.418160993769316"><ele>189.8</ele><time>2026-03-31T15:11:30Z</time></trkpt><trkpt lat="45.55083685340081" lon="10.418085194325256"><ele>190.0</ele><time>2026-03-31T15:11:32Z</time></trkpt><trkpt lat="45.5507883430876" lon="10.418009839394431"><ele>190.0</ele><time>2026-03-31T15:11:34Z</time></trkpt><trkpt lat="45.55073959200035" lon="10.417948674779945"><ele>190.0</ele><time>2026-03-31T15:11:36Z</time></trkpt><trkpt lat="45.55069511875881" lon="10.417884396994582"><ele>190.0</ele><time>2026-03-31T15:11:38Z</time></trkpt><trkpt lat="45.550728287742956" lon="10.417781167986373"><ele>190.0</ele><time>2026-03-31T15:11:40Z</time></trkpt><trkpt lat="45.550780523506226" lon="10.417713600151828"><ele>190.0</ele><time>2026-03-31T15:11:42Z</time></trkpt><trkpt lat="45.55083278228569" lon="10.417627185718398"><ele>190.0</ele><time>2026-03-31T15:11:44Z</time></trkpt><trkpt lat="45.550885767761955" lon="10.417547520280667"><ele>190.0</ele><time>2026-03-31T15:11:46Z</time></trkpt><trkpt lat="45.55093239899124" lon="10.417471450909904"><ele>190.0</ele><time>2026-03-31T15:11:48Z</time></trkpt><trkpt lat="45.55098041823252" lon="10.417393581727694"><ele>190.0</ele><time>2026-03-31T15:11:50Z</time></trkpt><trkpt lat="45.551031096737496" lon="10.417307800798495"><ele>190.0</ele><time>2026-03-31T15:11:52Z</time></trkpt><trkpt lat="45.55107116439413" lon="10.417207690616868"><ele>190.0</ele><time>2026-03-31T15:11:54Z</time></trkpt><trkpt lat="45.551111494954846" lon="10.417105872171875"><ele>190.0</ele><time>2026-03-31T15:11:56Z</time></trkpt><trkpt lat="45.551167779862" lon="10.417033056810604"><ele>190.0</ele><time>2026-03-31T15:11:58Z</time></trkpt><trkpt lat="45.55122399327603" lon="10.416944797934015"><ele>189.33333333333334</ele><time>2026-03-31T15:12:00Z</time></trkpt><trkpt lat="45.55127227454402" lon="10.416855744285739"><ele>188.66666666666669</ele><time>2026-03-31T15:12:02Z</time></trkpt><trkpt lat="45.55132558199041" lon="10.416776986969213"><ele>188.0</ele><time>2026-03-31T15:12:04Z</time></trkpt><trkpt lat="45.55136829758157" lon="10.416698043101684"><ele>187.33333333333334</ele><time>2026-03-31T15:12:06Z</time></trkpt><trkpt lat="45.551416702576496" lon="10.416616790349046"><ele>186.66666666666666</ele><time>2026-03-31T15:12:08Z</time></trkpt><trkpt lat="45.551454736948465" lon="10.416538433245094"><ele>186.0</ele><time>2026-03-31T15:12:10Z</time></trkpt><trkpt lat="45.55152318885892" lon="10.416462325119497"><ele>186.0</ele><time>2026-03-31T15:12:13Z</time></trkpt><trkpt lat="45.551571984363434" lon="10.416374794461357"><ele>186.0</ele><time>2026-03-31T15:12:16Z</time></trkpt><trkpt lat="45.55163749078799" lon="10.41641297446645"><ele>186.0</ele><time>2026-03-31T15:12:18Z</time></trkpt><trkpt lat="45.551687857321575" lon="10.416511502042818"><ele>186.0</ele><time>2026-03-31T15:12:20Z</time></trkpt><trkpt lat="45.55166526135747" lon="10.416635286415048"><ele>186.0</ele><time>2026-03-31T15:12:22Z</time></trkpt><trkpt lat="45.55163745612404" lon="10.416752757733692"><ele>186.0</ele><time>2026-03-31T15:12:24Z</time></trkpt><trkpt lat="45.551616692955356" lon="10.416876907442921"><ele>186.0</ele><time>2026-03-31T15:12:26Z</time></trkpt><trkpt lat="45.55159185857621" lon="10.416993679820424"><ele>186.0</ele><time>2026-03-31T15:12:28Z</time></trkpt><trkpt lat="45.55157318662714" lon="10.417122576998812"><ele>186.0</ele><time>2026-03-31T15:12:30Z</time></trkpt><trkpt lat="45.55155691989093" lon="10.417253319553797"><ele>186.0</ele><time>2026-03-31T15:12:32Z</time></trkpt><trkpt lat="45.551531806758135" lon="10.417384982650775"><ele>186.0</ele><time>2026-03-31T15:12:34Z</time></trkpt><trkpt lat="45.551519565005" lon="10.417512375220191"><ele>186.60000000000002</ele><time>2026-03-31T15:12:36Z</time></trkpt><trkpt lat="45.551477645494195" lon="10.417618362044408"><ele>187.2</ele><time>2026-03-31T15:12:38Z</time></trkpt><trkpt lat="45.5514453936722" lon="10.417717125135647"><ele>187.8</ele><time>2026-03-31T15:12:40Z</time></trkpt><trkpt lat="45.551377022920605" lon="10.41785861530827"><ele>188.39999999999998</ele><time>2026-03-31T15:12:42Z</time></trkpt><trkpt lat="45.5513127007874" lon="10.417991672619733"><ele>189.0</ele><time>2026-03-31T15:12:44Z</time></trkpt><trkpt lat="45.551242174961985" lon="10.418126368559518"><ele>189.14285714285714</ele><time>2026-03-31T15:12:46Z</time></trkpt><trkpt lat="45.55118159397541" lon="10.41818585987344"><ele>189.28571428571428</ele><time>2026-03-31T15:12:47Z</time></trkpt><trkpt lat="45.55113503866952" lon="10.41825553694556"><ele>189.42857142857144</ele><time>2026-03-31T15:12:48Z</time></trkpt><trkpt lat="45.55108447643402" lon="10.418330465290191"><ele>189.57142857142856</ele><time>2026-03-31T15:12:49Z</time></trkpt><trkpt lat="45.551043625073476" lon="10.418418498932027"><ele>189.71428571428572</ele><time>2026-03-31T15:12:50Z</time></trkpt><trkpt lat="45.550983339912975" lon="10.418478003269392"><ele>189.85714285714286</ele><time>2026-03-31T15:12:51Z</time></trkpt><trkpt lat="45.55093319389402" lon="10.418550773388558"><ele>190.0</ele><time>2026-03-31T15:12:52Z</time></trkpt><trkpt lat="45.55088502150312" lon="10.418620679565656"><ele>190.0</ele><time>2026-03-31T15:12:53Z</time></trkpt><trkpt lat="45.550841585744614" lon="10.418704032502"><ele>190.0</ele><time>2026-03-31T15:12:54Z</time></trkpt><trkpt lat="45.55078847058196" lon="10.41876506683309"><ele>190.0</ele><time>2026-03-31T15:12:55Z</time></trkpt><trkpt lat="45.550740517578646" lon="10.418840146285653"><ele>190.0</ele><time>2026-03-31T15:12:56Z</time></trkpt><trkpt lat="45.55068893074425" lon="10.4189177854266"><ele>190.0</ele><time>2026-03-31T15:12:57Z</time></trkpt><trkpt lat="45.55064329803073" lon="10.418987671397279"><ele>190.0</ele><time>2026-03-31T15:12:58Z</time></trkpt><trkpt lat="45.550598414907796" lon="10.419052322383425"><ele>190.0</ele><time>2026-03-31T15:12:59Z</time></trkpt><trkpt lat="45.55052266856936" lon="10.419172589403034"><ele>189.8</ele><time>2026-03-31T15:13:01Z</time></trkpt><trkpt lat="45.550448941882145" lon="10.419268195527364"><ele>189.6</ele><time>2026-03-31T15:13:03Z</time></trkpt><trkpt lat="45.55039046660671" lon="10.41937335226653"><ele>189.39999999999998</ele><time>2026-03-31T15:13:05Z</time></trkpt><trkpt lat="45.550318386089714" lon="10.419472146673213"><ele>189.2</ele><time>2026-03-31T15:13:07Z</time></trkpt><trkpt lat="45.55024879466476" lon="10.419553593623688"><ele>189.0</ele><time>2026-03-31T15:13:09Z</time></trkpt><trkpt lat="45.550209061536876" lon="10.4196404835164"><ele>189.16666666666666</ele><time>2026-03-31T15:13:11Z</time></trkpt><trkpt lat="45.5501582793273" lon="10.41971600960093"><ele>189.33333333333334</ele><time>2026-03-31T15:13:13Z</time></trkpt><trkpt lat="45.550108923187494" lon="10.419787497154285"><ele>189.5</ele><time>2026-03-31T15:13:15Z</time></trkpt><trkpt lat="45.550055040413255" lon="10.41985962029599"><ele>189.66666666666669</ele><time>2026-03-31T15:13:17Z</time></trkpt><trkpt lat="45.55001350397726" lon="10.419933607779816"><ele>189.83333333333334</ele><time>2026-03-31T15:13:19Z</time></trkpt><trkpt lat="45.549946020284885" lon="10.419954928503536"><ele>190.0</ele><time>2026-03-31T15:13:22Z</time></trkpt><trkpt lat="45.549878174391026" lon="10.41985399013618"><ele>190.0</ele><time>2026-03-31T15:13:25Z</time></trkpt><trkpt lat="45.54980788003973" lon="10.419790433706446"><ele>190.0</ele><time>2026-03-31T15:13:28Z</time></trkpt><trkpt lat="45.54975155290441" lon="10.419847175196903"><ele>190.0</ele><time>2026-03-31T15:13:31Z</time></trkpt></trkseg></trk></gpx>